[[[{"header":{"parameterUnit":"kt","parameterCategory":2,"dx":1,"dy":1,"la1":29.285339999999998,"la2":30.599998999999997,"lo1":-89.70041500000002,"lo2":-87.6738589999976,"nx":112,"ny":82,"refTime":"2022-10-13T12:00:00:Z","depth":0,"parameterNumber":1,"parameterNumberName":"U-component_of_WINDS"},"data":[15.3121,15.2503,15.1169,14.686,14.5411,14.3912,13.9213,13.6425,13.4819,13.4595,13.1884,13.0352,13.3692,13.2045,13.0678,13.2589,13.0882,12.9076,0.0,12.7577,12.7292,12.8291,13.3,13.6925,13.9065,14.3489,14.7627,15.0838,15.4905,15.7545,15.8045,15.8116,15.7617,15.6618,15.7189,15.7474,15.7474,15.8972,15.9258,15.8259,15.7759,15.6903,15.5904,15.5333,15.5119,15.5119,15.5119,15.4763,15.4263,15.4263,15.3906,15.3407,15.3407,15.3407,15.3621,15.5833,15.6618,15.676,15.7759,15.8116,15.8116,15.8116,15.8116,15.8116,15.8116,15.8418,15.9025,16.1094,16.0185,15.9202,16.1489,16.0982,15.9729,15.9554,15.9305,15.8868,15.8199,15.7234,15.6491,15.6491,15.6491,15.6491,15.6491,15.6491,15.6491,15.6491,15.6491,15.6491,15.6491,15.6491,15.6491,15.6491,15.6491,15.6491,15.6491,15.6491,15.6714,15.7308,15.7828,15.8422,15.9016,15.9388,15.9165,15.8125,15.8125,15.7531,15.6491,15.6491,15.6491,15.6491,15.6489,15.7821,14.8484,14.7632,14.6283,14.2,14.0648,13.9314,13.564,13.2715,13.0931,13.143,12.9504,12.8505,13.1074,13.1216,13.086,13.0788,13.036,12.9504,0.0,12.8148,12.9076,13.0646,13.6354,14.0992,14.3061,14.7128,15.091,15.412,15.7688,15.9757,15.9757,16.0756,16.0185,15.7545,15.8972,15.9615,15.9044,16.0613,16.0827,15.9829,15.9329,15.8473,15.7474,15.6903,15.6689,15.6689,15.6689,15.6404,15.5976,15.6475,15.6047,15.5119,15.569,15.5547,15.5333,15.7474,15.8259,15.8402,15.94,15.9757,15.9757,15.9757,15.9757,15.9757,15.9757,15.9757,16.0063,16.1514,16.0944,16.0259,16.1972,16.1966,16.1437,16.1178,16.0935,16.0502,15.9908,15.8868,15.7976,15.7457,15.7308,15.716,15.6565,15.6937,15.7308,15.7308,15.6862,15.6491,15.6491,15.6491,15.6491,15.6491,15.6491,15.6491,15.6491,15.6491,15.6714,15.7308,15.7828,15.8645,15.9759,16.0279,16.0279,15.9833,15.9833,15.9239,15.8125,15.7605,15.7308,15.7382,15.8422,15.9907,14.4773,14.092,13.828,13.6639,13.3928,13.2606,13.5426,13.2572,12.9647,13.1145,13.0289,12.9789,13.1288,13.2929,13.3,13.0003,13.0788,0.0,0.0,12.8933,13.2501,13.4213,13.9779,14.4702,14.7913,15.1195,15.4406,15.7331,15.9044,15.9829,15.9686,16.2754,16.2326,15.7759,16.204,16.3753,16.2255,16.3682,16.4466,16.4324,16.2825,16.2112,16.204,16.0471,15.9757,15.9757,15.9757,15.8901,15.7688,15.9186,15.7973,15.5405,15.6903,15.6618,15.5619,15.8687,15.9757,15.9757,15.9757,15.9757,15.9757,15.9757,15.9757,15.9757,15.9757,15.9757,15.9757,15.9884,16.0604,16.1555,16.275,16.385,16.4474,16.3983,16.3918,16.3398,16.1764,16.1393,16.0873,15.9388,15.9091,15.8571,15.6937,15.7976,15.9091,15.9091,15.7679,15.664,15.664,15.6565,15.6565,15.6565,15.6491,15.6491,15.6491,15.6491,15.716,15.8868,15.7457,15.7976,16.117,15.9908,15.9908,16.1393,16.1393,16.1393,16.1319,15.9833,15.9091,15.9165,16.2433,16.4735,14.0992,14.0648,14.0599,13.7069,13.6131,13.5563,13.3353,13.1002,12.9076,12.8362,12.9647,0.0,0.0,0.0,13.5355,13.4499,0.0,13.5426,13.1859,13.5426,13.9779,14.3632,14.6628,15.0053,15.4406,15.8758,16.0685,15.9258,16.1612,16.1684,15.8259,16.2112,16.3325,16.097,16.3182,16.4252,16.3824,16.4252,16.3896,16.2754,16.2326,16.1541,16.0399,15.9971,15.9757,15.9757,15.9757,15.9543,15.9186,15.9615,15.9258,15.8544,15.8972,15.8901,15.8616,15.9472,15.9757,15.9757,15.9757,15.9757,15.9757,15.9757,15.9757,15.9757,15.9757,15.9757,16.0009,16.0653,16.0604,16.0724,16.254,16.3262,16.3608,16.4327,16.4115,16.3695,16.325,16.221,16.117,16.0799,16.0725,16.0576,16.0056,16.0353,16.0725,16.0725,16.0279,15.9982,15.9982,15.9016,15.8274,15.8274,15.7234,15.6491,15.6491,15.6491,15.664,15.716,15.7902,15.9239,16.1244,16.2136,16.273,16.3176,16.3176,16.2581,16.1319,16.0873,16.0725,16.0799,16.4217,16.6002,13.7709,13.7245,13.7374,13.4925,13.4738,13.4643,13.2138,13.086,13.0003,12.9076,0.0,0.0,0.0,0.0,0.0,0.0,13.9136,13.9279,13.5426,13.9493,14.4631,14.9411,15.198,15.462,15.8116,16.0899,16.204,16.0827,16.1826,16.1898,16.0471,16.361,16.4681,16.3182,16.4609,16.5109,16.4466,16.4466,16.4038,16.3111,16.3111,16.2611,16.1755,16.1042,16.0756,16.0756,16.0043,15.9757,15.9829,16.0471,16.0399,15.99,16.1184,16.1755,16.1684,16.1042,16.0756,16.0685,16.0043,15.9757,15.9757,15.9757,15.9757,15.9757,15.9757,15.9757,15.9884,16.0604,16.0532,16.0772,16.2,16.3059,16.385,16.4575,16.4691,16.4809,16.4809,16.4067,16.3176,16.2507,16.2433,16.2581,16.325,16.2804,16.2433,16.2433,16.1764,16.1319,16.1319,16.0502,15.9982,15.9982,15.9091,15.8496,15.8496,15.8496,15.8496,15.8496,15.9462,16.0353,16.1319,16.3621,16.5181,16.5924,16.6592,16.6444,16.5478,16.4809,16.4809,16.5552,16.8306,16.9496,13.5141,13.2929,13.1787,13.1645,13.1716,13.1859,13.2073,0.0,13.2643,13.2643,0.0,13.4641,13.8708,0.0,0.0,13.9707,14.2276,14.2775,13.8209,14.3418,14.934,15.3621,15.6546,15.883,16.0399,16.0399,16.0756,16.1826,16.0756,16.1113,16.3539,16.5323,16.5679,16.4466,16.5751,16.6036,16.4966,16.4823,16.4752,16.4752,16.4752,16.4609,16.4395,16.3039,16.2397,16.2326,16.0899,16.0328,16.0399,16.1826,16.1612,16.0542,16.3396,16.4466,16.4252,16.2897,16.2397,16.2183,16.0827,16.0328,16.0328,16.0328,16.0328,16.0328,16.0328,16.0185,16.0043,15.9829,16.0483,16.117,16.1328,16.2781,16.432,16.4575,16.5347,16.6065,16.6221,16.6221,16.5775,16.4364,16.4141,16.4587,16.5998,16.5032,16.4141,16.4141,16.2878,16.1839,16.1839,16.169,16.1616,16.1616,16.1467,16.1319,16.1319,16.1319,16.1319,16.1319,16.1319,16.1319,16.1319,16.429,16.6741,16.8449,17.0083,17.0974,17.0974,16.9637,16.986,17.1568,17.3128,17.403,13.4855,13.3714,13.3143,13.1859,13.2572,13.3785,0.0,0.0,0.0,13.9136,14.2133,14.4702,14.4345,14.5273,14.6129,14.6129,14.884,14.9697,14.62,15.4406,16.1184,16.2112,16.2754,16.3682,16.5251,16.4252,16.2611,16.0399,16.1113,16.0827,15.8901,16.147,16.3468,16.4395,16.4752,16.5965,16.8248,16.6964,16.6322,16.6322,16.6322,16.5679,16.4466,16.4181,16.4038,16.3967,16.3682,16.3539,16.361,16.3896,16.3824,16.361,16.4252,16.4466,16.4395,16.411,16.4038,16.3967,16.3682,16.3539,16.3539,16.3539,16.3539,16.3539,16.3539,16.2683,16.1398,16.0114,16.0009,16.0239,16.117,16.1668,16.2361,16.4227,16.4843,16.5103,16.5991,16.6221,16.6146,16.5849,16.5775,16.5849,16.6146,16.5924,16.5775,16.5775,16.5478,16.5255,16.5255,16.4141,16.3398,16.3398,16.2136,16.1319,16.1319,16.1319,16.1319,16.1319,16.1319,16.1319,16.1319,16.325,16.5107,16.6666,16.8375,16.9192,16.9192,17.0231,17.1568,17.3202,17.4922,17.574,13.2215,13.1573,13.1787,13.2572,13.3928,0.0,0.0,13.9921,14.3061,14.2276,14.5844,14.9411,15.0196,15.0339,15.1124,15.3478,15.5262,15.6261,15.619,16.2326,16.7106,16.7891,16.6536,16.625,16.782,16.5822,16.411,16.3325,16.2611,16.1826,16.1042,16.1684,16.2825,16.4395,16.4466,16.518,16.675,16.675,16.675,16.675,16.7606,16.7535,16.675,16.5965,16.5608,16.5537,16.4823,16.4466,16.4466,16.4466,16.5394,16.6821,16.6821,16.6821,16.6678,16.5893,16.5608,16.5465,16.4752,16.4466,16.4466,16.4466,16.4466,16.4466,16.4466,16.3896,16.3111,16.2326,16.1541,16.1026,16.158,16.1585,16.1668,16.2677,16.3388,16.4134,16.5189,16.5431,16.5596,16.6143,16.6221,16.6221,16.6221,16.6221,16.6221,16.6221,16.6221,16.6221,16.6221,16.5552,16.5032,16.5032,16.429,16.377,16.377,16.377,16.377,16.377,16.377,16.377,16.377,16.4587,16.5849,16.7483,16.9117,17.0009,17.0009,17.0826,17.1643,17.246,17.3356,17.3807,12.9504,12.9504,13.036,13.3214,13.5355,0.0,13.7852,14.2704,14.6914,14.6557,14.9982,15.3835,15.6475,15.5405,15.5405,15.9186,16.0043,16.1541,16.5251,16.8248,17.0389,17.1316,16.9247,16.8034,16.9033,16.6607,16.5323,16.625,16.4038,16.3111,16.4395,16.2968,16.2825,16.4395,16.3896,16.3824,16.4466,16.5394,16.6036,16.6322,16.7891,16.8676,16.8676,16.7677,16.7249,16.7178,16.5893,16.5394,16.5394,16.5394,16.6821,16.9104,16.9104,16.9104,16.8962,16.7677,16.7249,16.7035,16.5822,16.5394,16.5394,16.5394,16.5394,16.5394,16.5394,16.518,16.4895,16.4895,16.3753,16.2611,16.2611,16.2225,16.1918,16.1791,16.2545,16.3526,16.4393,16.4665,16.5004,16.6436,16.6444,16.6221,16.6221,16.6221,16.6221,16.6221,16.6221,16.6221,16.6221,16.6221,16.6221,16.6221,16.6221,16.6221,16.6221,16.6221,16.6221,16.6221,16.6221,16.6221,16.6221,16.6221,16.6889,16.8226,16.9563,17.0454,17.0751,17.0454,17.0454,17.0751,17.1123,17.1276,12.8933,13.0289,13.1716,13.35,13.614,0.0,14.3632,14.8412,15.3121,15.7117,16.0613,16.2968,16.3325,16.097,15.9186,15.9686,16.097,16.3967,16.9818,17.2172,17.2815,17.1602,17.1102,17.046,16.9247,16.7535,16.6036,16.4823,16.4395,16.4252,16.4466,16.2968,16.2825,16.4395,16.1755,16.1612,16.4395,16.3253,16.3325,16.4752,16.625,16.7035,16.7035,16.8319,16.889,16.889,16.8676,16.8605,16.8605,16.8605,16.8819,16.9104,16.9104,16.9104,16.9104,16.8962,16.889,16.8819,16.8676,16.8605,16.8605,16.8605,16.8605,16.8605,16.8605,16.7606,16.6536,16.6536,16.5394,16.4181,16.4181,16.4168,16.398,16.355,16.3538,16.3779,16.4521,16.4665,16.5373,16.7994,16.726,16.6221,16.6221,16.6221,16.6221,16.6221,16.6221,16.6221,16.6221,16.6221,16.6221,16.6221,16.6221,16.6221,16.6221,16.6221,16.6221,16.6221,16.6221,16.6221,16.6221,16.6221,16.6295,16.6518,16.6666,16.7483,16.9043,16.7483,16.7558,16.9043,17.0528,17.1197,12.7221,12.8362,12.9932,13.4213,0.0,0.0,14.6129,15.2123,15.7189,15.8187,16.2397,16.5822,16.5822,16.5465,16.5822,16.7677,16.7749,16.8819,17.2315,17.417,17.4598,17.3029,17.2815,17.1887,16.939,16.8534,16.7891,16.7249,16.7178,16.675,16.5822,16.4324,16.3753,16.4466,16.2326,16.1755,16.3111,16.2469,16.2469,16.3111,16.4681,16.5394,16.5465,16.7035,16.7749,16.782,16.8748,16.9104,16.9104,16.9104,16.9104,16.9104,16.9104,16.9104,16.9104,16.9104,16.9104,16.9104,16.9104,16.9104,16.9104,16.9104,16.9104,16.9104,16.9104,16.8676,16.8177,16.8177,16.7677,16.6964,16.6036,16.5683,16.5496,16.5182,16.5659,16.6426,16.7262,16.6728,16.6923,16.9627,16.9637,16.882,16.7855,16.7706,16.7335,16.6369,16.6221,16.6221,16.6221,16.6221,16.6221,16.6221,16.6221,16.6221,16.6221,16.6221,16.6221,16.6221,16.6221,16.6221,16.6221,16.6221,16.6221,16.6221,16.6221,16.6592,16.726,16.6592,16.6592,16.726,16.8003,16.83,12.6222,0.0,0.0,0.0,0.0,0.0,15.0196,15.5976,16.0471,16.0685,16.4252,16.7535,16.7963,16.8676,17.046,17.4456,17.417,17.3814,17.4955,17.5669,17.574,17.4598,17.3671,17.2244,16.9961,16.939,16.9104,16.9104,16.9104,16.8605,16.7463,16.6322,16.5537,16.5109,16.361,16.2754,16.2754,16.2326,16.2326,16.2825,16.3468,16.4252,16.5109,16.625,16.7035,16.7463,16.8605,16.9104,16.9104,16.9104,16.9104,16.9104,16.9104,16.9104,16.9104,16.9104,16.9104,16.9104,16.9104,16.9104,16.9104,16.9104,16.9104,16.9104,16.9104,16.9104,16.9104,16.9104,16.9104,16.889,16.7677,16.7425,16.7322,16.6889,16.7776,16.8802,16.9342,16.9211,16.9562,17.1563,17.1568,17.0826,16.9637,16.9414,16.882,16.7186,16.6889,16.6741,16.6295,16.6221,16.6221,16.6221,16.6221,16.6221,16.6221,16.6221,16.6221,16.6221,16.6221,16.6221,16.6221,16.6221,16.6221,16.6221,16.6221,16.6221,16.6221,16.6221,16.6221,16.6221,16.6221,16.6221,0.0,0.0,0.0,13.9636,14.4345,14.9839,15.7617,16.0827,16.3325,16.782,16.8962,16.9532,17.1031,17.0103,17.1174,17.731,17.8237,17.8237,17.8309,17.7024,17.6097,17.6097,17.3385,17.1459,17.1388,17.0032,16.9104,16.9104,16.9104,16.9104,16.9104,16.9033,16.8319,16.675,16.518,16.4395,16.4395,16.2897,16.2897,16.4395,16.2897,16.3753,16.6678,16.675,16.7606,16.9104,16.9104,16.9104,16.9104,16.9104,16.9104,16.9104,16.9104,16.9104,16.9104,16.9104,16.9104,16.9104,16.9104,16.9104,16.9104,16.9104,16.9104,16.9104,16.9104,16.9104,16.9104,16.9104,16.9104,16.9104,16.9104,16.9937,17.0355,16.8766,16.9374,17.0016,16.9563,17.1584,17.3425,17.3499,17.2311,17.1197,17.1197,17.1197,17.0603,16.8894,16.8672,16.8077,16.6444,16.6221,16.6221,16.6221,16.6221,16.6221,16.6221,16.6221,16.6221,16.6221,16.6221,16.6221,16.6221,16.6221,16.6221,16.6221,16.6221,16.6221,16.6221,16.6221,16.6221,16.6221,16.6221,16.6221,13.1288,13.4285,13.7353,14.5201,14.9982,15.4192,16.0043,16.3325,16.5679,16.7249,16.9247,17.0817,17.1316,17.2743,17.4812,17.7952,17.8451,17.8451,17.8451,17.7096,17.574,17.4741,17.2743,17.1031,17.0032,16.9461,16.9104,16.9104,16.9104,16.9104,16.9104,16.9104,16.889,16.8391,16.782,16.7035,16.5965,16.4466,16.3967,16.4466,16.2897,16.2683,16.3753,16.4752,16.5537,16.6179,16.8248,16.9104,16.9104,16.9104,16.9104,16.9104,16.9104,16.9104,16.9104,16.9104,16.9104,16.9104,16.9104,16.9104,16.9104,16.9104,16.9104,16.9104,16.9104,16.9104,16.9104,16.9104,16.9104,16.9104,16.9104,16.9504,16.9993,17.0963,17.2137,17.3169,17.3717,17.4589,17.5282,17.5282,17.4836,17.4168,17.2979,17.2831,17.2237,17.0677,17.038,16.9786,16.8152,16.7855,16.7483,16.6295,16.6221,16.6221,16.6221,16.6221,16.6221,16.6221,16.6221,16.6221,16.6221,16.6221,16.6221,16.6221,16.6221,16.6221,16.6221,16.6221,16.6221,16.6221,16.6221,16.6221,13.4142,13.7923,14.1634,14.9911,15.4834,15.883,16.361,16.6179,16.7749,16.8319,17.0032,17.1602,17.2172,17.4812,17.731,17.8309,17.8451,17.8451,17.8451,17.7096,17.5526,17.4028,17.2387,17.0817,16.9318,16.9104,16.9104,16.9104,16.9104,16.9104,16.9104,16.9104,16.9104,16.9104,16.9104,16.8676,16.7606,16.6036,16.5537,16.6108,16.3967,16.3539,16.4681,16.4538,16.5037,16.625,16.8248,16.9104,16.9104,16.9104,16.8819,16.8319,16.8319,16.7963,16.7535,16.8105,16.8319,16.8391,16.8962,16.9104,16.9104,16.9104,16.9104,16.9104,16.9104,16.9104,16.9104,16.9104,16.9104,16.9104,16.9104,16.9104,16.9563,17.15,17.2835,17.4126,17.5776,17.6099,17.6099,17.6099,17.6099,17.5802,17.4688,17.4539,17.3945,17.2311,17.2088,17.1494,16.986,16.9637,16.8969,16.7335,16.7112,16.6889,16.6295,16.6221,16.6221,16.6221,16.6221,16.6221,16.6221,16.6221,16.6221,16.6221,16.6221,16.6221,16.6221,16.6221,16.6221,16.6221,16.6221,16.6221,13.5355,14.1277,14.7556,15.3978,15.8972,16.3468,16.8105,16.9104,16.9532,17.1031,17.1459,17.203,17.3528,17.6382,17.8451,17.8451,17.8451,17.8451,17.8451,17.7096,17.5597,17.4099,17.2529,17.0959,16.939,16.9247,16.9247,16.9104,16.9104,16.9104,16.9104,16.9104,16.9104,16.9104,16.9104,16.9104,16.9104,16.7606,16.7677,16.9104,16.6036,16.6108,16.889,16.5965,16.625,16.9104,16.9033,16.9033,16.9104,16.9104,16.8248,16.6892,16.6892,16.5965,16.4895,16.6322,16.6964,16.7249,16.8605,16.9176,16.9247,16.9176,16.9104,16.9104,16.9104,16.9104,16.9238,16.9238,16.9238,16.9238,16.9238,16.9238,16.9432,17.0566,17.1731,17.3151,17.5446,17.6017,17.6099,17.6099,17.6099,17.6099,17.6099,17.6099,17.5579,17.3945,17.3722,17.3128,17.1568,17.1345,17.0751,16.9043,16.8894,16.8226,16.6592,16.6518,16.6444,16.6369,16.6369,16.6295,16.6221,16.6221,16.6221,16.6221,16.6221,16.6221,16.6221,16.6221,16.6221,16.6221,16.6221,16.6221,14.0064,14.6985,15.2765,16.0185,16.2968,16.4823,16.8319,16.9104,16.9247,16.9604,17.1602,17.3314,17.3742,17.6382,17.8451,17.8451,17.8451,17.8451,17.8451,17.7096,17.5954,17.5597,17.417,17.2601,17.1031,17.0888,17.0389,16.9247,16.9104,16.9104,16.9104,16.9104,16.9104,16.9104,16.9104,16.9104,16.9104,16.8748,16.8748,16.9104,16.7106,16.6607,16.7321,16.6536,16.7249,16.9104,16.7891,16.8034,16.9104,16.9104,16.889,16.8534,16.8534,16.8319,16.7963,16.8391,16.9247,17.0175,16.939,16.9889,17.0674,16.9532,16.9104,16.9104,16.9104,16.9694,17.0442,17.0442,17.1101,17.1731,17.1731,17.1101,17.0442,17.0739,17.1731,17.2728,17.3357,17.4928,17.6099,17.6099,17.6099,17.6099,17.6099,17.6099,17.595,17.5579,17.5505,17.491,17.3202,17.2979,17.2385,17.0751,17.0603,17.0454,17.0009,16.9934,16.9414,16.8152,16.8077,16.7558,16.6295,16.6221,16.6221,16.6221,16.6221,16.6221,16.6221,16.6221,16.6221,16.6221,16.6221,16.6221,13.9993,14.9054,15.726,16.3039,16.5465,16.6964,16.8748,16.9104,16.9104,16.9104,17.1602,17.3814,17.3814,17.6382,17.8451,17.8451,17.8451,17.8451,17.8451,17.7667,17.6882,17.6168,17.5383,17.4242,17.2672,17.2458,17.1816,17.0246,17.0175,16.9818,16.9176,16.9104,16.9104,16.9104,16.9104,16.9104,16.9104,16.9104,16.9104,16.9104,16.8248,16.782,16.782,16.7106,16.7606,16.9104,16.8177,16.8319,16.9104,16.9104,16.8748,16.8105,16.8105,16.7677,16.7178,16.782,16.8676,16.939,16.9176,17.0175,17.1316,17.0389,17.0603,17.1174,17.1174,17.1961,17.3027,17.3027,17.3836,17.4738,17.4738,17.4294,17.3575,17.2849,17.3534,17.4603,17.5336,17.6904,17.803,17.7287,17.6619,17.6099,17.6099,17.6099,17.6099,17.6099,17.6099,17.5802,17.4836,17.4688,17.4093,17.246,17.2311,17.2014,17.1271,17.1271,17.0826,16.986,16.986,16.9414,16.8449,16.7706,16.7335,16.7335,16.7335,16.7335,16.7335,16.6592,16.6221,16.6221,16.6221,16.6221,13.8708,14.8983,15.9472,16.3468,16.6678,16.889,16.9104,16.9104,16.9104,16.9104,17.1602,17.3814,17.3814,17.6382,17.8451,17.8451,17.8451,17.8451,17.8451,17.8451,17.7952,17.6596,17.6454,17.5811,17.4313,17.4099,17.3457,17.1887,17.1744,17.1174,16.9818,16.9746,16.9675,16.9461,16.9461,16.9318,16.9104,16.9104,16.9104,16.9104,16.9104,16.9104,16.9104,16.7677,16.782,16.9104,16.9104,16.9104,16.9104,16.9104,16.8319,16.7106,16.7106,16.625,16.5251,16.6607,16.731,16.7728,16.8942,17.0372,17.1658,17.1444,17.2309,17.3528,17.3528,17.4472,17.5823,17.5874,17.6757,17.7694,17.7909,17.7802,17.7402,17.6012,17.6698,17.7898,17.9151,18.026,18.0555,17.907,17.7659,17.6767,17.6767,17.6619,17.6396,17.6173,17.6099,17.6099,17.6099,17.6099,17.5579,17.4093,17.3945,17.3351,17.2014,17.1865,17.1791,17.1568,17.1568,17.1494,17.1271,16.986,16.9192,16.9414,16.9192,16.9043,16.9043,16.7409,16.6518,16.6518,16.6295,16.6221,14.3346,14.9054,15.3906,16.2326,16.5822,16.7535,16.8819,16.9104,16.9104,16.9104,17.1602,17.3814,17.3814,17.6382,17.8451,17.8451,17.8451,17.8451,17.8451,17.8451,17.8309,17.8095,17.8023,17.7453,17.5883,17.574,17.5098,17.3528,17.3385,17.3314,17.3029,17.3029,17.2387,17.1102,17.1031,17.0389,16.9176,16.9104,16.9104,16.9104,16.9104,16.9104,16.9104,16.889,16.889,16.9104,16.9104,16.9104,16.9104,16.9104,16.8962,16.8748,16.8748,16.8605,16.8391,16.8605,17.0182,17.1935,17.0926,17.1574,17.2655,17.1358,17.1388,17.1887,17.1887,17.354,17.5802,17.6873,17.8056,17.9155,18.008,17.9636,17.8909,17.8615,18.0488,18.2006,18.0893,18.0842,18.0927,18.0555,18.0332,18.011,18.011,17.8995,17.7584,17.6322,17.6099,17.6099,17.6099,17.6099,17.6025,17.5727,17.5727,17.5579,17.5282,17.5282,17.4688,17.3277,17.3202,17.2608,17.1271,17.0974,17.142,17.2757,17.1494,17.0826,17.0826,16.9117,16.83,16.83,16.6889,16.6221,14.2317,14.8484,15.412,15.9472,16.3824,16.7178,16.8748,16.9104,16.939,17.0175,17.153,17.2815,17.3671,17.5669,17.7524,17.8309,17.8451,17.8451,17.8451,17.8451,17.8451,17.8451,17.8451,17.8166,17.7381,17.731,17.6668,17.5169,17.5027,17.467,17.3885,17.3814,17.3457,17.2743,17.2672,17.2315,17.1602,17.1602,17.1174,17.0317,17.0317,16.9961,16.9176,16.9961,16.9889,16.9104,16.9104,16.9104,16.9104,16.9104,16.9104,16.9104,16.9104,16.9104,16.9104,16.9104,16.9933,17.1014,17.0905,17.1944,17.3221,17.3023,17.3702,17.4399,17.4399,17.587,17.7549,17.8268,17.9916,18.1577,18.2178,18.2437,18.2465,18.1725,18.2511,18.3303,18.2412,18.2858,18.3229,18.2486,18.2338,18.2041,18.1149,18.0258,17.9218,17.7584,17.7361,17.7064,17.6247,17.6099,17.6099,17.6099,17.6099,17.6099,17.6099,17.6099,17.5802,17.4985,17.491,17.4539,17.3796,17.3796,17.4168,17.491,17.3277,17.246,17.246,17.0826,16.9563,16.8746,16.7929,16.7038,14.2,14.8626,15.5191,15.7831,16.1898,16.6036,16.8962,16.939,16.9461,17.0674,17.1245,17.1816,17.31,17.4884,17.6525,17.7738,17.8237,17.8451,17.8451,17.8451,17.8451,17.8451,17.8451,17.8451,17.8451,17.8451,17.7952,17.6739,17.6596,17.6097,17.4884,17.4812,17.467,17.4313,17.4313,17.417,17.3814,17.3814,17.3171,17.1958,17.1958,17.1316,17.0175,17.1388,17.1316,17.0103,16.9746,16.9604,16.9604,16.9247,16.9104,16.9104,16.9104,16.9104,16.9104,16.9104,16.9238,16.9563,17.0566,17.1776,17.3268,17.4187,17.543,17.6743,17.6743,17.769,17.8783,17.9155,18.0858,18.2673,18.2847,18.3897,18.4492,18.3229,18.2932,18.2932,18.2858,18.412,18.5011,18.3749,18.3749,18.36,18.2263,18.1744,18.1075,17.9738,17.9218,17.8401,17.6842,17.6619,17.647,17.6173,17.6099,17.6099,17.6099,17.6099,17.6099,17.6099,17.6099,17.6099,17.6099,17.6099,17.6099,17.6099,17.4836,17.4168,17.4168,17.2534,17.1048,16.9786,16.9043,16.8003,14.7575,15.1195,15.4406,16.0257,16.1042,16.2326,16.9604,17.0103,16.9176,16.9318,17.046,17.1459,17.1673,17.4099,17.6168,17.6311,17.7524,17.8451,17.8451,17.8451,17.8451,17.8451,17.8451,17.8451,17.8451,17.8451,17.838,17.8237,17.8237,17.8166,17.8023,17.8023,17.7381,17.5954,17.5883,17.5241,17.3814,17.3814,17.3742,17.36,17.36,17.3528,17.3385,17.3528,17.3528,17.3314,17.1887,17.1245,17.1102,16.9746,16.9104,16.9104,16.9104,16.9104,16.9104,16.9104,16.9824,17.0689,17.0739,17.1645,17.2622,17.2731,17.3935,17.5176,17.5176,17.6197,17.7694,17.8957,17.9401,17.9837,18.0893,18.1298,18.1372,18.1224,18.1224,18.1224,18.1224,18.2486,18.3675,18.3526,18.464,18.5606,18.5383,18.4194,18.3229,18.308,18.1744,18.011,17.8476,17.8253,17.7659,17.6247,17.6099,17.6099,17.6099,17.6099,17.6099,17.6099,17.6099,17.6099,17.6099,17.6099,17.6099,17.6099,17.595,17.5876,17.5876,17.4168,17.3277,17.3054,17.0157,16.8672,14.0861,14.5772,15.0481,15.2979,15.6689,16.0827,16.4895,16.6821,16.8248,17.0103,16.9532,16.9176,17.1102,17.3243,17.5027,17.5954,17.7453,17.8451,17.8451,17.8451,17.8451,17.8451,17.8451,17.8451,17.8451,17.8451,17.8451,17.8451,17.8451,17.8451,17.8451,17.8451,17.8166,17.7524,17.7524,17.7238,17.6596,17.6596,17.6097,17.5169,17.5169,17.574,17.6596,17.5597,17.5169,17.5098,17.3528,17.2886,17.2815,17.2244,17.1388,17.0531,17.0531,16.9961,16.9104,16.9104,16.9504,16.9881,17.0689,17.122,17.1731,17.3224,17.4073,17.4788,17.5443,17.6073,17.6683,17.7194,17.8023,17.8778,17.9357,18.0184,18.0481,17.855,17.8773,17.9441,17.9441,18.0778,18.1966,18.1966,18.3303,18.4417,18.4417,18.4714,18.4863,18.4863,18.3526,18.1892,18.0184,17.9961,17.9367,17.7659,17.751,17.7139,17.6173,17.6099,17.6099,17.6099,17.6099,17.6099,17.6099,17.6099,17.6099,17.6099,17.6099,17.6099,17.6099,17.543,17.4613,17.3574,17.2237,17.0603,13.7102,14.1991,14.6842,14.827,15.2836,15.7759,16.0756,16.3111,16.5751,16.9318,16.8676,16.8105,17.0389,17.203,17.36,17.5169,17.6739,17.7952,17.838,17.8451,17.8451,17.8451,17.8451,17.8451,17.8451,17.8451,17.8451,17.8451,17.8451,17.8451,17.8451,17.8451,17.8451,17.8451,17.8451,17.8451,17.8451,17.8451,17.7881,17.681,17.681,17.7381,17.838,17.731,17.681,17.6739,17.5669,17.4955,17.4527,17.4527,17.36,17.2172,17.2172,17.1459,17.0531,17.0531,17.0246,16.9952,17.0655,17.0926,17.122,17.3151,17.4029,17.4579,17.5776,17.6099,17.6099,17.6099,17.6916,17.7733,17.7733,17.8624,17.8995,17.6693,17.699,17.7733,17.7733,17.907,18.0184,18.0184,18.1595,18.2783,18.2783,18.3675,18.4566,18.5086,18.4194,18.3229,18.2486,18.2041,18.1075,17.9367,17.9218,17.8773,17.7659,17.7064,17.6842,17.6842,17.6396,17.6322,17.6767,17.6842,17.6619,17.6099,17.6099,17.6099,17.6099,17.6099,17.5505,17.4316,17.3796,17.2088,14.0039,14.2062,14.4417,14.9126,15.0339,15.2051,15.833,15.9829,16.1184,16.5822,16.8034,16.9104,16.9176,17.0389,17.1958,17.36,17.5169,17.6668,17.8237,17.8451,17.8451,17.8451,17.8451,17.8451,17.8451,17.8451,17.8451,17.8451,17.8451,17.8451,17.8451,17.8451,17.8451,17.8451,17.8451,17.8451,17.8451,17.8451,17.8451,17.8451,17.8451,17.8451,17.8451,17.8451,17.8451,17.8451,17.838,17.7524,17.6097,17.6097,17.5169,17.3814,17.3814,17.3742,17.3742,17.3742,17.2743,17.1388,17.1459,17.1172,17.1101,17.2182,17.343,17.4579,17.5776,17.6099,17.6099,17.6099,17.6173,17.6173,17.6173,17.6173,17.6173,17.6099,17.6173,17.6173,17.6173,17.7361,17.8476,17.8476,17.9812,18.1001,18.1001,18.1001,18.1595,18.3303,18.3526,18.4046,18.5606,18.4417,18.2858,18.1149,18.0927,18.0927,18.0927,17.9367,17.8401,17.8401,17.699,17.6842,17.8327,17.8401,17.7659,17.6173,17.6099,17.6099,17.6099,17.6099,17.6099,17.6099,17.4391,17.2757,13.6887,13.9636,14.2775,14.7485,14.9483,15.1409,15.5619,15.7403,15.8901,16.147,16.2397,16.3396,16.5537,16.8962,17.1958,17.3528,17.5098,17.6668,17.8237,17.8451,17.8451,17.8451,17.8451,17.8451,17.8451,17.8451,17.8451,17.8451,17.8451,17.8451,17.8451,17.8451,17.8451,17.8451,17.8451,17.8451,17.8451,17.8451,17.8451,17.8451,17.8451,17.8451,17.8451,17.8451,17.8451,17.8451,17.8451,17.8166,17.7738,17.7738,17.7381,17.6882,17.5811,17.4741,17.3814,17.3814,17.4064,17.4346,17.4346,17.4789,17.5572,17.6759,17.7437,17.7898,17.9113,17.8624,17.7733,17.7733,17.6916,17.6619,17.8847,17.9441,17.9441,17.9441,17.9441,17.9441,17.9441,17.9812,18.0184,18.0184,18.1521,18.2709,18.2709,18.2709,18.2858,18.3452,18.2486,18.2412,18.4046,18.3823,18.3749,18.4269,18.3377,18.2263,18.1075,18.0481,18.0184,18.0184,17.9738,17.9664,18.0184,18.0184,17.9961,17.9441,17.8327,17.7733,17.7733,17.5505,17.4391,17.4316,17.2841,17.1205,13.3807,13.7638,14.1634,14.4559,14.6486,14.8626,15.2408,15.355,15.4477,15.6689,15.7617,15.8972,16.2112,16.6536,17.0175,17.1816,17.3814,17.5811,17.731,17.8095,17.8451,17.8451,17.8451,17.8451,17.8451,17.8451,17.8451,17.8451,17.8451,17.8451,17.8451,17.8451,17.8451,17.8451,17.8451,17.8451,17.8451,17.8451,17.8451,17.8451,17.8451,17.8451,17.8451,17.8451,17.8451,17.8451,17.8451,17.8451,17.8451,17.8451,17.8451,17.8309,17.7381,17.6382,17.5597,17.5597,17.5647,17.5871,17.5871,17.6257,17.6987,17.8195,17.8883,17.9373,18.0671,18.0258,17.9367,17.9367,17.8698,17.8401,18.0481,18.1001,18.1001,18.1001,18.1001,18.1001,18.1001,18.1001,18.1001,18.1001,18.1818,18.2561,18.2561,18.2561,18.2783,18.3377,18.2561,18.2338,18.3377,18.3526,18.3897,18.4863,18.412,18.3303,18.2858,18.2263,18.1966,18.1966,18.2486,18.2561,18.1966,18.1966,18.1669,18.1001,17.9293,17.8476,17.8476,17.5802,17.4539,17.4539,17.3142,17.1431,13.1228,13.6068,14.0706,14.0992,14.2419,14.4845,14.9126,14.8983,14.8769,15.1837,15.3478,15.5405,15.8687,16.2825,16.6464,16.8605,17.153,17.4099,17.5883,17.7381,17.8309,17.8451,17.8451,17.8451,17.8451,17.8451,17.8451,17.8451,17.8451,17.8451,17.8451,17.8451,17.8451,17.8451,17.8451,17.8451,17.8451,17.8451,17.8451,17.8451,17.8451,17.8451,17.8451,17.8451,17.8451,17.8451,17.8451,17.8451,17.8451,17.8451,17.8451,17.8451,17.8451,17.8451,17.8451,17.8451,17.7524,17.645,17.645,17.6327,17.6358,17.7579,17.8666,17.9741,18.0968,18.1224,18.1149,18.1149,18.1224,18.1298,18.1298,18.1298,18.1298,18.1298,18.1298,18.1298,18.1298,18.1298,18.1298,18.1298,18.1298,18.1298,18.1298,18.1224,18.1669,18.308,18.3377,18.3377,18.3526,18.3526,18.3526,18.3526,18.3526,18.412,18.5531,18.4343,18.3526,18.3526,18.5011,18.516,18.3749,18.3675,18.2932,18.1372,17.9664,17.8773,17.8624,17.6916,17.6099,17.5876,17.4481,17.2922,13.2456,13.5355,13.8209,14.1848,14.5701,14.8626,14.8484,14.8198,14.8127,14.8912,14.8412,14.9197,15.3621,15.5333,15.8544,16.6108,16.8962,17.1602,17.5597,17.6454,17.7096,17.8309,17.8451,17.8451,17.8451,17.8451,17.8451,17.8451,17.8451,17.8451,17.8451,17.8451,17.8451,17.8451,17.8451,17.8451,17.8451,17.8451,17.8451,17.8451,17.8451,17.8451,17.8451,17.8451,17.8451,17.8451,17.8451,17.8451,17.8451,17.8451,17.8451,17.8451,17.8451,17.8451,17.8451,17.8451,17.8863,17.937,17.937,17.9904,18.0859,18.2146,18.2736,18.3134,18.4379,18.3823,18.2932,18.2932,18.3749,18.4714,18.4714,18.4714,18.4714,18.4714,18.4714,18.4714,18.4714,18.4714,18.4714,18.4714,18.4714,18.4714,18.4714,18.3675,18.308,18.3452,18.2412,18.2041,18.3303,18.3526,18.3526,18.3526,18.3526,18.36,18.3897,18.3675,18.3526,18.3526,18.5011,18.568,18.5309,18.5309,18.5086,18.4714,18.3155,18.1669,18.0407,17.7599,17.5671,17.4406,17.3073,17.2251,13.1312,13.4998,13.8851,14.0635,14.356,14.5772,14.4916,14.4702,14.4702,14.4702,14.4631,14.5558,14.884,15.0695,15.4049,16.1327,16.625,17.0531,17.4527,17.5669,17.6739,17.8237,17.8451,17.8451,17.8451,17.8451,17.8451,17.8451,17.8451,17.8451,17.8451,17.8451,17.8451,17.8451,17.8451,17.8451,17.8451,17.8451,17.8451,17.8451,17.8451,17.8451,17.8451,17.8451,17.8451,17.8451,17.8451,17.8451,17.8451,17.8451,17.8451,17.8451,17.8451,17.8451,17.8451,17.8451,17.894,17.9549,17.9549,18.0393,18.1436,18.2141,18.314,18.4215,18.4869,18.481,18.4566,18.4566,18.516,18.5828,18.5828,18.5828,18.5828,18.5828,18.5828,18.5828,18.5828,18.5828,18.5828,18.5828,18.5828,18.5828,18.5828,18.516,18.4566,18.4566,18.3823,18.3229,18.3377,18.3452,18.3526,18.3526,18.3526,18.3526,18.3452,18.3452,18.3526,18.3526,18.4269,18.4789,18.4789,18.5457,18.5828,18.5828,18.4269,18.3091,18.2208,17.9018,17.7167,17.635,17.4188,17.314,13.0167,13.5248,14.0428,13.8922,13.9779,14.0849,14.0635,14.0564,14.0492,14.0278,14.142,14.3061,14.4631,14.7271,15.0767,15.5619,16.2326,16.8462,17.2815,17.4812,17.6454,17.8237,17.8451,17.8451,17.8451,17.8451,17.8451,17.8451,17.8451,17.8451,17.8451,17.8451,17.8451,17.8451,17.8451,17.8451,17.8451,17.8451,17.8451,17.8451,17.8451,17.8451,17.8451,17.8451,17.8451,17.8451,17.8451,17.8451,17.8451,17.8451,17.8451,17.8451,17.8451,17.8451,17.8451,17.8451,17.8451,17.8451,17.8451,17.9143,18.0135,18.0265,18.1793,18.3531,18.3738,18.4606,18.558,18.558,18.5742,18.5828,18.5828,18.5828,18.5828,18.5828,18.5828,18.5828,18.5828,18.5828,18.5828,18.5828,18.5828,18.5828,18.5828,18.5828,18.5828,18.5828,18.5828,18.5309,18.3897,18.3823,18.3749,18.3526,18.3526,18.3526,18.3526,18.3526,18.3526,18.3526,18.3526,18.3526,18.3526,18.4789,18.5457,18.5457,18.4194,18.362,18.3711,18.0963,17.9478,17.9186,17.6573,17.5222,13.31,13.6594,13.9808,13.8856,13.9779,14.0564,13.9279,13.8994,13.8566,13.7281,13.8209,13.9779,14.1348,14.3132,14.5844,15.0624,15.4691,16.0613,17.046,17.3171,17.5241,17.8095,17.8451,17.8451,17.8451,17.8451,17.8451,17.8451,17.8451,17.8451,17.8451,17.8451,17.8451,17.8451,17.8451,17.8451,17.8451,17.8451,17.8451,17.8451,17.8451,17.8451,17.8451,17.8451,17.8451,17.8451,17.8451,17.8451,17.8451,17.8451,17.8451,17.8451,17.8451,17.8451,17.8451,17.8451,17.8451,17.8451,17.8451,17.8593,17.894,18.0077,18.0647,18.1072,18.2183,18.3352,18.4314,18.4314,18.5056,18.5828,18.5828,18.5828,18.5828,18.5828,18.5828,18.5828,18.5828,18.5828,18.5828,18.5828,18.5828,18.5828,18.5828,18.5828,18.5828,18.5828,18.5828,18.5754,18.5457,18.5457,18.5011,18.3675,18.3526,18.3526,18.3526,18.3526,18.3526,18.3526,18.3526,18.3452,18.3377,18.3675,18.3823,18.3823,18.3694,18.3711,18.3711,18.3585,18.2021,17.9334,17.9102,17.8201,13.5031,13.8204,14.1021,14.018,14.0421,14.0778,14.0064,13.9208,13.8423,13.7709,13.8138,13.8851,13.9565,14.1634,14.4488,14.8412,15.2408,15.7759,16.5323,17.0674,17.4955,17.8095,17.8451,17.8451,17.8451,17.8451,17.8451,17.8451,17.8451,17.8451,17.8451,17.8451,17.8451,17.8451,17.8451,17.8023,17.7167,17.7167,17.7167,17.7238,17.8023,17.8451,17.8451,17.8451,17.8451,17.8451,17.8451,17.8451,17.8451,17.8451,17.8451,17.8451,17.8451,17.8451,17.8451,17.8451,17.8451,17.8451,17.8451,17.8451,17.8593,17.9215,17.9815,18.052,18.1072,18.1675,18.2141,18.2141,18.2924,18.3968,18.4701,18.4869,18.5056,18.5668,18.5828,18.5828,18.5828,18.5828,18.5828,18.5828,18.5828,18.5828,18.5828,18.5828,18.5828,18.5828,18.5828,18.5828,18.5828,18.5828,18.5531,18.4863,18.4789,18.4417,18.3526,18.4269,18.4417,18.36,18.3526,18.3526,18.3452,18.2635,18.2645,18.362,18.2898,18.3057,18.3955,18.3364,18.2318,18.0821,18.007,17.8868,13.7605,0.0,14.2462,14.2612,14.1776,14.1063,0.0,13.9993,13.8423,13.7638,13.8138,13.8494,13.8138,14.0635,14.3703,14.6914,15.1052,15.5761,16.0899,16.7677,17.36,17.7453,17.7881,17.8023,17.838,17.8451,17.8451,17.8451,17.8451,17.8451,17.8451,17.8451,17.8451,17.8451,17.8451,17.7881,17.6668,17.6668,17.6525,17.6168,17.7738,17.8237,17.7881,17.8237,17.8451,17.8451,17.8451,17.8451,17.8451,17.8451,17.8451,17.8451,17.8451,17.8451,17.8451,17.8451,17.8451,17.8451,17.8451,17.8451,17.8451,17.8451,17.9215,17.9874,17.9874,18.0208,18.0393,18.0393,18.1316,18.2409,18.3352,18.3561,18.3942,18.5147,18.5403,18.5492,18.5828,18.5828,18.5828,18.5828,18.5828,18.5828,18.5828,18.5828,18.5828,18.5828,18.5828,18.5828,18.5828,18.5828,18.5828,18.5828,18.5828,18.5309,18.4046,18.5086,18.5309,18.412,18.4046,18.3897,18.3526,18.2263,18.1902,18.2595,18.1861,18.2094,18.314,18.2392,18.1867,18.156,18.0364,17.8868,0.0,14.2655,14.3255,14.6617,14.4131,14.1348,14.2775,14.0778,0.0,13.4855,13.6568,13.8138,13.6711,13.8994,14.2133,14.5273,14.8484,15.2836,15.9044,16.4181,16.9532,17.5597,17.6311,17.6882,17.8309,17.8451,17.8451,17.8451,17.8451,17.8451,17.8451,17.8451,17.8451,17.8451,17.8451,17.838,17.8309,17.8237,17.7524,17.6168,17.7738,17.7667,17.6311,17.7809,17.8451,17.8451,17.8451,17.8451,17.8451,17.8451,17.8451,17.8451,17.8451,17.8451,17.8451,17.8451,17.8451,17.8451,17.8451,17.8451,17.8451,17.8451,17.8593,17.8521,17.8521,17.9414,18.0393,18.0393,18.1316,18.2183,18.2296,18.2296,18.2631,18.3942,18.4215,18.4509,18.558,18.5828,18.5828,18.5828,18.5828,18.5828,18.5828,18.5828,18.5828,18.5828,18.5828,18.5828,18.5828,18.5828,18.5828,18.5828,18.5828,18.5754,18.568,18.5754,18.5754,18.568,18.568,18.5011,18.36,18.3377,18.1976,17.9246,18.0511,18.0748,17.9781,18.1415,18.1411,17.999,17.984,17.8868,14.5174,14.533,14.4766,14.6173,14.4417,14.2276,14.1919,14.0135,13.828,13.7139,13.7781,13.8423,13.7852,13.9493,14.2143,14.5924,14.8592,15.272,15.9743,16.5126,16.9818,17.417,17.6382,17.7809,17.838,17.8451,17.8451,17.8451,17.8451,17.8451,17.8451,17.8451,17.8451,17.8451,17.7524,17.7024,17.7024,17.7024,17.6739,17.6097,17.6739,17.6668,17.6097,17.574,17.6097,17.7024,17.7024,17.7524,0.0,17.8451,17.8451,17.8451,17.8451,17.8451,17.8451,17.8451,17.8451,17.8451,17.8451,17.8451,17.8451,17.8451,17.8451,17.8451,17.8451,17.9874,18.1483,18.1483,18.1837,18.2183,18.2183,18.2742,18.3457,18.3942,18.4606,18.5238,18.5742,18.5828,18.5828,18.5828,18.5828,18.5828,18.5828,18.5828,18.5828,18.5828,18.5828,18.5828,18.5828,18.5828,18.5828,18.5828,18.5828,18.5828,18.5828,18.4937,18.4417,18.4417,18.3377,18.2561,18.1966,18.1093,18.0065,17.8957,17.8663,17.8364,17.8056,17.984,18.0364,17.9766,17.9766,17.8868,14.7699,14.7913,14.7342,14.8341,14.6628,14.4488,14.3346,14.1562,13.985,13.8851,13.8994,13.9208,13.8708,14.0538,14.3445,14.7391,15.0418,15.4529,16.1098,16.6096,17.0103,17.2743,17.5811,17.7738,17.7738,17.8166,17.8451,17.8451,17.8451,17.8451,17.8451,17.8451,17.8451,17.8451,17.7381,17.6882,17.6882,17.6882,17.6596,17.6097,17.6596,17.6311,17.5383,17.4812,17.4884,17.5383,17.5383,17.6311,17.7738,17.7738,17.8023,17.8451,17.8451,17.8451,17.8451,17.8451,17.8451,17.8451,17.8451,17.8451,17.8451,17.8451,17.8662,17.894,17.8521,18.0005,18.1602,18.1602,18.1602,18.172,18.2068,18.2521,18.314,18.384,18.4701,18.5403,18.5742,18.5828,18.5828,18.5828,18.5828,18.5828,18.5828,18.5828,18.5828,18.5828,18.5828,18.5828,18.5828,18.5828,18.5828,18.5828,18.5828,18.5828,18.5828,18.4863,18.4046,18.3611,18.2412,18.1604,18.1167,18.0133,17.9478,17.9111,17.8215,17.7538,17.7298,17.842,17.9018,17.9018,17.9018,17.842,14.9911,15.0339,15.1124,15.4263,15.148,14.7913,14.7913,14.5487,14.2347,13.9279,13.985,14.0492,13.8922,14.1972,14.5905,14.9157,15.3601,15.8255,16.3061,16.6741,16.9746,17.1316,17.4242,17.6168,17.6168,17.7524,17.8451,17.8451,17.8451,17.8451,17.8451,17.8451,17.8451,17.8451,17.8451,17.8451,17.8451,17.8451,17.7667,17.6168,17.7667,17.681,17.3885,17.5383,17.5241,17.3814,17.3814,17.467,17.6097,17.6097,17.7024,17.8451,17.8451,17.8451,17.8451,17.8451,17.8451,17.8451,17.8451,17.8451,17.8451,17.8451,17.9279,18.0208,17.8801,17.9414,18.0393,18.0393,18.0393,18.0773,18.1837,18.1243,18.1145,18.3531,18.4042,18.4412,18.558,18.5828,18.5828,18.5828,18.5828,18.5828,18.5828,18.5828,18.5828,18.5828,18.5828,18.5828,18.5828,18.5828,18.5828,18.5828,18.5828,18.5828,18.5828,18.5828,18.5171,18.3703,18.3536,18.2877,18.157,18.1261,18.0521,17.9407,17.9407,17.8658,17.7298,17.7298,17.7298,17.7298,17.7298,17.7298,15.3978,15.4549,15.3621,15.3478,15.148,14.8698,14.5415,14.4519,14.3553,14.0746,14.1149,14.1685,14.0461,14.2762,14.5905,14.8979,15.3601,15.8255,16.3017,16.7745,17.1316,17.2957,17.5883,17.7738,17.7738,17.8166,17.8451,17.8451,17.8451,17.8451,17.8451,17.8451,17.8451,17.8451,17.8451,17.8451,17.8451,17.8451,17.8237,17.7738,17.7096,17.574,17.3814,17.31,17.2601,17.2172,17.2172,17.3029,17.4527,17.4527,17.5383,17.681,17.681,17.7453,17.8451,17.8451,17.8451,17.8451,17.8451,17.8451,17.8451,17.8451,17.8662,17.9215,17.9682,18.1837,18.3868,18.2068,18.2296,18.3032,18.3352,18.3942,18.4241,18.4042,18.4701,18.5403,18.5742,18.5828,18.5828,18.5828,18.5828,18.5828,18.5828,18.5828,18.5828,18.5828,18.5828,18.5828,18.5828,18.5828,18.5828,18.5828,18.5828,18.5828,18.5828,18.4884,18.3629,18.2074,18.1038,17.9776,17.8216,17.8142,17.7992,17.769,17.7832,17.8276,17.9018,17.7896,17.7896,17.9018,17.7821,17.7298,15.6261,15.7189,15.6546,15.5048,15.3407,15.1124,14.6985,14.5886,14.5056,14.2358,14.2259,14.2493,14.2512,14.4231,14.7309,15.2211,15.6059,16.042,16.576,16.9895,17.2957,17.4527,17.6953,17.8451,17.8451,17.8451,17.8451,17.8451,17.8451,17.8451,17.8451,17.8451,17.8451,17.8451,17.8451,17.8451,17.8451,17.8451,17.8451,17.8451,17.7524,17.624,17.467,17.31,17.203,17.1388,17.0817,17.1459,17.2886,17.2886,17.417,17.6097,17.6097,17.7096,17.8451,17.8451,17.8451,17.8451,17.8451,17.8451,17.8451,17.8451,17.8801,17.9279,17.9549,18.1483,18.3457,18.2409,18.314,18.4042,18.4042,18.4963,18.558,18.4963,18.5312,18.5828,18.5828,18.5828,18.5828,18.5828,18.5828,18.5828,18.5828,18.5828,18.5828,18.5828,18.5828,18.5828,18.5828,18.5828,18.5828,18.5828,18.5828,18.5828,18.5828,18.5191,18.3711,18.141,18.0599,17.9186,17.7021,17.7616,17.7914,17.7986,17.8799,17.9392,17.9766,17.8793,17.8494,17.8793,17.7747,17.7298,15.7046,15.8616,15.94,15.7831,15.6261,15.4263,15.1052,14.8758,14.6642,14.4001,14.3265,14.3347,14.4821,14.6483,14.9903,15.6922,16.0042,16.3739,16.9823,17.2548,17.4384,17.5954,17.7524,17.8451,17.8451,17.8451,17.8451,17.8451,17.8451,17.8451,17.8451,17.8451,17.8451,17.8451,17.8451,17.8451,17.8451,17.8451,17.8451,17.8451,17.8451,17.7595,17.6097,17.4527,17.2957,17.1388,16.9818,16.9961,17.1245,17.1245,17.2957,17.574,17.5883,17.6882,17.8237,17.838,17.8451,17.8451,17.8451,17.8593,17.8521,17.8451,17.9414,18.0265,17.9143,17.9743,18.1072,18.2068,18.314,18.4042,18.4042,18.4869,18.5742,18.5828,18.5828,18.5828,18.5828,18.5828,18.5828,18.5828,18.5828,18.5828,18.5828,18.5828,18.5828,18.5828,18.5828,18.5828,18.5828,18.5828,18.5828,18.5828,18.5828,18.5828,18.5828,18.6009,18.4759,18.2017,18.1645,18.038,17.7821,17.8878,17.9626,17.984,18.1037,18.1037,17.9766,17.9616,17.8868,17.7522,17.7373,17.7298,15.7046,15.8616,15.94,15.7831,15.6261,15.4263,15.1052,14.962,14.8191,14.5645,14.5599,14.6307,14.6524,14.8907,15.2192,15.6385,16.0503,16.4609,16.8848,17.1952,17.4384,17.5954,17.7524,17.8451,17.8451,17.8451,17.8451,17.8451,17.8451,17.8451,17.8451,17.8451,17.8451,17.8451,17.8451,17.8451,17.8451,17.8451,17.8451,17.8451,17.8451,17.7595,17.6097,17.4527,17.2957,17.1388,16.9818,16.9318,16.9604,16.9604,17.0745,17.2601,17.3814,17.5241,17.6739,17.8023,17.8451,17.8451,17.8451,17.9078,17.9815,17.8801,17.9933,18.172,18.1483,18.2959,18.4606,18.384,18.384,18.4042,18.4042,18.4314,18.4701,18.558,18.5828,18.5828,18.5828,18.5828,18.5828,18.5828,18.5828,18.5828,18.5828,18.5828,18.5828,18.5828,18.5828,18.5828,18.5828,18.5828,18.5828,18.5828,18.5828,18.5914,18.6157,18.4976,18.4095,18.3738,18.2544,18.1646,18.1112,18.0214,17.9696,17.9766,17.8868,17.8793,17.9766,17.8494,17.8345,17.9242,17.7896,17.7298,15.6618,15.8045,15.8687,15.8544,15.7403,15.5619,15.3121,15.1558,14.9847,14.7217,14.7327,14.8422,14.9874,15.2125,15.5526,16.074,16.3451,16.665,17.1445,17.308,17.467,17.6953,17.7952,17.8451,17.8451,17.8451,17.8451,17.8451,17.8451,17.8451,17.8451,17.8451,17.8451,17.8451,17.8451,17.8451,17.8451,17.8451,17.8451,17.8451,17.8451,17.8023,17.7167,17.5597,17.4456,17.36,17.203,17.1388,17.1388,17.1388,17.2315,17.3742,17.4598,17.5883,17.731,17.8166,17.8451,17.8451,17.8451,17.894,17.9414,17.9414,18.1072,18.2959,18.2296,18.3067,18.4068,18.4042,18.4042,18.4215,18.4775,18.4963,18.5056,18.5742,18.5828,18.5828,18.5828,18.5828,18.5828,18.5828,18.5828,18.5828,18.5828,18.5828,18.5828,18.5828,18.5828,18.5828,18.5828,18.5828,18.5828,18.5828,18.5828,18.5914,18.5999,18.5429,18.4771,18.4259,18.3587,18.2611,18.1112,18.0962,18.0588,17.984,18.0439,18.0513,17.9766,17.9691,17.9242,17.8569,17.7672,17.7298,15.5476,15.7046,15.7759,15.9044,15.8402,15.7046,15.5476,15.3479,15.1353,14.9218,14.9127,15.0487,15.379,15.5637,15.8726,16.5509,16.6468,16.8453,17.476,17.4616,17.5094,17.8444,17.8521,17.8451,17.8451,17.8451,17.8451,17.8451,17.8451,17.8451,17.8451,17.8451,17.8309,17.8023,17.8023,17.8023,17.8023,17.8023,17.8166,17.8451,17.8451,17.8451,17.838,17.681,17.6097,17.6025,17.4527,17.3814,17.3814,17.3814,17.4598,17.574,17.6025,17.6953,17.8095,17.8309,17.8451,17.8451,17.8451,17.8662,17.9279,18.0393,18.2256,18.384,18.2742,18.2631,18.2959,18.4042,18.4412,18.4606,18.558,18.5828,18.5828,18.5828,18.5828,18.5828,18.5828,18.5828,18.5828,18.5828,18.5828,18.5828,18.5828,18.5828,18.5828,18.5828,18.5828,18.5828,18.5828,18.5828,18.5828,18.5828,18.5828,18.5828,18.5914,18.5951,18.5521,18.4629,18.4558,18.3579,18.1186,18.2009,18.1934,18.0663,18.2981,18.2906,18.0214,18.1261,18.0364,17.7747,17.7447,17.7298,15.2836,15.5405,15.7545,15.7688,15.7617,15.7046,15.5476,15.3814,15.2577,15.2194,15.2148,15.3366,15.6994,15.8551,16.0675,16.4822,16.612,16.882,17.4852,17.4616,17.5297,17.9645,17.9215,17.8451,17.8451,17.8451,17.8451,17.8451,17.8451,17.8451,17.8451,17.8451,17.7809,17.6454,17.6454,17.6454,17.6454,17.6454,17.7096,17.8451,17.8451,17.8451,17.838,17.681,17.6097,17.6025,17.4527,17.3814,17.3814,17.3814,17.3956,17.4242,17.5597,17.624,17.6596,17.7952,17.8451,17.8451,17.8451,17.9802,18.172,18.1837,18.2924,18.4042,18.384,18.4509,18.5403,18.558,18.558,18.558,18.5828,18.5828,18.5828,18.5828,18.5828,18.5828,18.5828,18.5828,18.5828,18.5828,18.5828,18.5828,18.5828,18.5828,18.5828,18.5828,18.5828,18.5828,18.5828,18.5828,18.5828,18.5828,18.5828,18.5999,18.6335,18.4989,18.485,18.6649,18.5229,18.4931,18.6196,18.5,18.4252,18.4028,18.2981,18.2233,18.1785,18.0663,17.9915,17.9466,17.7971,17.7298,15.0695,15.305,15.5048,15.5904,15.6832,15.7046,15.5476,15.4549,15.4049,15.4049,15.4373,15.5372,15.8191,16.125,16.4292,16.7151,16.8251,17.0485,17.554,17.5417,17.5929,17.8677,17.937,17.9279,17.8593,17.8451,17.8451,17.8451,17.8451,17.8451,17.8451,17.7595,17.681,17.6168,17.5312,17.4812,17.4812,17.4812,17.5597,17.7096,17.624,17.6739,17.838,17.681,17.6596,17.7381,17.6739,17.6382,17.6382,17.6382,17.6382,17.6454,17.7167,17.7381,17.7593,17.9064,17.9549,17.9682,18.0321,18.172,18.3246,18.3246,18.4042,18.5056,18.5056,18.5403,18.5828,18.5828,18.5828,18.5828,18.5828,18.5828,18.5828,18.5828,18.5828,18.5828,18.5828,18.5828,18.5828,18.5828,18.5828,18.5828,18.5828,18.5828,18.5828,18.5828,18.5828,18.5828,18.5828,18.5828,18.5828,18.5828,18.5914,18.6083,18.633,18.5819,18.59,18.6948,18.6276,18.59,18.5748,18.5075,18.4177,18.328,18.343,18.2682,18.0812,18.1037,18.0139,17.8345,17.7597,17.7298,14.8127,15.0267,15.1908,15.3478,15.5221,15.6322,15.5105,15.5057,15.5363,15.5794,15.6023,15.6937,15.9928,16.3168,16.6333,16.8496,16.9618,17.1479,17.5524,17.5499,17.5874,17.8001,17.9181,17.9429,17.8433,17.8654,17.8725,17.8367,17.795,17.7809,17.7809,17.6382,17.5383,17.4955,17.3814,17.3029,17.2601,17.3029,17.4028,17.5526,17.4384,17.5027,17.7238,17.6097,17.6382,17.7809,17.7809,17.8095,17.8451,17.8451,17.8451,17.8451,17.8801,17.894,17.9006,18.0393,18.0825,18.1072,18.2521,18.3664,18.4509,18.4509,18.5147,18.5828,18.5828,18.5828,18.5828,18.5828,18.5828,18.5828,18.5828,18.5828,18.5828,18.5828,18.5828,18.5828,18.5828,18.5828,18.5828,18.5828,18.5828,18.5828,18.5828,18.5828,18.5828,18.5828,18.5828,18.5828,18.5828,18.5914,18.5914,18.5914,18.6083,18.6248,18.633,18.6646,18.6799,18.6874,18.7096,18.6645,18.5374,18.5299,18.4477,18.2831,18.3579,18.2607,17.9766,18.0139,17.9018,17.6625,17.6251,17.6027,14.4631,14.6985,14.8555,15.0125,15.2376,15.4286,15.4213,15.4998,15.6147,15.7678,15.7321,15.8264,16.34,16.4051,16.4579,16.6727,16.8785,17.1113,17.4052,17.3823,17.4736,17.8681,17.8516,17.8154,17.7955,17.9399,17.9615,17.7972,17.6785,17.624,17.624,17.4812,17.3243,17.1744,17.1602,17.0817,16.939,17.0817,17.2387,17.3956,17.3885,17.3885,17.4028,17.3956,17.4812,17.624,17.624,17.7096,17.8451,17.8451,17.8451,17.8521,17.9815,18.0265,18.0393,18.1602,18.2068,18.2409,18.4795,18.5742,18.5742,18.5742,18.5828,18.5828,18.5828,18.5828,18.5828,18.5828,18.5828,18.5828,18.5828,18.5828,18.5828,18.5828,18.5828,18.5828,18.5828,18.5828,18.5828,18.5828,18.5828,18.5828,18.5828,18.5828,18.5828,18.5828,18.5828,18.5828,18.5828,18.5999,18.624,18.624,18.633,18.6494,18.6723,18.6799,18.6874,18.7169,18.7169,18.7169,18.7094,18.7094,18.6271,18.4551,18.3056,18.1485,17.9766,17.67,17.5055,17.483,17.3335,17.2662,13.9888,14.2508,14.5059,14.563,14.9189,15.2444,15.1802,15.3238,15.5151,15.6818,15.7426,15.8597,16.1485,16.3747,16.568,16.6949,16.7126,16.8712,17.3273,17.3238,17.3677,17.6119,17.7181,17.7276,17.6421,17.6721,17.5611,17.2535,17.2522,17.2894,17.3029,17.1673,17.1031,17.1459,17.046,16.9675,16.9104,16.9675,17.0246,17.0817,17.0817,17.1887,17.3742,17.2743,17.3171,17.467,17.574,17.6454,17.7024,17.8849,17.9682,17.9815,18.1072,18.1483,18.1602,18.2924,18.3352,18.3561,18.5238,18.5828,18.5828,18.5828,18.5828,18.5828,18.5828,18.5828,18.5828,18.5828,18.5828,18.5828,18.5828,18.5828,18.5828,18.5828,18.5828,18.5828,18.5828,18.5828,18.5828,18.5828,18.5828,18.5828,18.5828,18.5828,18.5828,18.5828,18.6009,18.6174,18.6174,18.6255,18.6335,18.6335,18.6494,18.6723,18.6799,18.7023,18.7096,18.7169,18.7169,18.672,18.5598,18.5523,18.4252,18.156,18.0962,17.9317,17.655,17.5354,17.4755,17.4755,17.4232,17.4531,13.574,13.8758,14.1828,14.2081,14.6307,15.041,15.0241,15.1835,15.4008,15.61,15.6927,15.789,16.0369,16.3012,16.4847,16.5189,16.5901,16.7374,16.9923,17.0578,17.1524,17.3513,17.4436,17.4843,17.4618,17.3744,17.2434,17.0138,16.9945,17.0328,17.091,16.9164,16.8763,17.0339,16.9407,16.8931,16.9104,16.9104,16.9104,16.9104,16.9104,17.0246,17.2172,17.1174,17.153,17.31,17.4099,17.5169,17.6168,17.7619,17.8675,17.9874,18.0901,18.1672,18.2409,18.4042,18.4606,18.4701,18.558,18.5828,18.5828,18.5828,18.5828,18.5828,18.5828,18.5828,18.5828,18.5828,18.5828,18.5828,18.5828,18.5828,18.5828,18.5828,18.5828,18.5828,18.5828,18.5828,18.5828,18.5828,18.5828,18.5828,18.5828,18.5914,18.5914,18.5914,18.6174,18.6415,18.6335,18.6415,18.6494,18.6494,18.6799,18.6949,18.6949,18.7096,18.7169,18.7169,18.6645,18.5598,18.3878,18.3804,18.2233,17.9018,17.8943,17.7597,17.4755,17.4232,17.4008,17.4008,17.4008,17.4606,13.2504,13.5551,13.8838,13.9523,14.3587,14.7794,14.9333,15.0634,15.2335,15.5674,15.5512,15.6149,16.0351,16.1584,16.1769,16.1242,16.5255,16.7257,16.4215,16.5558,16.7882,17.0665,17.0425,17.0577,17.211,17.0869,17.0309,17.1476,16.9379,16.8659,16.9852,16.7283,16.6626,16.8213,16.8285,16.8465,16.8962,16.8962,16.9033,16.9033,16.9033,16.9104,16.9104,16.9104,17.0095,17.1523,17.1523,17.3308,17.5951,17.4522,17.5665,17.8654,17.9547,18.0835,18.2374,18.4741,18.5606,18.5606,18.568,18.568,18.568,18.568,18.568,18.568,18.568,18.568,18.568,18.568,18.568,18.568,18.568,18.568,18.568,18.568,18.568,18.5754,18.5754,18.5754,18.5754,18.5828,18.5754,18.5754,18.5828,18.5999,18.624,18.624,18.633,18.6335,18.6323,18.6568,18.6799,18.6799,18.7023,18.7169,18.7169,18.7169,18.7169,18.7094,18.5598,18.3878,18.2158,18.2009,18.0439,17.7223,17.7074,17.6176,17.4456,17.2961,17.2213,17.2288,17.2288,17.2288,12.9156,13.0668,13.1934,13.22,13.647,14.0856,14.1742,14.4526,14.7888,15.1137,15.26,15.3861,15.5751,15.7235,15.7974,15.7902,15.9222,16.0836,16.1912,16.2907,16.4239,16.6273,16.7208,16.7073,16.5163,16.4649,16.407,16.3681,16.3072,16.3561,16.5328,16.4008,16.3909,16.5484,16.6215,16.6723,16.6863,16.6863,16.7439,16.859,16.7846,16.8034,16.9104,17.0009,17.1149,17.2225,17.2615,17.3749,17.5389,17.7035,17.817,17.9266,18.1585,18.2725,18.2965,18.1128,18.0481,18.0629,18.1892,18.2338,18.2338,18.2338,18.2338,18.2338,18.2338,18.2338,18.2338,18.2338,18.2338,18.2338,18.2338,18.2338,18.2338,18.2338,18.3229,18.412,18.412,18.412,18.4492,18.5606,18.4937,18.4492,18.5606,18.5914,18.5914,18.5914,18.649,18.7023,18.6949,18.7023,18.7096,18.7096,18.7096,18.7169,18.7169,18.7169,18.6645,18.5449,18.4925,18.3355,18.0588,17.9242,17.7074,17.3783,17.2587,17.0568,16.7726,16.7278,16.7652,16.8773,16.8773,17.0044,12.5721,12.657,12.7472,12.7761,13.122,13.5115,13.7472,13.9912,14.2646,14.5972,14.8485,15.0486,15.1815,15.3372,15.4411,15.4411,15.5228,15.6261,15.716,15.8786,16.0384,16.2084,16.2454,16.1863,15.9867,16.0976,16.1547,16.0863,16.0119,16.0824,16.3681,16.2325,16.2729,16.5358,16.6032,16.6505,16.6714,16.6328,16.6645,16.8092,16.6935,16.7263,16.8548,16.9194,16.9995,17.0543,17.0828,17.174,17.3059,17.3987,17.5247,17.6597,17.8031,17.8986,17.9445,17.8011,17.751,17.7584,17.8624,17.8921,17.907,17.9738,17.9887,18.0035,18.0778,18.1001,18.1001,18.1001,18.1001,18.1001,18.1001,18.1001,18.1001,18.1001,18.1744,18.2486,18.2486,18.2486,18.2709,18.36,18.3685,18.3918,18.481,18.572,18.6248,18.6092,18.6568,18.6874,18.7023,18.7023,18.7096,18.7169,18.7169,18.7169,18.7169,18.657,18.5673,18.4701,18.2682,18.0439,17.7821,17.5428,17.2961,17.0344,16.9297,16.7876,16.6006,16.6006,16.6455,16.7352,16.7352,16.6979,12.1435,12.24,12.4066,12.4335,12.6282,12.9159,0.0,13.4952,13.6215,13.978,14.2974,14.5722,14.7653,14.9212,15.0401,15.0698,15.2035,15.2555,15.1292,15.3743,15.612,15.7457,15.664,15.5897,15.5897,15.8719,16.0576,16.0725,15.9097,15.9635,16.3168,16.1489,16.2217,16.6158,16.6416,16.6779,16.7397,16.643,16.6503,16.7689,16.6496,16.6569,16.7698,16.7908,16.7804,16.7698,16.8012,16.8889,16.9953,16.867,16.9797,17.2283,17.2043,17.2495,17.3399,17.4802,17.5282,17.5356,17.5505,17.5579,17.5802,17.7213,17.7659,17.7881,17.9441,17.9887,17.9887,17.9887,17.9887,17.9961,18.011,18.0184,18.0184,18.0407,18.0638,18.0787,18.0787,18.0787,18.0861,18.101,18.2216,18.3345,18.3717,18.5222,18.635,18.5972,18.5897,18.6124,18.65,18.6575,18.665,18.6869,18.6869,18.6869,18.6645,18.5224,18.4177,18.3878,17.9691,17.6326,17.4307,17.1241,16.8698,16.6829,16.6605,16.638,16.6006,16.6006,16.6006,16.6006,16.6006,16.2716,0.0,0.0,0.0,0.0,0.0,0.0,0.0,12.3217,12.6411,13.109,13.3541,13.6141,14.0448,14.1488,14.2602,14.5276,14.5944,14.6539,14.7578,14.9287,15.0178,14.9212,15.1143,15.2555,15.2555,15.4337,15.6045,15.7308,15.7486,15.8376,16.0503,15.9262,15.9483,16.1727,16.2591,16.3765,16.5276,16.5016,16.5582,16.7094,16.6009,16.6247,16.7804,16.8691,16.8691,16.7804,16.9785,17.0201,16.9689,17.0288,17.0928,17.1669,17.28,17.1029,16.7988,16.9558,17.0157,17.038,17.1717,17.2237,17.2237,17.2534,17.2608,17.2682,17.3054,17.3128,17.3128,17.3128,17.3128,17.3425,17.4688,17.522,17.5596,17.6935,17.8358,17.9329,17.9329,17.9329,17.9776,18.1191,18.0673,18.0748,18.3504,18.4328,18.4259,18.3137,18.2985,18.3508,18.4854,18.5078,18.515,18.515,18.515,18.4626,18.3205,18.2831,18.1485,17.8868,17.7821,17.5354,17.1017,16.8923,16.6455,16.3539,16.2118,16.0099,15.7482,15.7482,15.7482,15.7482,15.7482,15.5388,0.0,0.0,0.0,0.0,0.0,0.0,0.0,0.0,0.0,0.0,0.0,12.8119,13.1461,0.0,13.5843,13.9854,14.0523,14.1414,14.3939,14.639,14.6984,14.4608,14.7207,14.9212,14.9212,15.1441,15.3223,15.3966,15.462,15.5845,15.7952,15.7847,15.868,16.0908,16.1484,16.2101,16.2989,16.3233,16.4119,16.5421,16.5202,16.5656,16.6932,16.7541,16.7541,16.7023,16.8196,16.8433,16.7872,16.8514,16.8746,16.8672,16.778,16.5924,16.3844,16.4735,16.5552,16.6444,16.726,16.7558,16.7855,16.9489,16.9414,16.9043,17.0751,17.1271,17.1271,17.1354,17.1354,17.1577,17.2475,17.2849,17.3074,17.3893,17.4787,17.5458,17.5458,17.5458,17.5682,17.6576,17.7396,17.8515,18.023,18.0603,18.0749,18.0962,18.1635,18.2458,18.328,18.3355,18.3131,18.2308,18.2233,18.1859,18.1037,18.0962,17.9915,17.7447,17.4157,17.0867,16.7577,16.4287,16.1744,16.0099,15.7557,15.5463,15.3818,15.3818,15.3818,15.3818,15.2173,15.0079,0.0,0.0,0.0,0.0,0.0,0.0,0.0,0.0,0.0,0.0,0.0,0.0,0.0,0.0,0.0,13.4655,13.5992,13.7477,14.0523,14.3196,14.3865,14.1265,14.3791,14.5796,14.5796,14.847,15.0326,15.0624,15.1448,15.2998,15.5451,15.6035,15.7435,15.9833,16.0205,16.0576,16.0873,16.1576,16.2389,16.3398,16.3794,0.0,16.5255,16.5255,16.5255,16.5255,16.5255,16.5255,16.5255,16.5255,16.5255,16.4958,16.169,16.0205,15.9982,16.0279,16.1244,16.2433,16.2433,16.2433,16.2953,16.5924,16.5924,16.5404,16.8375,16.934,0.0,16.9498,16.9573,16.9722,17.0615,17.0911,17.1133,17.1729,17.1655,17.1506,17.1875,17.1655,17.1506,17.1878,17.411,17.6119,17.6417,17.5815,17.5952,17.7597,17.8943,17.999,18.0588,18.0738,18.0214,17.8943,17.8868,17.8719,17.842,17.8644,17.7971,17.5952,17.1166,16.7203,16.466,16.0697,15.8005,15.6659,15.3967,15.2247,15.1649,15.1649,15.15,15.1051,14.7462,14.4919,0.0,0.0,0.0,0.0,0.0,0.0,0.0,0.0,0.0,0.0,0.0,0.0,0.0,0.0,0.0,0.0,13.2873,13.5398,13.718,13.7775,13.7849,13.7477,14.0374,14.2454,14.2454,14.4013,14.5722,14.7207,14.8697,15.0331,15.2109,15.2261,0.0,0.0,0.0,15.7754,15.9239,16.0724,16.1466,16.1616,16.1689,16.1763,16.1839,16.1839,16.1839,16.1839,16.1839,16.1839,16.1839,16.1839,16.1839,16.1542,15.8274,15.6194,15.508,15.6491,15.716,15.7308,15.7308,0.0,0.0,15.9462,15.9982,16.013,16.1913,16.2433,16.2508,16.273,16.2802,16.3544,16.6517,16.7549,16.8432,17.1344,17.104,17.0502,17.1997,17.1175,17.0577,17.2072,17.2662,17.3409,17.4763,17.139,16.9072,17.0717,17.1166,17.2288,17.5204,17.5578,17.5503,17.5354,17.5354,0.0,17.3335,17.4531,17.4008,17.0942,17.139,16.9147,16.3015,16.2268,15.9202,15.3294,15.2771,15.1126,14.8284,14.8284,14.7462,14.5966,14.118,13.8114,0.0,0.0,0.0,0.0,0.0,0.0,0.0,0.0,0.0,0.0,0.0,0.0,0.0,0.0,0.0,0.0,12.7302,12.8788,12.8416,13.161,13.4061,13.4061,13.6958,13.9334,14.03,14.1934,14.3196,14.3865,14.535,14.6613,14.7281,14.9138,15.0475,15.1218,15.2777,15.3966,15.4709,15.6342,15.716,15.716,15.8051,15.8496,15.8496,15.8496,15.8496,15.8496,15.8496,15.8496,15.8496,15.8496,15.7976,15.6937,0.0,0.0,0.0,0.0,15.4263,15.508,15.508,15.508,15.5377,15.7011,15.6937,15.6491,15.8051,15.857,15.8713,15.8998,15.9067,15.95,16.1041,16.2226,16.3337,16.4682,16.5344,16.6081,16.7726,16.6829,16.638,16.8998,16.8773,0.0,16.638,16.5259,16.5109,16.6829,16.7876,16.8923,17.0269,17.1316,17.154,17.0568,17.0493,17.0194,16.9521,16.9222,0.0,0.0,0.0,16.496,16.1146,15.9202,0.0,0.0,0.0,14.5742,14.6265,14.3349,0.0,0.0,13.4749,13.2506,0.0,0.0,0.0,0.0,0.0,0.0,0.0,0.0,0.0,0.0,0.0,0.0,0.0,0.0,0.0,0.0,12.2177,12.3886,12.1342,12.5371,12.8936,12.9962,13.2873,13.5546,13.718,13.8443,13.9334,13.9854,14.134,14.2454,14.2899,14.5573,14.7133,14.7133,14.8767,14.9584,14.9584,15.1663,15.2777,15.2777,15.4411,15.5154,15.5154,15.5154,15.5154,15.5154,15.5154,15.5154,15.5154,15.5154,15.4486,15.3149,15.0104,14.899,14.899,14.899,14.9732,15.0772,15.0772,15.0772,15.0995,15.2699,15.2402,15.1882,15.3958,15.4325,15.4165,15.4886,15.4792,15.4757,15.5403,15.7108,15.8603,15.8603,15.9949,16.152,16.2716,16.1669,16.1295,16.4137,16.2342,15.98,15.823,15.8603,15.9875,16.1968,16.324,16.4287,16.5259,16.6829,16.7352,16.6156,16.6829,16.7203,16.6754,16.653,16.6306,16.6006,16.4287,16.1819,15.8753,15.636,15.3818,15.0976,14.5293,14.29,0.0,0.0,0.0,0.0,0.0,0.0,0.0,0.0,0.0,0.0,0.0,0.0,0.0,0.0,0.0,0.0,0.0,0.0,0.0,0.0,0.0,0.0,0.0,0.0,11.8403,11.9113,12.1416,12.4799,12.7955,13.0496,13.2056,13.2278,13.2947,13.4655,13.6215,13.7775,13.9408,14.1191,14.2157,14.2157,14.3642,14.4459,14.4459,14.7653,14.9212,14.9287,15.0995,15.1812,15.1812,15.1812,15.1812,15.1812,15.1812,15.1812,15.1812,15.1812,15.1738,15.1069,14.4682,14.2231,14.2231,14.2231,14.2231,14.2305,14.2305,14.2305,14.2528,14.4285,14.4731,14.5391,14.886,14.8711,14.7805,14.9632,14.9021,14.82,15.0021,15.2846,15.5313,15.5313,15.6584,15.7856,15.7856,15.651,15.5837,15.7631,15.2696,14.9256,15.2322,15.1574,15.1724,15.4939,15.5463,0.0,15.98,16.1669,16.2716,16.2641,16.5483,16.6754,16.5259,16.7951,16.7726,16.2941,16.4137,16.2043,15.5538,15.5164,15.4266,15.2546,14.9181,14.5218,14.0507,0.0,0.0,0.0,0.0,0.0,0.0,0.0,0.0,0.0,0.0,0.0,0.0,0.0,0.0,0.0,0.0,0.0,0.0,0.0,0.0,0.0,0.0,0.0,0.0,11.4661,11.8403,11.856,12.3182,12.6692,12.7441,12.9278,13.0779,13.1359,13.2785,13.3838,13.4432,13.6066,13.7477,13.8517,14.0151,14.1562,14.2676,14.3791,14.431,14.431,14.4905,14.5202,14.5202,14.5202,14.5202,14.5202,14.5202,14.5202,14.5202,14.5202,14.4533,14.3271,14.1042,13.9557,13.8591,13.8793,13.9525,14.0343,14.0406,14.1212,14.2254,14.2838,14.2987,14.321,14.439,14.4437,14.4184,14.484,14.4749,14.4639,14.5218,14.6938,14.8583,14.8583,15.0677,15.2995,15.4042,15.2995,15.2696,15.5463,15.0602,14.7162,15.0453,15.0602,15.0976,15.3145,15.3444,15.3818,15.4939,15.7557,15.9276,15.9276,16.1221,16.2268,16.1744,16.0697,15.9875,15.9276,15.6734,15.4266,15.2023,14.9705,14.6714,14.29,14.2825,13.9311,13.2207,0.0,0.0,0.0,0.0,0.0,0.0,0.0,0.0,0.0,0.0,0.0,0.0,0.0,0.0,0.0,0.0,0.0,0.0,0.0,0.0,0.0,0.0,0.0,0.0,0.0,0.0,11.5283,11.8796,0.0,12.3123,12.3925,12.4463,12.4445,12.5949,12.7005,12.7599,12.9827,13.1758,13.3318,13.5546,13.6958,13.7552,13.8666,13.9557,14.0077,14.0671,14.134,14.1859,14.1859,14.1859,14.1859,14.1859,14.1859,14.1637,13.874,13.6512,13.5026,13.5089,13.442,13.3528,13.4379,13.5331,13.6225,13.6939,13.7966,13.8786,13.819,13.7519,13.7204,13.7858,13.7747,13.7579,13.8774,13.9202,13.9311,13.9311,14.1853,14.4097,14.2825,14.5592,14.8583,14.9032,14.8359,14.791,14.8808,14.4545,14.1704,14.447,14.4994,14.5891,14.8733,14.9107,14.9555,15.0677,15.3743,15.5612,15.5089,15.7482,15.8903,15.8304,15.6884,15.5986,15.5837,15.2322,14.9705,14.8508,14.5218,14.1704,13.789,13.774,13.4525,0.0,0.0,0.0,0.0,0.0,0.0,0.0,0.0,0.0,0.0,0.0,0.0,0.0,0.0,0.0,0.0,0.0,0.0,0.0,0.0,0.0,0.0,0.0,0.0,0.0,0.0,0.0,11.4066,11.4186,0.0,0.0,0.0,0.0,11.4527,11.6236,11.787,11.9281,12.2474,12.5,12.6708,12.9753,13.0793,12.953,13.2575,13.4878,13.6363,13.8072,13.9706,14.1265,14.134,14.1414,14.1414,14.1414,14.134,14.0671,13.2724,12.8416,12.6857,12.6956,12.6938,12.7087,12.8744,12.9395,12.9693,13.1407,13.2004,13.1855,13.0289,12.8832,12.7944,12.954,12.8991,0.0,0.0,13.2431,13.2506,13.2656,13.7367,14.133,13.8339,14.133,14.447,14.2975,14.2601,14.1629,13.8114,13.4974,13.3403,13.5048,0.0,13.7067,14.1778,14.2751,14.3947,14.6938,15.0378,15.1873,15.0303,15.4491,15.6734,15.5014,15.6285,15.5762,15.2397,15.0677,14.8284,14.4994,14.1629,13.9086,13.7367,13.4076,0.0,0.0,0.0,0.0,0.0,0.0,0.0,0.0,0.0,0.0,0.0,0.0,0.0,0.0,0.0,0.0,0.0,0.0,0.0,0.0,0.0,0.0,0.0,0.0,0.0,0.0,9.6232,9.9399,10.2433,10.3605,10.4559,0.0,0.0,0.0,0.0,0.0,0.0,11.4558,11.6364,11.8741,12.1695,12.2457,12.448,12.7748,12.8639,12.9233,12.9605,13.1313,13.2353,13.2798,13.3987,13.4507,13.4507,13.4507,13.3838,13.2427,12.8014,12.5189,12.3535,12.2379,12.1241,12.0124,11.9457,11.9955,12.1347,12.3089,12.4483,12.5603,12.65,12.6425,12.5952,12.5178,0.0,0.0,0.0,0.0,12.615,12.8692,13.0637,13.2282,13.3852,13.6993,13.961,13.9236,13.9161,13.774,13.3179,13.1684,13.1609,13.3329,13.4675,0.0,13.7217,14.0507,14.2751,14.2302,14.7312,15.0228,14.8583,15.1649,15.3219,15.1649,15.0752,14.9331,14.7237,14.447,14.1928,13.9834,13.5348,13.2207,13.0637,0.0,0.0,0.0,0.0,0.0,0.0,0.0,0.0,0.0,0.0,0.0,0.0,0.0,0.0,0.0,0.0,0.0,0.0,0.0,0.0,0.0,0.0,0.0,0.0,0.0,0.0,0.0,9.0003,9.392,9.5938,9.6192,9.6822,0.0,0.0,0.0,0.0,0.0,0.0,0.0,0.0,0.0,11.4461,11.5949,11.7606,11.9652,12.1862,12.3274,12.3886,12.5594,12.7154,12.8565,12.8713,12.9159,12.9827,12.9827,12.7807,12.4222,12.173,11.9327,11.7019,0.0,0.0,0.0,0.0,11.2931,11.4022,11.5756,11.6952,11.785,11.8747,0.0,0.0,0.0,0.0,0.0,0.0,0.0,12.1364,12.3234,12.5926,12.8393,12.944,13.1684,13.3553,13.3553,13.1235,12.8393,12.5627,12.3907,12.3458,12.5103,12.6748,0.0,0.0,0.0,13.8713,13.9161,14.3797,14.6938,14.6639,14.7686,14.8284,14.806,14.6564,14.4844,14.3199,14.0657,13.8189,13.5796,13.1684,12.7945,0.0,0.0,0.0,0.0,0.0,0.0,0.0,0.0,0.0,0.0,0.0,0.0,0.0,0.0,0.0,0.0,0.0,0.0,0.0,0.0,0.0,0.0,0.0,0.0,0.0,0.0,0.0,0.0,0.0,9.0448,9.1119,0.0,0.0,0.0,0.0,0.0,0.0,0.0,0.0,0.0,0.0,0.0,0.0,0.0,11.0394,10.8784,11.3792,11.699,11.8221,11.993,12.2234,12.4909,12.3943,12.4389,12.5742,12.476,0.0,11.6149,11.4141,0.0,0.0,0.0,0.0,0.0,0.0,0.0,0.0,0.0,0.0,0.0,0.0,0.0,0.0,0.0,0.0,0.0,0.0,0.0,0.0,0.0,0.0,12.5776,12.4281,12.5776,12.7047,12.5776,12.0766,11.6578,11.6578,11.4111,11.254,0.0,0.0,0.0,0.0,0.0,0.0,13.6469,14.0208,14.3124,14.4695,14.3723,14.3349,14.447,14.3124,14.1479,13.9759,13.789,13.5497,13.2431,12.8991,0.0,0.0,0.0,0.0,0.0,0.0,0.0,0.0,0.0,0.0,0.0,0.0,0.0,0.0,0.0,0.0,0.0,0.0,0.0,0.0,0.0,0.0,0.0,0.0,0.0,0.0,0.0,0.0,0.0,0.0,0.0,0.0,0.0,0.0,0.0,0.0,0.0,0.0,0.0,0.0,0.0,0.0,0.0,0.0,0.0,0.0,0.0,0.0,0.0,0.0,11.1708,11.2776,11.3372,11.5804,11.7764,11.8924,11.2255,10.94,10.9298,10.4991,0.0,0.0,0.0,0.0,0.0,0.0,0.0,0.0,0.0,0.0,0.0,0.0,0.0,0.0,0.0,0.0,0.0,0.0,0.0,0.0,0.0,0.0,11.5831,11.5532,11.9794,12.1663,11.3513,0.0,0.0,0.0,0.0,0.0,0.0,0.0,0.0,0.0,0.0,0.0,13.1459,13.6993,14.1405,14.3124,14.305,14.2451,14.1255,13.9685,13.804,13.6469,13.3403,13.0861,0.0,0.0,0.0,0.0,0.0,0.0,0.0,0.0,0.0,0.0,0.0,0.0,0.0,0.0,0.0,0.0,0.0,0.0,0.0,0.0,0.0,0.0,0.0,0.0,0.0,0.0,0.0,0.0,0.0,0.0,0.0,0.0,0.0,0.0,0.0,0.0,0.0,0.0,0.0,0.0,0.0,0.0,0.0,0.0,0.0,0.0,0.0,0.0,0.0,0.0,0.0,0.0,0.0,0.0,0.0,0.0,0.0,0.0,10.5781,10.1795,0.0,0.0,0.0,0.0,0.0,0.0,0.0,0.0,0.0,0.0,0.0,0.0,0.0,0.0,0.0,0.0,0.0,0.0,0.0,0.0,0.0,0.0,0.0,0.0,0.0,0.0,0.0,0.0,0.0,0.0,0.0,0.0,0.0,0.0,0.0,0.0,0.0,0.0,0.0,0.0,12.8767,13.4226,13.9086,14.2526,14.133,14.0283,14.0358,13.804,13.5946,13.4301,13.0263,0.0,0.0,0.0,0.0,0.0,0.0,0.0,0.0,0.0,0.0,0.0,0.0,0.0,0.0,0.0,0.0,0.0,0.0,0.0,0.0,0.0,0.0,0.0,0.0,0.0,0.0,0.0,0.0,0.0,0.0,0.0,0.0,0.0,0.0,0.0,0.0,0.0,0.0,0.0,0.0,0.0,0.0,0.0,0.0,0.0,0.0,0.0,0.0,0.0,0.0,0.0,0.0,0.0,0.0,0.0,0.0,0.0,0.0,0.0,9.863,9.4258,0.0,0.0,0.0,0.0,0.0,0.0,0.0,0.0,0.0,0.0,0.0,0.0,0.0,0.0,0.0,0.0,0.0,0.0,0.0,0.0,0.0,0.0,0.0,0.0,0.0,0.0,0.0,0.0,0.0,0.0,0.0,0.0,0.0,0.0,0.0,0.0,0.0,0.0,0.0,0.0,12.6374,13.131,13.6469,14.1778,13.961,13.8189,13.9236,13.6619,13.4076,13.2057,12.6973,0.0,0.0,0.0,0.0,0.0,0.0,0.0,0.0,0.0,0.0,0.0,0.0,0.0,0.0,0.0,0.0,0.0,0.0,0.0,0.0,0.0,0.0,0.0,0.0,0.0,0.0,0.0,0.0,0.0,0.0,0.0,0.0,0.0,0.0,0.0,0.0,0.0,0.0,0.0,0.0,0.0,0.0,0.0,0.0,0.0,0.0,0.0,0.0,0.0,0.0,0.0,0.0,0.0,0.0,0.0,0.0,0.0,0.0,0.0,0.0,0.0,0.0,0.0,0.0,0.0,0.0,0.0,0.0,0.0,0.0,0.0,0.0,0.0,0.0,0.0,0.0,0.0,0.0,0.0,0.0,0.0,0.0,0.0,0.0,0.0,0.0,0.0,0.0,0.0,0.0,0.0,0.0,0.0,0.0,0.0,0.0,0.0,0.0,0.0,0.0,0.0,12.271,12.787,13.3403,13.9834,13.8937,13.7292,13.6021,13.4226,13.1908,12.8767,0.0,0.0,0.0,0.0,0.0,0.0,0.0,0.0,0.0,0.0,0.0,0.0,0.0,0.0,0.0,0.0,0.0,0.0,0.0,0.0,0.0,0.0,0.0,0.0,0.0,0.0,0.0,0.0,0.0,0.0,0.0,0.0,0.0,0.0,0.0,0.0,0.0,0.0,0.0,0.0,0.0,0.0,0.0,0.0,0.0,0.0,0.0,0.0,0.0,0.0,0.0,0.0,0.0,0.0,0.0,0.0,0.0,0.0,0.0,0.0,0.0,0.0,0.0,0.0,0.0,0.0,0.0,0.0,0.0,0.0,0.0,0.0,0.0,0.0,0.0,0.0,0.0,0.0,0.0,0.0,0.0,0.0,0.0,0.0,0.0,0.0,0.0,0.0,0.0,0.0,0.0,0.0,0.0,0.0,0.0,0.0,0.0,0.0,0.0,0.0,0.0,0.0,11.942,12.5327,13.116,13.6843,13.6843,13.5796,13.4151,13.2431,12.9216,12.3981,0.0,0.0,0.0,0.0,0.0,0.0,0.0,0.0,0.0,0.0,0.0,0.0,0.0,0.0,0.0,0.0,0.0,0.0,0.0,0.0,0.0,0.0,0.0,0.0,0.0,0.0,0.0,0.0,0.0,0.0,0.0,0.0,0.0,0.0,0.0,0.0,0.0,0.0,0.0,0.0,0.0,0.0,0.0,0.0,0.0,0.0,0.0,0.0,0.0,0.0,0.0,0.0,0.0,0.0,0.0,0.0,0.0,0.0,0.0,0.0,0.0,0.0,0.0,0.0,0.0,0.0,0.0,0.0,0.0,0.0,0.0,0.0,0.0,0.0,0.0,0.0,0.0,0.0,0.0,0.0,0.0,0.0,0.0,0.0,0.0,0.0,0.0,0.0,0.0,0.0,0.0,0.0,0.0,0.0,0.0,0.0,0.0,0.0,0.0,0.0,0.0,0.0,11.6878,12.3234,12.9216,13.4226,13.4749,13.4076,13.2356,13.0711,12.6524,11.8971,0.0,0.0,0.0,0.0,0.0,0.0,0.0,0.0,0.0,0.0,0.0,0.0,0.0,0.0,0.0,0.0,0.0,0.0,0.0,0.0,0.0,0.0,0.0,0.0,0.0,0.0,0.0,0.0,0.0,0.0,0.0,0.0,0.0,0.0,0.0,0.0,0.0,0.0,0.0,0.0,0.0,0.0,0.0,0.0,0.0,0.0,0.0,0.0,0.0,0.0,0.0,0.0,0.0,0.0,0.0,0.0,0.0,0.0,0.0,0.0,0.0,0.0,0.0,0.0,0.0,0.0,0.0,0.0,0.0,0.0,0.0,0.0,0.0,0.0,0.0,0.0,0.0,0.0,0.0,0.0,0.0,0.0,0.0,0.0,0.0,0.0,0.0,0.0,0.0,0.0,0.0,0.0,0.0,0.0,0.0,0.0,0.0,0.0,0.0,0.0,0.0,0.0,11.5307,12.1514,12.7496,13.2431,13.2955,13.2282,13.0562,12.8991,12.3907,0.0,0.0,0.0,0.0,0.0,0.0,0.0,0.0,0.0,0.0,0.0,0.0,0.0,0.0,0.0,0.0,0.0,0.0,0.0,0.0,0.0,0.0,0.0,0.0,0.0,0.0,0.0,0.0,0.0,0.0,0.0,0.0,0.0,0.0,0.0,0.0,0.0,0.0,0.0,0.0,0.0,0.0,0.0,0.0,0.0,0.0,0.0,0.0,0.0,0.0,0.0,0.0,0.0,0.0,0.0,0.0,0.0,0.0,0.0,0.0,0.0,0.0,0.0,0.0,0.0,0.0,0.0,0.0,0.0,0.0,0.0,0.0,0.0,0.0,0.0,0.0,0.0,0.0,0.0,0.0,0.0,0.0,0.0,0.0,0.0,0.0,0.0,0.0,0.0,0.0,0.0,0.0,0.0,0.0,0.0,0.0,0.0,0.0,0.0,0.0,0.0,0.0,0.0,11.3363,11.8897,12.458,13.0562,13.1235,13.0113,12.7346,12.6673,12.1663,11.0596,0.0,0.0,0.0,0.0,0.0,0.0,0.0,0.0,0.0,0.0,0.0,0.0,0.0,0.0,0.0,0.0,0.0,0.0,0.0,0.0,0.0,0.0,0.0,0.0,0.0,0.0,0.0,0.0,0.0,0.0,0.0,0.0,0.0,0.0,0.0,0.0,0.0,0.0,0.0,0.0,0.0,0.0,0.0,0.0,0.0,0.0,0.0,0.0,0.0,0.0,0.0,0.0,0.0,0.0,0.0,0.0,0.0,0.0,0.0,0.0,0.0,0.0,0.0,0.0,0.0,0.0,0.0,0.0,0.0,0.0,0.0,0.0,0.0,0.0,0.0,0.0,0.0,0.0,0.0,0.0,0.0,0.0,0.0,0.0,0.0,0.0,0.0,0.0,0.0,0.0,0.0,0.0,0.0,0.0,0.0,0.0,0.0,0.0,0.0,0.0,0.0,0.0,0.0,11.6878,12.2486,12.7122,12.8244,12.7795,12.5776,12.5028,11.942,10.7231,0.0,0.0,0.0,0.0,0.0,0.0,0.0,0.0,0.0,0.0,0.0,0.0,0.0,0.0,0.0,0.0,0.0,0.0,0.0,0.0,0.0,0.0,0.0,0.0,0.0,0.0,0.0,0.0,0.0,0.0,0.0,0.0,0.0,0.0,0.0,0.0,0.0,0.0,0.0,0.0,0.0,0.0,0.0,0.0,0.0,0.0,0.0,0.0,0.0,0.0,0.0,0.0,0.0,0.0,0.0,0.0,0.0,0.0,0.0,0.0,0.0,0.0,0.0,0.0,0.0,0.0,0.0,0.0,0.0,0.0,0.0,0.0,0.0,0.0,0.0,0.0,0.0,0.0,0.0,0.0,0.0,0.0,0.0,0.0,0.0,0.0,0.0,0.0,0.0,0.0,0.0,0.0,0.0,0.0,0.0,0.0,0.0,0.0,0.0,0.0,0.0,0.0,0.0,11.5307,12.1065,12.286,12.4505,12.5327,12.5253,12.3757,11.7251,10.4091,10.3268,0.0,0.0,0.0,0.0,0.0,0.0,0.0,0.0,0.0,0.0,0.0,0.0,0.0,0.0,0.0,0.0,0.0,0.0,0.0,0.0,0.0,0.0,0.0,0.0,0.0,0.0,0.0,0.0,0.0,0.0,0.0,0.0,0.0,0.0,0.0,0.0,0.0,0.0,0.0,0.0,0.0,0.0,0.0,0.0,0.0,0.0,0.0,0.0,0.0,0.0,0.0,0.0,0.0,0.0,0.0,0.0,0.0,0.0,0.0,0.0,0.0,0.0,0.0,0.0,0.0,0.0,0.0,0.0,0.0,0.0,0.0,0.0,0.0,0.0,0.0,0.0,0.0,0.0,0.0,0.0,0.0,0.0,0.0,0.0,0.0,0.0,0.0,0.0,0.0,0.0,0.0,0.0,0.0,0.0,0.0,0.0,0.0,0.0,0.0,0.0,0.0,0.0,11.3288,11.8448,12.2635,12.3383,12.3159,12.1962,12.1514,11.5606,10.2371,10.1473,0.0,0.0,0.0,0.0,0.0,0.0,0.0,0.0,0.0,0.0,0.0,0.0,0.0,0.0,0.0,0.0,0.0,0.0,0.0,0.0,0.0,0.0,0.0,0.0,0.0,0.0,0.0,0.0,0.0,0.0,0.0,0.0,0.0,0.0,0.0,0.0,0.0,0.0,0.0,0.0,0.0,0.0,0.0,0.0,0.0,0.0,0.0,0.0,0.0,0.0,0.0,0.0,0.0,0.0,0.0,0.0,0.0,0.0,0.0,0.0,0.0,0.0,0.0,0.0,0.0,0.0,0.0,0.0,0.0,0.0,0.0,0.0,0.0,0.0,0.0,0.0,0.0,0.0,0.0,0.0,0.0,0.0,0.0,0.0,0.0,0.0,0.0,0.0,0.0,0.0,0.0,0.0,0.0,0.0,0.0,0.0,0.0,0.0,0.0,0.0,0.0,0.0,10.7007,11.254,11.8971,12.0392,12.0467,11.9644,12.0243,11.5008,10.1772,9.9529,0.0,0.0,0.0,0.0,0.0,0.0,0.0,0.0,0.0,0.0,0.0,0.0,0.0,0.0,0.0,0.0,0.0,0.0,0.0,0.0,0.0,0.0,0.0,0.0,0.0,0.0,0.0,0.0,0.0,0.0,0.0,0.0,0.0,0.0,0.0,0.0,0.0,0.0,0.0,0.0,0.0,0.0,0.0,0.0,0.0,0.0,0.0,0.0,0.0,0.0,0.0,0.0,0.0,0.0,0.0,0.0,0.0,0.0,0.0,0.0,0.0,0.0,0.0,0.0,0.0,0.0,0.0,0.0,0.0,0.0,0.0,0.0,0.0,0.0,0.0,0.0,0.0,0.0,0.0,0.0,0.0,0.0,0.0,0.0,0.0,0.0,0.0,0.0,0.0,0.0,0.0,0.0,0.0,0.0,0.0,0.0,0.0,0.0,0.0,0.0,0.0,0.0,0.0,10.6184,11.3438,11.613,11.7476,11.7476,11.8747,11.4111,10.1324,0.0,0.0,0.0,0.0,0.0,0.0,0.0,0.0,0.0,0.0,0.0,0.0,0.0,0.0,0.0,0.0,0.0,0.0,0.0,0.0,0.0,0.0,0.0,0.0,0.0,0.0,0.0,0.0,0.0,0.0,0.0,0.0,0.0,0.0,0.0,0.0,0.0,0.0,0.0,0.0,0.0,0.0,0.0,0.0,0.0,0.0,0.0,0.0,0.0,0.0,0.0,0.0,0.0,0.0,0.0,0.0,0.0,0.0,0.0,0.0,0.0,0.0,0.0,0.0,0.0,0.0,0.0,0.0,0.0,0.0,0.0,0.0,0.0,0.0,0.0,0.0,0.0,0.0,0.0,0.0,0.0,0.0,0.0,0.0,0.0,0.0,0.0,0.0,0.0,0.0,0.0,0.0,0.0,0.0,0.0,0.0,0.0,0.0,0.0,0.0,0.0,0.0,0.0,0.0,10.4464,10.7156,11.1419,11.4111,11.4111,11.4335,10.9998,9.9529,0.0,0.0,0.0,0.0,0.0,0.0,0.0,0.0,0.0,0.0,0.0,0.0,0.0,0.0]}],[{"header":{"parameterUnit":"kt","parameterCategory":2,"dx":1,"dy":1,"la1":29.285339999999998,"la2":30.599998999999997,"lo1":-89.70041500000002,"lo2":-87.6738589999976,"nx":112,"ny":82,"refTime":"2022-10-13T12:00:00:Z","depth":0,"parameterNumber":2,"parameterNumberName":"V-component_of_WINDS"},"data":[5.5732,5.363,5.1683,5.2728,5.1136,4.9202,4.9983,4.9655,4.8737,4.7332,4.7027,4.6801,4.5057,4.6112,4.724,4.6627,4.667,4.698,0.0,4.6434,4.6331,4.6694,4.8408,4.9836,5.0616,5.2226,5.3732,5.4901,5.6381,5.7342,5.7524,5.755,5.7368,5.7004,5.7212,5.7316,5.7316,5.7861,5.7965,5.7601,5.742,5.7108,5.6744,5.6537,5.6459,5.6459,5.6459,5.6329,5.6147,5.6147,5.6017,5.5836,5.5836,5.5836,5.5913,5.6719,5.7004,5.7056,5.742,5.755,5.755,5.755,5.755,5.755,5.755,5.6488,5.4757,4.9636,4.8974,4.8293,4.214,4.0137,3.9825,3.8305,3.5682,3.3768,3.3626,3.3421,3.3263,3.3263,3.3263,3.3263,3.3263,3.3263,3.3263,3.3263,3.3263,3.3263,3.3263,3.3263,3.3263,3.3263,3.3263,3.3263,3.3263,3.3263,3.3311,3.3437,3.3547,3.3674,3.38,3.3879,3.3832,3.3611,3.3611,3.3484,3.3263,3.3263,3.3263,3.3263,3.2906,3.2468,5.4044,5.1917,5.0013,5.0983,4.9116,4.763,4.87,4.8304,4.7655,4.7837,4.7136,4.6772,4.7707,4.7759,4.7629,4.7603,4.7447,4.7136,0.0,4.6642,4.698,4.7551,4.9629,5.1317,5.207,5.355,5.4927,5.6095,5.7394,5.8147,5.8147,5.851,5.8303,5.7342,5.7861,5.8095,5.7887,5.8459,5.8536,5.8173,5.7991,5.7679,5.7316,5.7108,5.703,5.703,5.703,5.6926,5.677,5.6952,5.6796,5.6459,5.6667,5.6615,5.6537,5.7316,5.7601,5.7653,5.8017,5.8147,5.8147,5.8147,5.8147,5.8147,5.8147,5.8147,5.7075,5.209,5.1132,5.0529,4.4159,4.151,3.9877,3.8695,3.6047,3.4116,3.3989,3.3768,3.3579,3.3468,3.3437,3.3405,3.3279,3.3358,3.3437,3.3437,3.3342,3.3263,3.3263,3.3263,3.3263,3.3263,3.3263,3.3263,3.3263,3.3263,3.3311,3.3437,3.3547,3.3721,3.3958,3.4068,3.4068,3.3974,3.3974,3.3847,3.3611,3.35,3.3437,3.3453,3.3674,3.3625,5.2693,5.1291,5.033,4.9733,4.8746,4.7937,4.9291,4.8252,4.7188,4.7733,4.7421,4.7239,4.7785,4.8382,4.8408,4.7317,4.7603,0.0,0.0,4.6928,4.8226,4.885,5.0875,5.2667,5.3836,5.503,5.6199,5.7264,5.7887,5.8173,5.8121,5.9238,5.9082,5.742,5.8978,5.9601,5.9056,5.9575,5.9861,5.9809,5.9264,5.9004,5.8978,5.8407,5.8147,5.8147,5.8147,5.7835,5.7394,5.7939,5.7498,5.6563,5.7108,5.7004,5.6641,5.7757,5.8147,5.8147,5.8147,5.8147,5.8147,5.8147,5.8147,5.8147,5.8147,5.8147,5.8147,5.7798,5.53,5.1714,4.7823,4.3904,4.0247,3.5979,3.4842,3.4731,3.4384,3.4305,3.4195,3.3879,3.3816,3.3705,3.3358,3.3579,3.3816,3.3816,3.3516,3.3295,3.3295,3.3279,3.3279,3.3279,3.3263,3.3263,3.3263,3.3263,3.3405,3.3768,3.3468,3.3579,3.4258,3.3989,3.3989,3.4305,3.4305,3.4305,3.4289,3.3974,3.3816,3.3832,3.4526,3.5016,5.1317,4.9116,4.7385,4.9213,4.7539,4.5688,4.7879,4.7681,4.698,4.672,4.7188,0.0,0.0,0.0,4.9265,4.8953,0.0,4.9291,4.7993,4.9291,5.0875,5.2278,5.3368,5.4615,5.6199,5.7783,5.8484,5.7965,5.8822,5.8848,5.7601,5.9004,5.9445,5.8588,5.9393,5.9783,5.9627,5.9783,5.9653,5.9238,5.9082,5.8796,5.8381,5.8225,5.8147,5.8147,5.8147,5.8069,5.7939,5.8095,5.7965,5.7705,5.7861,5.7835,5.7731,5.8043,5.8147,5.8147,5.8147,5.8147,5.8147,5.8147,5.8147,5.8147,5.8147,5.8147,5.7449,5.4925,5.53,5.495,4.8532,4.6045,4.4221,4.021,3.7135,3.4795,3.47,3.4479,3.4258,3.4179,3.4163,3.4131,3.4021,3.4084,3.4163,3.4163,3.4068,3.4005,3.4005,3.38,3.3642,3.3642,3.3421,3.3263,3.3263,3.3263,3.3295,3.3405,3.3563,3.3847,3.4274,3.4463,3.4589,3.4684,3.4684,3.4558,3.4289,3.4195,3.4163,3.4179,3.4157,3.4528,5.0122,4.8264,4.6967,4.8443,4.7383,4.6033,4.7442,4.7629,4.7317,4.698,0.0,0.0,0.0,0.0,0.0,0.0,5.0642,5.0693,4.9291,5.0771,5.2641,5.4381,5.5316,5.6277,5.755,5.8562,5.8978,5.8536,5.89,5.8926,5.8407,5.9549,5.9939,5.9393,5.9913,6.0095,5.9861,5.9861,5.9705,5.9367,5.9367,5.9186,5.8874,5.8614,5.851,5.851,5.8251,5.8147,5.8173,5.8407,5.8381,5.8199,5.8666,5.8874,5.8848,5.8614,5.851,5.8484,5.8251,5.8147,5.8147,5.8147,5.8147,5.8147,5.8147,5.8147,5.7798,5.53,5.5276,5.4575,5.0302,4.6756,4.3904,4.1415,3.8022,3.5031,3.5031,3.4873,3.4684,3.4542,3.4526,3.4558,3.47,3.4605,3.4526,3.4526,3.4384,3.4289,3.4289,3.4116,3.4005,3.4005,3.3816,3.3689,3.3689,3.3689,3.3689,3.3689,3.3895,3.4084,3.4289,3.4779,3.511,3.5268,3.541,3.5379,3.5173,3.5031,3.5031,3.5189,3.5008,3.5255,4.9187,4.8382,4.7967,4.7915,4.7941,4.7993,4.8071,0.0,4.8278,4.8278,0.0,4.9005,5.0486,0.0,0.0,5.0849,5.1784,5.1966,5.0304,5.22,5.4355,5.5913,5.6978,5.7809,5.8381,5.8381,5.851,5.89,5.851,5.864,5.9523,6.0173,6.0302,5.9861,6.0328,6.0432,6.0043,5.9991,5.9965,5.9965,5.9965,5.9913,5.9835,5.9341,5.9108,5.9082,5.8562,5.8355,5.8381,5.89,5.8822,5.8433,5.9471,5.9861,5.9783,5.929,5.9108,5.903,5.8536,5.8355,5.8355,5.8355,5.8355,5.8355,5.8355,5.8303,5.8251,5.8173,5.5651,5.3146,5.2419,4.7446,4.2114,4.1415,3.8554,3.6056,3.5331,3.5331,3.5237,3.4937,3.4889,3.4984,3.5284,3.5079,3.4889,3.4889,3.4621,3.44,3.44,3.4368,3.4353,3.4353,3.4321,3.4289,3.4289,3.4289,3.4289,3.4289,3.4289,3.4289,3.4289,3.4921,3.5442,3.5805,3.6152,3.6342,3.6342,3.6057,3.6105,3.6468,3.6799,3.6198,4.9083,4.8668,4.846,4.7993,4.8252,4.8694,0.0,0.0,0.0,5.0642,5.1732,5.2667,5.2537,5.2875,5.3187,5.3187,5.4173,5.4485,5.3213,5.6199,5.8666,5.9004,5.9238,5.9575,6.0147,5.9783,5.9186,5.8381,5.864,5.8536,5.7835,5.877,5.9497,5.9835,5.9965,6.0406,6.1237,6.077,6.0536,6.0536,6.0536,6.0302,5.9861,5.9757,5.9705,5.9679,5.9575,5.9523,5.9549,5.9653,5.9627,5.9549,5.9783,5.9861,5.9835,5.9731,5.9705,5.9679,5.9575,5.9523,5.9523,5.9523,5.9523,5.9523,5.9523,5.9212,5.8744,5.8277,5.7449,5.635,5.3146,5.1362,4.8865,4.2472,4.0337,3.9257,3.604,3.5331,3.5316,3.5252,3.5237,3.5252,3.5316,3.5268,3.5237,3.5237,3.5173,3.5126,3.5126,3.4889,3.4731,3.4731,3.4463,3.4289,3.4289,3.4289,3.4289,3.4289,3.4289,3.4289,3.4289,3.47,3.5094,3.5426,3.5789,3.5963,3.5963,3.6184,3.6468,3.6815,3.6384,3.6554,4.8122,4.7889,4.7967,4.8252,4.8746,0.0,0.0,5.0927,5.207,5.1784,5.3083,5.4381,5.4667,5.4719,5.5005,5.5862,5.6511,5.6874,5.6848,5.9082,6.0822,6.1107,6.0614,6.051,6.1081,6.0354,5.9731,5.9445,5.9186,5.89,5.8614,5.8848,5.9264,5.9835,5.9861,6.0121,6.0692,6.0692,6.0692,6.0692,6.1004,6.0978,6.0692,6.0406,6.0276,6.025,5.9991,5.9861,5.9861,5.9861,6.0199,6.0718,6.0718,6.0718,6.0666,6.038,6.0276,6.0224,5.9965,5.9861,5.9861,5.9861,5.9861,5.9861,5.9861,5.9653,5.9367,5.9082,5.8796,5.8211,5.6426,5.4065,5.1362,4.7801,4.5311,4.283,3.8897,3.8193,3.7471,3.5694,3.5331,3.5331,3.5331,3.5331,3.5331,3.5331,3.5331,3.5331,3.5331,3.5189,3.5079,3.5079,3.4921,3.481,3.481,3.481,3.481,3.481,3.481,3.481,3.481,3.4984,3.5252,3.56,3.5947,3.6136,3.6136,3.631,3.6484,3.6657,3.6453,3.6152,4.7136,4.7136,4.7447,4.8486,4.9265,0.0,5.0174,5.194,5.3472,5.3342,5.4589,5.5991,5.6952,5.6563,5.6563,5.7939,5.8251,5.8796,6.0147,6.1237,6.2016,6.2354,6.1601,6.1159,6.1523,6.064,6.0173,6.051,5.9705,5.9367,5.9835,5.9316,5.9264,5.9835,5.9653,5.9627,5.9861,6.0199,6.0432,6.0536,6.1107,6.1393,6.1393,6.103,6.0874,6.0848,6.038,6.0199,6.0199,6.0199,6.0718,6.1549,6.1549,6.1549,6.1497,6.103,6.0874,6.0796,6.0354,6.0199,6.0199,6.0199,6.0199,6.0199,6.0199,6.0121,6.0017,6.0017,5.9601,5.9186,5.9186,5.6652,5.3785,5.2959,5.0083,4.6504,4.2133,4.1056,3.9995,3.6137,3.5379,3.5331,3.5331,3.5331,3.5331,3.5331,3.5331,3.5331,3.5331,3.5331,3.5331,3.5331,3.5331,3.5331,3.5331,3.5331,3.5331,3.5331,3.5331,3.5331,3.5331,3.5331,3.5473,3.5758,3.6042,3.6231,3.6294,3.6231,3.6231,3.6294,3.6373,3.6015,4.6928,4.7421,4.7941,4.859,4.9551,0.0,5.2278,5.4018,5.5732,5.7186,5.8459,5.9316,5.9445,5.8588,5.7939,5.8121,5.8588,5.9679,6.1809,6.2666,6.2899,6.2458,6.2276,6.2042,6.1601,6.0978,6.0432,5.9991,5.9835,5.9783,5.9861,5.9316,5.9264,5.9835,5.8874,5.8822,5.9835,5.9419,5.9445,5.9965,6.051,6.0796,6.0796,6.1263,6.1471,6.1471,6.1393,6.1367,6.1367,6.1367,6.1445,6.1549,6.1549,6.1549,6.1549,6.1497,6.1471,6.1445,6.1393,6.1367,6.1367,6.1367,6.1367,6.1367,6.1367,6.1004,6.0614,6.0614,6.0199,5.9757,5.9757,5.9347,5.8069,5.3931,5.2742,5.0463,4.2548,4.1056,4.0084,3.6475,3.5552,3.5331,3.5331,3.5331,3.5331,3.5331,3.5331,3.5331,3.5331,3.5331,3.5331,3.5331,3.5331,3.5331,3.5331,3.5331,3.5331,3.5331,3.5331,3.5331,3.5331,3.5331,3.5347,3.5394,3.5426,3.56,3.5931,3.56,3.5615,3.5931,3.6247,3.6389,4.6305,4.672,4.7291,4.885,0.0,0.0,5.3187,5.5368,5.7212,5.7576,5.9108,6.0354,6.0354,6.0224,6.0354,6.103,6.1056,6.1445,6.2718,6.3393,6.3549,6.2977,6.2899,6.2562,6.1653,6.1341,6.1107,6.0874,6.0848,6.0692,6.0354,5.9809,5.9601,5.9861,5.9082,5.8874,5.9367,5.9134,5.9134,5.9367,5.9939,6.0199,6.0224,6.0796,6.1056,6.1081,6.1419,6.1549,6.1549,6.1549,6.1549,6.1549,6.1549,6.1549,6.1549,6.1549,6.1549,6.1549,6.1549,6.1549,6.1549,6.1549,6.1549,6.1549,6.1549,6.1393,6.1211,6.1211,6.103,6.077,6.0432,5.8265,5.5776,5.407,5.1835,4.8509,4.2868,4.157,4.046,3.683,3.6057,3.5884,3.5679,3.5647,3.5568,3.5363,3.5331,3.5331,3.5331,3.5331,3.5331,3.5331,3.5331,3.5331,3.5331,3.5331,3.5331,3.5331,3.5331,3.5331,3.5331,3.5331,3.5331,3.5331,3.5331,3.541,3.5552,3.541,3.541,3.5552,3.571,3.5773,4.5941,0.0,0.0,0.0,0.0,0.0,5.4667,5.677,5.8407,5.8484,5.9783,6.0978,6.1133,6.1393,6.2042,6.3497,6.3393,6.3263,6.3678,6.3938,6.3964,6.3549,6.3211,6.2692,6.1861,6.1653,6.1549,6.1549,6.1549,6.1367,6.0952,6.0536,6.025,6.0095,5.9549,5.9238,5.9238,5.9082,5.9082,5.9264,5.9497,5.9783,6.0095,6.051,6.0796,6.0952,6.1367,6.1549,6.1549,6.1549,6.1549,6.1549,6.1549,6.1549,6.1549,6.1549,6.1549,6.1549,6.1549,6.1549,6.1549,6.1549,6.1549,6.1549,6.1549,6.1549,6.1549,6.1549,6.1549,6.1471,6.103,5.7649,5.4366,5.4225,5.0894,4.6813,4.3007,4.1015,3.9536,3.6858,3.6468,3.631,3.6057,3.601,3.5884,3.5537,3.5473,3.5442,3.5347,3.5331,3.5331,3.5331,3.5331,3.5331,3.5331,3.5331,3.5331,3.5331,3.5331,3.5331,3.5331,3.5331,3.5331,3.5331,3.5331,3.5331,3.5331,3.5331,3.5331,3.5331,3.5331,3.5331,0.0,0.0,0.0,5.0823,5.2537,5.4537,5.7368,5.8536,5.9445,6.1081,6.1497,6.1705,6.225,6.1913,6.2302,6.4535,6.4873,6.4873,6.4899,6.4432,6.4094,6.4094,6.3107,6.2406,6.238,6.1887,6.1549,6.1549,6.1549,6.1549,6.1549,6.1523,6.1263,6.0692,6.0121,5.9835,5.9835,5.929,5.929,5.9835,5.929,5.9601,6.0666,6.0692,6.1004,6.1549,6.1549,6.1549,6.1549,6.1549,6.1549,6.1549,6.1549,6.1549,6.1549,6.1549,6.1549,6.1549,6.1549,6.1549,6.1549,6.1549,6.1549,6.1549,6.1549,6.1549,6.1549,6.1549,6.1549,6.1549,6.1549,5.8514,5.5352,5.4835,5.1379,4.7549,4.3063,3.9219,3.6863,3.6878,3.6626,3.6389,3.6389,3.6389,3.6263,3.59,3.5852,3.5726,3.5379,3.5331,3.5331,3.5331,3.5331,3.5331,3.5331,3.5331,3.5331,3.5331,3.5331,3.5331,3.5331,3.5331,3.5331,3.5331,3.5331,3.5331,3.5331,3.5331,3.5331,3.5331,3.5331,3.5331,4.7785,4.8876,4.9992,5.2849,5.4589,5.6121,5.8251,5.9445,6.0302,6.0874,6.1601,6.2172,6.2354,6.2873,6.3627,6.4769,6.4951,6.4951,6.4951,6.4458,6.3964,6.3601,6.2873,6.225,6.1887,6.1679,6.1549,6.1549,6.1549,6.1549,6.1549,6.1549,6.1471,6.1289,6.1081,6.0796,6.0406,5.9861,5.9679,5.9861,5.929,5.9212,5.9601,5.9965,6.025,6.0484,6.1237,6.1549,6.1549,6.1549,6.1549,6.1549,6.1549,6.1549,6.1549,6.1549,6.1549,6.1549,6.1549,6.1549,6.1549,6.1549,6.1549,6.1549,6.1549,6.1549,6.1549,6.1549,6.1549,6.1549,6.1549,6.0441,5.8119,5.2677,4.8142,4.3979,4.0106,3.8306,3.7257,3.7257,3.7163,3.702,3.6768,3.6736,3.661,3.6279,3.6215,3.6089,3.5742,3.5679,3.56,3.5347,3.5331,3.5331,3.5331,3.5331,3.5331,3.5331,3.5331,3.5331,3.5331,3.5331,3.5331,3.5331,3.5331,3.5331,3.5331,3.5331,3.5331,3.5331,3.5331,3.5331,4.8824,5.02,5.155,5.4563,5.6355,5.7809,5.9549,6.0484,6.1056,6.1263,6.1887,6.2458,6.2666,6.3627,6.4535,6.4899,6.4951,6.4951,6.4951,6.4458,6.3886,6.3341,6.2744,6.2172,6.1627,6.1549,6.1549,6.1549,6.1549,6.1549,6.1549,6.1549,6.1549,6.1549,6.1549,6.1393,6.1004,6.0432,6.025,6.0458,5.9679,5.9523,5.9939,5.9887,6.0069,6.051,6.1237,6.1549,6.1549,6.1549,6.1445,6.1263,6.1263,6.1133,6.0978,6.1185,6.1263,6.1289,6.1497,6.1549,6.1549,6.1549,6.1549,6.1549,6.1549,6.1549,6.1549,6.1549,6.1549,6.1549,6.1549,6.1549,6.0046,5.3252,4.8745,4.4222,3.8566,3.7431,3.7431,3.7431,3.7431,3.7368,3.7131,3.7099,3.6973,3.6626,3.6578,3.6452,3.6105,3.6057,3.5915,3.5568,3.5521,3.5473,3.5347,3.5331,3.5331,3.5331,3.5331,3.5331,3.5331,3.5331,3.5331,3.5331,3.5331,3.5331,3.5331,3.5331,3.5331,3.5331,3.5331,3.5331,4.9265,5.1421,5.3706,5.6043,5.7861,5.9497,6.1185,6.1549,6.1705,6.225,6.2406,6.2614,6.3159,6.4198,6.4951,6.4951,6.4951,6.4951,6.4951,6.4458,6.3912,6.3367,6.2796,6.2224,6.1653,6.1601,6.1601,6.1549,6.1549,6.1549,6.1549,6.1549,6.1549,6.1549,6.1549,6.1549,6.1549,6.1004,6.103,6.1549,6.0432,6.0458,6.1471,6.0406,6.051,6.1549,6.1523,6.1523,6.1549,6.1549,6.1237,6.0744,6.0744,6.0406,6.0017,6.0536,6.077,6.0874,6.1367,6.1575,6.1601,6.1575,6.1549,6.1549,6.1549,6.1549,6.118,6.118,6.118,6.118,6.118,6.118,6.0415,5.6657,5.2503,4.7612,3.9699,3.7815,3.7431,3.7431,3.7431,3.7431,3.7431,3.7431,3.732,3.6973,3.6926,3.6799,3.6468,3.6421,3.6294,3.5931,3.59,3.5758,3.541,3.5394,3.5379,3.5363,3.5363,3.5347,3.5331,3.5331,3.5331,3.5331,3.5331,3.5331,3.5331,3.5331,3.5331,3.5331,3.5331,3.5331,5.0979,5.3498,5.5602,5.8303,5.9316,5.9991,6.1263,6.1549,6.1601,6.1731,6.2458,6.3081,6.3237,6.4198,6.4951,6.4951,6.4951,6.4951,6.4951,6.4458,6.4042,6.3912,6.3393,6.2821,6.225,6.2198,6.2016,6.1601,6.1549,6.1549,6.1549,6.1549,6.1549,6.1549,6.1549,6.1549,6.1549,6.1419,6.1419,6.1549,6.0822,6.064,6.09,6.0614,6.0874,6.1549,6.1107,6.1159,6.1549,6.1549,6.1471,6.1341,6.1341,6.1263,6.1133,6.1289,6.1601,6.1938,6.1653,6.1835,6.212,6.1705,6.1549,6.1549,6.1549,5.9675,5.7029,5.7029,5.477,5.2503,5.2503,5.477,5.7029,5.5889,5.2503,4.9122,4.6856,4.1593,3.7431,3.7431,3.7431,3.7431,3.7431,3.7431,3.7399,3.732,3.7305,3.7178,3.6815,3.6768,3.6642,3.6294,3.6263,3.6231,3.6136,3.6121,3.601,3.5742,3.5726,3.5615,3.5347,3.5331,3.5331,3.5331,3.5331,3.5331,3.5331,3.5331,3.5331,3.5331,3.5331,3.5331,5.0953,5.4251,5.7238,5.9341,6.0224,6.077,6.1419,6.1549,6.1549,6.1549,6.2458,6.3263,6.3263,6.4198,6.4951,6.4951,6.4951,6.4951,6.4951,6.4665,6.438,6.412,6.3834,6.3419,6.2847,6.277,6.2536,6.1964,6.1938,6.1809,6.1575,6.1549,6.1549,6.1549,6.1549,6.1549,6.1549,6.1549,6.1549,6.1549,6.1237,6.1081,6.1081,6.0822,6.1004,6.1549,6.1211,6.1263,6.1549,6.1549,6.1419,6.1185,6.1185,6.103,6.0848,6.1081,6.1393,6.1653,6.1575,6.1938,6.2354,6.2016,6.2094,6.2302,6.2302,5.9631,5.622,5.622,5.3147,5.0105,5.0105,5.1628,5.3482,5.3258,5.017,4.7193,4.7391,4.2471,3.7841,3.7684,3.7541,3.7431,3.7431,3.7431,3.7431,3.7431,3.7431,3.7368,3.7163,3.7131,3.7005,3.6657,3.6626,3.6563,3.6405,3.6405,3.631,3.6105,3.6105,3.601,3.5805,3.5647,3.5568,3.5568,3.5568,3.5568,3.5568,3.541,3.5331,3.5331,3.5331,3.5331,5.0486,5.4225,5.8043,5.9497,6.0666,6.1471,6.1549,6.1549,6.1549,6.1549,6.2458,6.3263,6.3263,6.4198,6.4951,6.4951,6.4951,6.4951,6.4951,6.4951,6.4769,6.4276,6.4224,6.399,6.3445,6.3367,6.3133,6.2562,6.251,6.2302,6.1809,6.1783,6.1757,6.1679,6.1679,6.1627,6.1549,6.1549,6.1549,6.1549,6.1549,6.1549,6.1549,6.103,6.1081,6.1549,6.1549,6.1549,6.1549,6.1549,6.1263,6.0822,6.0822,6.051,6.0147,6.064,6.0483,6.022,6.0657,6.117,6.1632,6.1555,6.229,6.3159,6.3159,6.0502,5.6705,5.6298,5.3198,4.9697,4.8921,4.9309,4.9615,4.9226,4.6109,4.3531,4.3838,4.0789,3.8378,3.8062,3.7762,3.7573,3.7573,3.7541,3.7494,3.7447,3.7431,3.7431,3.7431,3.7431,3.732,3.7005,3.6973,3.6847,3.6563,3.6531,3.6515,3.6468,3.6468,3.6452,3.6405,3.6105,3.5963,3.601,3.5963,3.5931,3.5931,3.5584,3.5394,3.5394,3.5347,3.5331,5.2174,5.4251,5.6017,5.9082,6.0354,6.0978,6.1445,6.1549,6.1549,6.1549,6.2458,6.3263,6.3263,6.4198,6.4951,6.4951,6.4951,6.4951,6.4951,6.4951,6.4899,6.4821,6.4795,6.4587,6.4016,6.3964,6.373,6.3159,6.3107,6.3081,6.2977,6.2977,6.2744,6.2276,6.225,6.2016,6.1575,6.1549,6.1549,6.1549,6.1549,6.1549,6.1549,6.1471,6.1471,6.1549,6.1549,6.1549,6.1549,6.1549,6.1497,6.1419,6.1419,6.1367,6.1289,6.1367,5.943,5.7112,5.6777,5.6992,5.7351,5.692,5.9432,6.2562,6.2562,6.0178,5.6275,5.2812,4.8961,4.5084,4.1575,4.3127,4.5437,4.5362,4.2499,3.9933,3.9689,3.8852,3.8457,3.8378,3.8331,3.8283,3.8283,3.8047,3.7747,3.7478,3.7431,3.7431,3.7431,3.7431,3.7415,3.7352,3.7352,3.732,3.7257,3.7257,3.7131,3.6831,3.6815,3.6689,3.6405,3.6342,3.6436,3.6721,3.6452,3.631,3.631,3.5947,3.5773,3.5773,3.5473,3.5331,5.1448,5.4044,5.6095,5.8043,5.9627,6.0848,6.1419,6.1549,6.1653,6.1938,6.2432,6.2899,6.3211,6.3938,6.4613,6.4899,6.4951,6.4951,6.4951,6.4951,6.4951,6.4951,6.4951,6.4847,6.4561,6.4535,6.4302,6.3756,6.3704,6.3575,6.3289,6.3263,6.3133,6.2873,6.2847,6.2718,6.2458,6.2458,6.2302,6.199,6.199,6.1861,6.1575,6.1861,6.1835,6.1549,6.1549,6.1549,6.1549,6.1549,6.1549,6.1549,6.1549,6.1549,6.1549,6.1549,6.0594,5.8885,5.6356,5.5868,5.5866,5.3725,5.4352,5.6666,5.6666,5.3769,5.0492,4.8184,4.4858,4.1503,3.9139,4.0445,4.1706,4.1537,4.0462,3.8962,3.8773,3.8868,3.8947,3.8789,3.8757,3.8694,3.8504,3.8315,3.8094,3.7747,3.7699,3.7636,3.7463,3.7431,3.7431,3.7431,3.7431,3.7431,3.7431,3.7431,3.7368,3.7194,3.7178,3.7099,3.6942,3.6942,3.702,3.7178,3.6831,3.6657,3.6657,3.631,3.6042,3.5868,3.5694,3.5505,5.0983,5.4096,5.6485,5.7446,5.8926,6.0432,6.1497,6.1653,6.1679,6.212,6.2328,6.2536,6.3003,6.3653,6.425,6.4691,6.4873,6.4951,6.4951,6.4951,6.4951,6.4951,6.4951,6.4951,6.4951,6.4951,6.4769,6.4328,6.4276,6.4094,6.3653,6.3627,6.3575,6.3445,6.3445,6.3393,6.3263,6.3263,6.3029,6.2588,6.2588,6.2354,6.1938,6.238,6.2354,6.1913,6.1783,6.1731,6.1731,6.1601,6.1549,6.1549,6.1549,6.1549,6.1549,6.1549,6.118,6.0046,5.6657,5.5399,5.4216,5.1184,5.0718,5.1098,5.1098,4.8861,4.6236,4.5084,4.2586,4.008,3.9282,3.9089,3.9215,3.8947,3.8883,3.8883,3.8868,3.9136,3.9325,3.9057,3.9057,3.9025,3.8741,3.8631,3.8489,3.8205,3.8094,3.792,3.7589,3.7541,3.751,3.7447,3.7431,3.7431,3.7431,3.7431,3.7431,3.7431,3.7431,3.7431,3.7431,3.7431,3.7431,3.7431,3.7163,3.702,3.702,3.6673,3.6357,3.6089,3.5931,3.571,5.2985,5.503,5.6199,5.8329,5.8614,5.9082,6.1731,6.1913,6.1575,6.1627,6.2042,6.2406,6.2484,6.3367,6.412,6.4172,6.4613,6.4951,6.4951,6.4951,6.4951,6.4951,6.4951,6.4951,6.4951,6.4951,6.4925,6.4873,6.4873,6.4847,6.4795,6.4795,6.4561,6.4042,6.4016,6.3782,6.3263,6.3263,6.3237,6.3185,6.3185,6.3159,6.3107,6.3159,6.3159,6.3081,6.2562,6.2328,6.2276,6.1783,6.1549,6.1549,6.1549,6.1549,6.1549,6.1549,5.9305,5.6285,5.5889,5.3297,5.0315,4.9938,4.9875,5.0231,5.0231,5.0524,4.9697,4.5865,4.473,4.359,3.9689,3.8536,3.8552,3.852,3.852,3.852,3.852,3.8789,3.9041,3.901,3.9246,3.9452,3.9404,3.9152,3.8947,3.8915,3.8631,3.8283,3.7936,3.7889,3.7762,3.7463,3.7431,3.7431,3.7431,3.7431,3.7431,3.7431,3.7431,3.7431,3.7431,3.7431,3.7431,3.7431,3.7399,3.7384,3.7384,3.702,3.6831,3.6784,3.6168,3.5852,4.9882,5.3057,5.4771,5.568,5.703,5.8536,6.0017,6.0718,6.1237,6.1913,6.1705,6.1575,6.2276,6.3055,6.3704,6.4042,6.4587,6.4951,6.4951,6.4951,6.4951,6.4951,6.4951,6.4951,6.4951,6.4951,6.4951,6.4951,6.4951,6.4951,6.4951,6.4951,6.4847,6.4613,6.4613,6.451,6.4276,6.4276,6.4094,6.3756,6.3756,6.3964,6.4276,6.3912,6.3756,6.373,6.3159,6.2925,6.2899,6.2692,6.238,6.2068,6.2068,6.1861,6.1549,6.1549,6.0441,5.891,5.6285,5.4396,5.2503,4.7632,4.6236,4.561,4.3337,4.2678,4.2418,4.0909,4.0691,4.0453,3.8533,3.8299,3.8362,3.7952,3.7999,3.8141,3.8141,3.8426,3.8678,3.8678,3.8962,3.9199,3.9199,3.9262,3.9294,3.9294,3.901,3.8662,3.8299,3.8252,3.8126,3.7762,3.7731,3.7652,3.7447,3.7431,3.7431,3.7431,3.7431,3.7431,3.7431,3.7431,3.7431,3.7431,3.7431,3.7431,3.7431,3.7289,3.7115,3.6894,3.661,3.6263,4.8214,5.168,5.3446,5.3966,5.5628,5.742,5.851,5.9367,6.0328,6.1627,6.1393,6.1185,6.2016,6.2614,6.3185,6.3756,6.4328,6.4769,6.4925,6.4951,6.4951,6.4951,6.4951,6.4951,6.4951,6.4951,6.4951,6.4951,6.4951,6.4951,6.4951,6.4951,6.4951,6.4951,6.4951,6.4951,6.4951,6.4951,6.4743,6.4354,6.4354,6.4561,6.4925,6.4535,6.4354,6.4328,6.3938,6.3678,6.3523,6.3523,6.3185,6.2666,6.2666,6.2406,6.2068,6.2068,6.1964,6.1438,5.8761,5.6777,5.4396,4.7612,4.4602,4.2719,3.8566,3.7431,3.7431,3.7431,3.7605,3.7778,3.7778,3.7968,3.8047,3.7557,3.762,3.7778,3.7778,3.8062,3.8299,3.8299,3.8599,3.8852,3.8852,3.9041,3.9231,3.9341,3.9152,3.8947,3.8789,3.8694,3.8489,3.8126,3.8094,3.7999,3.7762,3.7636,3.7589,3.7589,3.7494,3.7478,3.7573,3.7589,3.7541,3.7431,3.7431,3.7431,3.7431,3.7431,3.7305,3.7052,3.6942,3.6578,4.9247,5.1706,5.2563,5.4277,5.4719,5.5342,5.7627,5.8173,5.8666,6.0354,6.1159,6.1549,6.1575,6.2016,6.2588,6.3185,6.3756,6.4302,6.4873,6.4951,6.4951,6.4951,6.4951,6.4951,6.4951,6.4951,6.4951,6.4951,6.4951,6.4951,6.4951,6.4951,6.4951,6.4951,6.4951,6.4951,6.4951,6.4951,6.4951,6.4951,6.4951,6.4951,6.4951,6.4951,6.4951,6.4951,6.4925,6.4613,6.4094,6.4094,6.3756,6.3263,6.3263,6.3237,6.3237,6.3237,6.2873,6.238,6.2406,5.9357,5.477,5.1003,4.6876,4.2719,3.8566,3.7431,3.7431,3.7431,3.7447,3.7447,3.7447,3.7447,3.7447,3.7431,3.7447,3.7447,3.7447,3.7699,3.7936,3.7936,3.822,3.8473,3.8473,3.8473,3.8599,3.8962,3.901,3.912,3.9452,3.9199,3.8868,3.8504,3.8457,3.8457,3.8457,3.8126,3.792,3.792,3.762,3.7589,3.7905,3.792,3.7762,3.7447,3.7431,3.7431,3.7431,3.7431,3.7431,3.7431,3.7068,3.6721,4.8138,5.0823,5.1966,5.368,5.4407,5.5108,5.6641,5.729,5.7835,5.877,5.9108,5.9471,6.025,6.1497,6.2588,6.3159,6.373,6.4302,6.4873,6.4951,6.4951,6.4951,6.4951,6.4951,6.4951,6.4951,6.4951,6.4951,6.4951,6.4951,6.4951,6.4951,6.4951,6.4951,6.4951,6.4951,6.4951,6.4951,6.4951,6.4951,6.4951,6.4951,6.4951,6.4951,6.4951,6.4951,6.4951,6.4847,6.4691,6.4691,6.4561,6.438,6.399,6.3601,6.3263,6.3263,6.1212,5.8759,5.8759,5.595,5.159,4.7362,4.5063,4.3531,3.9299,3.7968,3.7778,3.7778,3.7605,3.7541,3.8015,3.8141,3.8141,3.8141,3.8141,3.8141,3.8141,3.822,3.8299,3.8299,3.8583,3.8836,3.8836,3.8836,3.8868,3.8994,3.8789,3.8773,3.912,3.9073,3.9057,3.9168,3.8978,3.8741,3.8489,3.8362,3.8299,3.8299,3.8205,3.8189,3.8299,3.8299,3.8252,3.8141,3.7905,3.7778,3.7778,3.7305,3.7068,3.7052,3.5951,3.5611,4.7055,5.0096,5.155,5.2615,5.3316,5.4096,5.5472,5.5887,5.6225,5.703,5.7368,5.7861,5.9004,6.0614,6.1938,6.2536,6.3263,6.399,6.4535,6.4821,6.4951,6.4951,6.4951,6.4951,6.4951,6.4951,6.4951,6.4951,6.4951,6.4951,6.4951,6.4951,6.4951,6.4951,6.4951,6.4951,6.4951,6.4951,6.4951,6.4951,6.4951,6.4951,6.4951,6.4951,6.4951,6.4951,6.4951,6.4951,6.4951,6.4951,6.4951,6.4899,6.4561,6.4198,6.3912,6.3912,6.22,5.97,5.97,5.6844,5.2426,4.8164,4.5846,4.3892,3.964,3.8315,3.8126,3.8126,3.7984,3.792,3.8362,3.8473,3.8473,3.8473,3.8473,3.8473,3.8473,3.8473,3.8473,3.8473,3.8647,3.8804,3.8804,3.8804,3.8852,3.8978,3.8804,3.8757,3.8978,3.901,3.9089,3.9294,3.9136,3.8962,3.8868,3.8741,3.8678,3.8678,3.8789,3.8804,3.8678,3.8678,3.8615,3.8473,3.811,3.7936,3.7936,3.7368,3.7099,3.7099,3.562,3.5268,4.6148,4.9525,5.1213,5.1317,5.1836,5.2719,5.4277,5.4225,5.4147,5.5264,5.5862,5.6563,5.7757,5.9264,6.0588,6.1367,6.2432,6.3367,6.4016,6.4561,6.4899,6.4951,6.4951,6.4951,6.4951,6.4951,6.4951,6.4951,6.4951,6.4951,6.4951,6.4951,6.4951,6.4951,6.4951,6.4951,6.4951,6.4951,6.4951,6.4951,6.4951,6.4951,6.4951,6.4951,6.4951,6.4951,6.4951,6.4951,6.4951,6.4951,6.4951,6.4951,6.4951,6.4951,6.4951,6.4951,6.4613,6.3787,6.3787,6.0714,5.6029,5.176,4.7873,4.3982,3.9706,3.852,3.8504,3.8504,3.852,3.8536,3.8536,3.8536,3.8536,3.8536,3.8536,3.8536,3.8536,3.8536,3.8536,3.8536,3.8536,3.8536,3.8536,3.852,3.8615,3.8915,3.8978,3.8978,3.901,3.901,3.901,3.901,3.901,3.9136,3.9436,3.9183,3.901,3.901,3.9325,3.9357,3.9057,3.9041,3.8883,3.8552,3.8189,3.7999,3.7968,3.7605,3.7431,3.7384,3.5895,3.5181,4.7231,4.9265,5.0304,5.1628,5.3031,5.4096,5.4044,5.394,5.3914,5.4199,5.4018,5.4303,5.5913,5.6537,5.7705,6.0458,6.1497,6.2458,6.3912,6.4224,6.4458,6.4899,6.4951,6.4951,6.4951,6.4951,6.4951,6.4951,6.4951,6.4951,6.4951,6.4951,6.4951,6.4951,6.4951,6.4951,6.4951,6.4951,6.4951,6.4951,6.4951,6.4951,6.4951,6.4951,6.4951,6.4951,6.4951,6.4951,6.4951,6.4951,6.4951,6.4951,6.4951,6.4951,6.4951,6.4951,6.29,6.0017,6.0017,5.7155,5.2716,4.838,4.6409,4.4813,4.0454,3.9073,3.8883,3.8883,3.9057,3.9262,3.9262,3.9262,3.9262,3.9262,3.9262,3.9262,3.9262,3.9262,3.9262,3.9262,3.9262,3.9262,3.9262,3.9041,3.8915,3.8994,3.8773,3.8694,3.8962,3.901,3.901,3.901,3.901,3.9025,3.9089,3.9041,3.901,3.901,3.9325,3.9467,3.9389,3.9389,3.9341,3.9262,3.8931,3.8615,3.8347,3.6941,3.614,3.588,3.3642,3.3092,4.6823,4.9135,5.0538,5.1187,5.2252,5.3057,5.2745,5.2667,5.2667,5.2667,5.2641,5.2979,5.4173,5.4849,5.6069,5.8718,6.051,6.2068,6.3523,6.3938,6.4328,6.4873,6.4951,6.4951,6.4951,6.4951,6.4951,6.4951,6.4951,6.4951,6.4951,6.4951,6.4951,6.4951,6.4951,6.4951,6.4951,6.4951,6.4951,6.4951,6.4951,6.4951,6.4951,6.4951,6.4951,6.4951,6.4951,6.4951,6.4951,6.4951,6.4951,6.4951,6.4951,6.4951,6.4951,6.4951,6.3366,6.1386,6.1386,5.8613,5.5038,5.2658,4.9072,4.5503,4.3105,4.0971,3.9231,3.9231,3.9357,3.9499,3.9499,3.9499,3.9499,3.9499,3.9499,3.9499,3.9499,3.9499,3.9499,3.9499,3.9499,3.9499,3.9499,3.9357,3.9231,3.9231,3.9073,3.8947,3.8978,3.8994,3.901,3.901,3.901,3.901,3.8994,3.8994,3.901,3.901,3.9168,3.9278,3.9278,3.942,3.9499,3.9499,3.9168,3.85,3.7899,3.6828,3.5643,3.5078,3.3071,3.2481,4.6414,4.8892,5.0419,5.0564,5.0875,5.1265,5.1187,5.1161,5.1135,5.1057,5.1473,5.207,5.2641,5.3602,5.4875,5.6641,5.9082,6.1315,6.2899,6.3627,6.4224,6.4873,6.4951,6.4951,6.4951,6.4951,6.4951,6.4951,6.4951,6.4951,6.4951,6.4951,6.4951,6.4951,6.4951,6.4951,6.4951,6.4951,6.4951,6.4951,6.4951,6.4951,6.4951,6.4951,6.4951,6.4951,6.4951,6.4951,6.4951,6.4951,6.4951,6.4951,6.4951,6.4951,6.4951,6.4951,6.4951,6.4951,6.4951,6.256,5.94,5.9007,5.3849,4.7892,4.709,4.3894,4.0293,4.0293,3.9904,3.9499,3.9499,3.9499,3.9499,3.9499,3.9499,3.9499,3.9499,3.9499,3.9499,3.9499,3.9499,3.9499,3.9499,3.9499,3.9499,3.9499,3.9499,3.9389,3.9089,3.9073,3.9057,3.901,3.901,3.901,3.901,3.901,3.901,3.901,3.901,3.901,3.901,3.9278,3.942,3.942,3.9152,3.8193,3.7376,3.6406,3.57,3.4425,3.3125,3.208,4.746,4.7367,4.7118,4.9854,5.0875,5.1161,5.0693,5.059,5.0434,4.9966,5.0304,5.0875,5.1447,5.2096,5.3083,5.4823,5.6303,5.8459,6.2042,6.3029,6.3782,6.4821,6.4951,6.4951,6.4951,6.4951,6.4951,6.4951,6.4951,6.4951,6.4951,6.4951,6.4951,6.4951,6.4951,6.4951,6.4951,6.4951,6.4951,6.4951,6.4951,6.4951,6.4951,6.4951,6.4951,6.4951,6.4951,6.4951,6.4951,6.4951,6.4951,6.4951,6.4951,6.4951,6.4951,6.4951,6.4951,6.4951,6.4951,6.4562,6.3366,5.9817,5.7826,5.6224,5.224,4.8273,4.5101,4.5101,4.2298,3.9499,3.9499,3.9499,3.9499,3.9499,3.9499,3.9499,3.9499,3.9499,3.9499,3.9499,3.9499,3.9499,3.9499,3.9499,3.9499,3.9499,3.9499,3.9483,3.942,3.942,3.9325,3.9041,3.901,3.901,3.901,3.901,3.901,3.901,3.901,3.8994,3.8978,3.9041,3.9073,3.9073,3.8209,3.7376,3.7376,3.527,3.4147,3.3643,3.2387,3.1823,4.8149,4.7588,4.6843,4.9985,5.1109,5.1239,5.0979,5.0668,5.0382,5.0122,5.0278,5.0538,5.0797,5.155,5.2589,5.4018,5.5472,5.742,6.0173,6.212,6.3678,6.4821,6.4951,6.4951,6.4951,6.4951,6.4951,6.4951,6.4951,6.4951,6.4951,6.4951,6.4951,6.4951,6.4951,6.4795,6.4484,6.4484,6.4484,6.451,6.4795,6.4951,6.4951,6.4951,6.4951,6.4951,6.4951,6.4951,6.4951,6.4951,6.4951,6.4951,6.4951,6.4951,6.4951,6.4951,6.4951,6.4951,6.4951,6.4951,6.4562,6.2585,6.0602,5.8219,5.6224,5.4246,5.2658,5.2658,4.9871,4.5868,4.3491,4.3105,4.2298,3.9888,3.9499,3.9499,3.9499,3.9499,3.9499,3.9499,3.9499,3.9499,3.9499,3.9499,3.9499,3.9499,3.9499,3.9499,3.9499,3.9499,3.9436,3.9294,3.9278,3.9199,3.901,3.9168,3.9199,3.9025,3.901,3.901,3.8994,3.882,3.8406,3.8193,3.6796,3.5997,3.5757,3.4399,3.3379,3.2698,3.2156,3.1539,4.9067,0.0,4.7322,5.0852,5.1602,5.1343,0.0,5.0953,5.0382,5.0096,5.0278,5.0408,5.0278,5.1187,5.2304,5.3472,5.4979,5.6693,5.8562,6.103,6.3185,6.4587,6.4743,6.4795,6.4925,6.4951,6.4951,6.4951,6.4951,6.4951,6.4951,6.4951,6.4951,6.4951,6.4951,6.4743,6.4302,6.4302,6.425,6.412,6.4691,6.4873,6.4743,6.4873,6.4951,6.4951,6.4951,6.4951,6.4951,6.4951,6.4951,6.4951,6.4951,6.4951,6.4951,6.4951,6.4951,6.4951,6.4951,6.4951,6.4951,6.4951,6.2585,6.0185,6.0185,5.9424,5.8613,5.8613,5.5434,5.1445,4.8273,4.7472,4.6288,4.1895,4.1103,4.0698,3.9499,3.9499,3.9499,3.9499,3.9499,3.9499,3.9499,3.9499,3.9499,3.9499,3.9499,3.9499,3.9499,3.9499,3.9499,3.9499,3.9499,3.9389,3.912,3.9341,3.9389,3.9136,3.912,3.9089,3.901,3.8741,3.825,3.7149,3.6174,3.4983,3.3943,3.3393,3.2887,3.2014,3.1803,3.1539,0.0,4.912,4.7585,5.228,5.2459,5.1447,5.1966,5.1239,0.0,4.9083,4.9707,5.0278,4.9759,5.059,5.1732,5.2875,5.4044,5.5628,5.7887,5.9757,6.1705,6.3912,6.4172,6.438,6.4899,6.4951,6.4951,6.4951,6.4951,6.4951,6.4951,6.4951,6.4951,6.4951,6.4951,6.4925,6.4899,6.4873,6.4613,6.412,6.4691,6.4665,6.4172,6.4717,6.4951,6.4951,6.4951,6.4951,6.4951,6.4951,6.4951,6.4951,6.4951,6.4951,6.4951,6.4951,6.4951,6.4951,6.4951,6.4951,6.4951,6.4951,6.4562,6.4536,6.4536,6.1777,5.8613,5.8613,5.5434,5.224,5.1842,5.1842,5.0648,4.6288,4.5503,4.4297,4.0293,3.9499,3.9499,3.9499,3.9499,3.9499,3.9499,3.9499,3.9499,3.9499,3.9499,3.9499,3.9499,3.9499,3.9499,3.9499,3.9499,3.9483,3.9467,3.9483,3.9483,3.9467,3.9467,3.9325,3.9025,3.8978,3.8265,3.6468,3.6725,3.5543,3.332,3.2397,3.1988,3.1737,3.1711,3.1539,5.248,5.1821,5.0909,5.2842,5.2563,5.1784,5.1654,5.1005,5.033,4.9914,5.0148,5.0382,5.0174,5.0771,5.1035,4.989,5.2619,5.4832,5.5004,5.8474,6.1809,6.3393,6.4198,6.4717,6.4925,6.4951,6.4951,6.4951,6.4951,6.4951,6.4951,6.4951,6.4951,6.4951,6.4613,6.4432,6.4432,6.4432,6.4328,6.4094,6.4328,6.4302,6.4094,6.3964,6.4094,6.4432,6.4432,6.4613,0.0,6.4951,6.4951,6.4951,6.4951,6.4951,6.4951,6.4951,6.4951,6.4951,6.4951,6.4951,6.4951,6.4951,6.4951,6.4951,6.4951,6.0185,5.462,5.462,5.3431,5.224,5.224,5.025,4.7872,4.6288,4.3894,4.1491,3.9904,3.9499,3.9499,3.9499,3.9499,3.9499,3.9499,3.9499,3.9499,3.9499,3.9499,3.9499,3.9499,3.9499,3.9499,3.9499,3.9499,3.9499,3.9499,3.931,3.9199,3.9199,3.8978,3.8804,3.8678,3.7667,3.6635,3.5597,3.4729,3.3461,3.2198,3.1711,3.1803,3.1698,3.1698,3.1539,5.3758,5.3836,5.3628,5.3992,5.3368,5.2589,5.2174,5.1525,5.0901,5.0538,5.059,5.0668,5.0486,5.0112,4.9392,4.789,5.106,5.3586,5.3122,5.8003,6.1913,6.2873,6.399,6.4691,6.4691,6.4847,6.4951,6.4951,6.4951,6.4951,6.4951,6.4951,6.4951,6.4951,6.4561,6.438,6.438,6.438,6.4276,6.4094,6.4276,6.4172,6.3834,6.3627,6.3653,6.3834,6.3834,6.4172,6.4691,6.4691,6.4795,6.4951,6.4951,6.4951,6.4951,6.4951,6.4951,6.4951,6.4951,6.4951,6.4951,6.4951,6.4146,6.3366,6.4536,5.9793,5.4224,5.4224,5.4224,5.3828,5.2637,5.1047,4.9072,4.6689,4.3491,4.1103,3.9904,3.9499,3.9499,3.9499,3.9499,3.9499,3.9499,3.9499,3.9499,3.9499,3.9499,3.9499,3.9499,3.9499,3.9499,3.9499,3.9499,3.9499,3.9499,3.9294,3.912,3.8609,3.8773,3.8187,3.7683,3.7058,3.57,3.441,3.3433,3.2504,3.1262,3.146,3.1566,3.1566,3.1566,3.146,5.4563,5.4719,5.5005,5.6147,5.5134,5.3836,5.3836,5.2953,5.181,5.0693,5.0901,5.1135,5.0564,4.8539,4.7056,4.8105,4.9908,5.1802,5.2982,5.8229,6.1783,6.2354,6.3419,6.412,6.412,6.4613,6.4951,6.4951,6.4951,6.4951,6.4951,6.4951,6.4951,6.4951,6.4951,6.4951,6.4951,6.4951,6.4665,6.412,6.4665,6.4354,6.3289,6.3834,6.3782,6.3263,6.3263,6.3575,6.4094,6.4094,6.4432,6.4951,6.4951,6.4951,6.4951,6.4951,6.4951,6.4951,6.4951,6.4951,6.4951,6.4951,6.2169,5.9424,6.3756,6.1777,5.8613,5.8613,5.8613,5.7431,5.3431,5.5412,5.6247,4.7892,4.5887,4.4699,4.0293,3.9499,3.9499,3.9499,3.9499,3.9499,3.9499,3.9499,3.9499,3.9499,3.9499,3.9499,3.9499,3.9499,3.9499,3.9499,3.9499,3.9499,3.9499,3.9499,3.8937,3.7792,3.8594,3.8038,3.5294,3.6466,3.5908,3.3251,3.3251,3.2709,3.1262,3.1262,3.1262,3.1262,3.1262,3.1262,5.6043,5.6251,5.5913,5.5862,5.5134,5.4122,5.2927,5.0468,4.9079,5.088,4.9292,4.844,5.0777,4.8809,4.7056,4.8406,4.9908,5.1802,5.3361,5.8579,6.2354,6.2951,6.4016,6.4691,6.4691,6.4847,6.4951,6.4951,6.4951,6.4951,6.4951,6.4951,6.4951,6.4951,6.4951,6.4951,6.4951,6.4951,6.4873,6.4691,6.4458,6.3964,6.3263,6.3003,6.2821,6.2666,6.2666,6.2977,6.3523,6.3523,6.3834,6.4354,6.4354,6.4587,6.4951,6.4951,6.4951,6.4951,6.4951,6.4951,6.4951,6.4951,6.4146,6.2585,6.0994,5.3431,4.627,5.2637,5.1842,4.9472,4.8273,4.6288,4.5083,4.5887,4.3491,4.1103,3.9904,3.9499,3.9499,3.9499,3.9499,3.9499,3.9499,3.9499,3.9499,3.9499,3.9499,3.9499,3.9499,3.9499,3.9499,3.9499,3.9499,3.9499,3.9499,3.8456,3.7777,3.7043,3.6421,3.576,3.4642,3.4224,3.3793,3.2933,3.2157,3.1836,3.1566,3.1368,3.1368,3.1566,3.1355,3.1262,5.6874,5.7212,5.6978,5.6433,5.5836,5.5005,5.3498,5.0233,4.8184,5.1112,4.8637,4.6987,4.9071,4.8259,4.7154,4.7263,4.9955,5.2511,5.4259,5.933,6.2951,6.3523,6.4406,6.4951,6.4951,6.4951,6.4951,6.4951,6.4951,6.4951,6.4951,6.4951,6.4951,6.4951,6.4951,6.4951,6.4951,6.4951,6.4951,6.4951,6.4613,6.4146,6.3575,6.3003,6.2614,6.238,6.2172,6.2406,6.2925,6.2925,6.3393,6.4094,6.4094,6.4458,6.4951,6.4951,6.4951,6.4951,6.4951,6.4951,6.4951,6.4951,6.3756,6.2169,6.1386,5.462,4.7872,5.1445,4.9072,4.5887,4.5887,4.2702,4.0293,4.2702,4.1507,3.9499,3.9499,3.9499,3.9499,3.9499,3.9499,3.9499,3.9499,3.9499,3.9499,3.9499,3.9499,3.9499,3.9499,3.9499,3.9499,3.9499,3.9499,3.9499,3.9499,3.8098,3.7376,3.6496,3.5514,3.4425,3.3209,3.2919,3.2974,3.2586,3.1929,3.1632,3.1698,3.1526,3.1473,3.1526,3.1342,3.1262,5.716,5.7731,5.8017,5.7446,5.6874,5.6147,5.4979,5.1221,4.871,5.1702,4.8981,4.6576,4.6706,4.7242,4.7264,4.611,4.9695,5.3597,5.5999,6.0256,6.3471,6.4042,6.4613,6.4951,6.4951,6.4951,6.4951,6.4951,6.4951,6.4951,6.4951,6.4951,6.4951,6.4951,6.4951,6.4951,6.4951,6.4951,6.4951,6.4951,6.4951,6.4639,6.4094,6.3523,6.2951,6.238,6.1809,6.1861,6.2328,6.2328,6.2951,6.3964,6.4016,6.438,6.4873,6.4925,6.4951,6.4951,6.4951,6.4562,6.4536,6.4951,6.1777,5.9007,6.256,6.0577,5.6224,5.2637,4.9072,4.5887,4.5887,4.3105,3.9904,3.9499,3.9499,3.9499,3.9499,3.9499,3.9499,3.9499,3.9499,3.9499,3.9499,3.9499,3.9499,3.9499,3.9499,3.9499,3.9499,3.9499,3.9499,3.9499,3.9499,3.9499,3.9499,3.8267,3.717,3.5381,3.5308,3.4246,3.1355,3.2346,3.2482,3.1711,3.1922,3.1922,3.1698,3.1671,3.1539,3.1302,3.1276,3.1262,5.716,5.7731,5.8017,5.7446,5.6874,5.6147,5.4979,5.1518,4.9584,5.2292,5.0134,4.7538,4.7609,4.8383,4.9083,4.9683,5.1764,5.5077,5.9792,6.2161,6.3471,6.4042,6.4613,6.4951,6.4951,6.4951,6.4951,6.4951,6.4951,6.4951,6.4951,6.4951,6.4951,6.4951,6.4951,6.4951,6.4951,6.4951,6.4951,6.4951,6.4951,6.4639,6.4094,6.3523,6.2951,6.238,6.1809,6.1627,6.1731,6.1731,6.2146,6.2821,6.3263,6.3782,6.4328,6.4795,6.4951,6.4951,6.4951,6.2975,6.0602,6.3756,5.9769,5.3828,5.462,4.9452,4.3894,4.6689,4.6689,4.5887,4.5887,4.5101,4.3491,4.0293,3.9499,3.9499,3.9499,3.9499,3.9499,3.9499,3.9499,3.9499,3.9499,3.9499,3.9499,3.9499,3.9499,3.9499,3.9499,3.9499,3.9499,3.9499,3.9499,3.9094,3.8297,3.7634,3.6619,3.4469,3.4245,3.3256,3.1935,3.1777,3.209,3.1698,3.1539,3.1526,3.1698,3.1473,3.1447,3.1605,3.1368,3.1262,5.7004,5.7524,5.7757,5.7705,5.729,5.6641,5.5732,5.2186,5.0138,5.2856,4.9295,4.5377,4.5821,4.6509,4.6808,4.6851,5.0753,5.4953,5.9033,6.1716,6.3575,6.4406,6.4769,6.4951,6.4951,6.4951,6.4951,6.4951,6.4951,6.4951,6.4951,6.4951,6.4951,6.4951,6.4951,6.4951,6.4951,6.4951,6.4951,6.4951,6.4951,6.4795,6.4484,6.3912,6.3497,6.3185,6.2614,6.238,6.238,6.238,6.2718,6.3237,6.3549,6.4016,6.4535,6.4847,6.4951,6.4951,6.4951,6.3366,6.1777,6.1777,5.6224,4.9452,5.1842,4.9053,4.5467,4.5887,4.5887,4.5503,4.3509,4.2702,4.2298,3.9904,3.9499,3.9499,3.9499,3.9499,3.9499,3.9499,3.9499,3.9499,3.9499,3.9499,3.9499,3.9499,3.9499,3.9499,3.9499,3.9499,3.9499,3.9499,3.9499,3.9094,3.8688,3.7305,3.6334,3.4983,3.3612,3.261,3.1935,3.1908,3.1843,3.1711,3.1816,3.1829,3.1698,3.1684,3.1605,3.1487,3.1328,3.1262,5.6589,5.716,5.742,5.7887,5.7653,5.716,5.6589,5.3597,5.1377,5.3575,4.9175,4.4576,4.4098,4.5364,4.5889,4.3575,4.9705,5.5548,5.6783,6.0552,6.3297,6.3629,6.4536,6.4951,6.4951,6.4951,6.4951,6.4951,6.4951,6.4951,6.4951,6.4951,6.4899,6.4795,6.4795,6.4795,6.4795,6.4795,6.4847,6.4951,6.4951,6.4951,6.4925,6.4354,6.4094,6.4068,6.3523,6.3263,6.3263,6.3263,6.3549,6.3964,6.4068,6.4406,6.4821,6.4899,6.4951,6.4951,6.4951,6.4146,6.2169,5.8613,5.2261,4.6689,5.025,5.0648,4.9452,4.5887,4.4699,4.3894,4.0293,3.9499,3.9499,3.9499,3.9499,3.9499,3.9499,3.9499,3.9499,3.9499,3.9499,3.9499,3.9499,3.9499,3.9499,3.9499,3.9499,3.9499,3.9499,3.9499,3.9499,3.9499,3.9499,3.9499,3.9094,3.741,3.6062,3.547,3.379,3.237,3.1948,3.2093,3.208,3.1856,3.2264,3.2251,3.1777,3.1961,3.1803,3.1342,3.1289,3.1262,5.5628,5.6563,5.7342,5.7394,5.7368,5.716,5.6589,5.5604,5.4781,5.5394,5.4627,5.2061,4.6132,5.1134,5.4151,4.8041,5.4377,5.8955,5.7235,6.0552,6.2507,5.9673,6.2585,6.4951,6.4951,6.4951,6.4951,6.4951,6.4951,6.4951,6.4951,6.4951,6.4717,6.4224,6.4224,6.4224,6.4224,6.4224,6.4458,6.4951,6.4951,6.4951,6.4925,6.4354,6.4094,6.4068,6.3523,6.3263,6.3263,6.3263,6.3315,6.3419,6.3912,6.4146,6.4276,6.4769,6.4951,6.4951,6.4951,6.0161,5.3828,5.3431,4.9871,4.5887,4.6689,4.4297,4.1103,4.0293,4.0293,4.0293,3.9499,3.9499,3.9499,3.9499,3.9499,3.9499,3.9499,3.9499,3.9499,3.9499,3.9499,3.9499,3.9499,3.9499,3.9499,3.9499,3.9499,3.9499,3.9499,3.9499,3.9499,3.9499,3.9499,3.8688,3.6642,3.6797,3.5931,3.3752,3.3495,3.3441,3.2831,3.262,3.2489,3.2449,3.2264,3.2133,3.2054,3.1856,3.1724,3.1645,3.1381,3.1262,5.4849,5.5706,5.6433,5.6744,5.7082,5.716,5.6589,5.6251,5.6069,5.6069,5.2402,4.9361,4.8742,4.7,4.5176,4.4788,4.9838,5.2937,5.0335,5.573,5.9292,5.8487,6.0017,6.2169,6.4562,6.4951,6.4951,6.4951,6.4951,6.4951,6.4951,6.4639,6.4354,6.412,6.3808,6.3627,6.3627,6.3627,6.3912,6.4458,6.4146,6.4328,6.4925,6.4354,6.4276,6.4561,6.4328,6.4198,6.4198,6.4198,6.4198,6.4224,6.4484,6.4561,6.42,6.2094,6.1386,6.0994,5.859,5.3828,4.8673,4.8673,4.5887,4.2298,4.2298,4.1103,3.9499,3.9499,3.9499,3.9499,3.9499,3.9499,3.9499,3.9499,3.9499,3.9499,3.9499,3.9499,3.9499,3.9499,3.9499,3.9499,3.9499,3.9499,3.9499,3.9499,3.9499,3.9499,3.9499,3.9499,3.9499,3.9499,3.9094,3.8282,3.7063,3.6119,3.5294,3.3806,3.3684,3.3198,3.2752,3.2634,3.2475,3.2317,3.2344,3.2212,3.1882,3.1922,3.1763,3.1447,3.1315,3.1262,5.3914,5.4693,5.529,5.5862,5.573,5.5356,5.4926,5.4148,5.3496,5.3644,4.9568,4.686,4.8514,4.4102,4.0317,4.2011,4.5846,4.7958,4.4577,5.1569,5.6298,5.4845,5.6925,5.9601,6.2749,6.3265,6.329,6.3163,6.4329,6.4717,6.4717,6.4198,6.3834,6.3678,6.3263,6.2977,6.2821,6.2977,6.3341,6.3886,6.3471,6.3704,6.451,6.4094,6.4198,6.4717,6.4717,6.4821,6.4951,6.4951,6.4951,6.4951,6.3756,6.3366,6.295,5.8613,5.7014,5.6224,5.1047,4.7072,4.4297,4.4297,4.1895,3.9499,3.9499,3.9499,3.9499,3.9499,3.9499,3.9499,3.9499,3.9499,3.9499,3.9499,3.9499,3.9499,3.9499,3.9499,3.9499,3.9499,3.9499,3.9499,3.9499,3.9499,3.9499,3.9499,3.9499,3.9499,3.9499,3.9094,3.9094,3.9094,3.8282,3.747,3.7063,3.5436,3.4621,3.4213,3.3411,3.2911,3.2686,3.2673,3.2528,3.2238,3.237,3.2199,3.1698,3.1763,3.1566,3.1144,3.1078,3.1038,5.2641,5.3498,5.407,5.4641,5.284,5.0503,5.0479,4.7758,4.5513,4.5959,4.8473,4.8764,4.2639,4.7428,4.9924,4.3118,4.6016,4.7856,4.4204,5.1077,5.3839,4.6626,5.2879,5.7886,5.8251,5.8723,5.8794,5.8686,6.2169,6.4146,6.4146,6.3627,6.3055,6.251,6.2458,6.2172,6.1653,6.2172,6.2744,6.3315,6.3289,6.3289,6.3341,6.3315,6.3627,6.4146,6.4146,6.4458,6.4951,6.4951,6.4951,6.4536,6.0602,5.9007,5.8613,5.4224,5.2637,5.1445,4.3088,3.9904,3.9904,3.9904,3.9499,3.9499,3.9499,3.9499,3.9499,3.9499,3.9499,3.9499,3.9499,3.9499,3.9499,3.9499,3.9499,3.9499,3.9499,3.9499,3.9499,3.9499,3.9499,3.9499,3.9499,3.9499,3.9499,3.9499,3.9499,3.9499,3.9499,3.8688,3.7891,3.7891,3.7063,3.5829,3.5029,3.4621,3.4213,3.3003,3.3003,3.3003,3.299,3.299,3.2845,3.2541,3.2278,3.2001,3.1698,3.1157,3.0867,3.0827,3.0564,3.0445,4.7826,5.0465,5.2797,5.3005,5.137,5.0269,5.2641,5.053,4.8547,4.9069,4.813,4.6603,4.4784,4.3111,4.1693,4.1625,4.5172,4.5996,4.0003,4.6419,5.1034,4.8842,5.1224,5.4622,5.7323,5.4873,5.537,5.983,5.9404,5.9954,6.2977,6.2484,6.225,6.2406,6.2042,6.1757,6.1549,6.1757,6.1964,6.2172,6.2172,6.2562,6.3237,6.2873,6.3029,6.3575,6.3964,6.4224,6.4432,6.2019,6.0994,6.0602,5.6224,5.462,5.4224,4.9871,4.8273,4.7472,4.1491,3.9499,3.9499,3.9499,3.9499,3.9499,3.9499,3.9499,3.9499,3.9499,3.9499,3.9499,3.9499,3.9499,3.9499,3.9499,3.9499,3.9499,3.9499,3.9499,3.9499,3.9499,3.9499,3.9499,3.9499,3.9499,3.9499,3.9499,3.8267,3.7455,3.7455,3.7048,3.6642,3.6642,3.5829,3.5029,3.4621,3.3819,3.3411,3.3003,3.3003,3.2924,3.2726,3.2713,3.2489,3.2014,3.1908,3.1618,3.1131,3.092,3.0814,3.0814,3.0722,3.0775,4.4432,4.6428,4.849,4.9617,4.7538,4.5626,4.8454,4.6421,4.4161,4.513,4.3889,4.2676,4.2222,3.9512,3.7679,3.8897,4.1748,4.2119,3.6894,4.2135,4.6361,4.5682,4.8376,5.1376,5.422,5.1878,5.1487,5.5281,5.5629,5.6166,5.8016,5.8661,5.9348,5.9902,5.9575,6.0237,6.1549,6.1549,6.1549,6.1549,6.1549,6.1964,6.2666,6.2302,6.2432,6.3003,6.3367,6.3756,6.412,6.1159,6.0652,6.0185,5.4445,5.2093,5.1445,4.5887,4.3894,4.3491,4.0293,3.9499,3.9499,3.9499,3.9499,3.9499,3.9499,3.9499,3.9499,3.9499,3.9499,3.9499,3.9499,3.9499,3.9499,3.9499,3.9499,3.9499,3.9499,3.9499,3.9499,3.9499,3.9499,3.9499,3.9499,3.9094,3.9094,3.9094,3.7455,3.6235,3.6642,3.6235,3.5829,3.5829,3.4621,3.4227,3.4227,3.3411,3.3003,3.3003,3.2911,3.2726,3.2423,3.241,3.2133,3.1566,3.1552,3.1315,3.0814,3.0722,3.0682,3.0682,3.0682,3.0788,4.2096,4.1766,4.1126,4.4326,4.0834,3.6849,3.7579,3.4777,3.2727,3.309,3.626,3.7849,3.4816,3.7305,3.8837,3.5009,3.5126,3.5933,3.4905,3.8984,4.0693,3.7055,4.3678,4.8912,4.9352,4.8996,4.7631,4.3549,5.0574,5.3178,4.9507,5.2744,5.4542,5.5062,5.5085,5.7186,6.1497,6.1497,6.1523,6.1523,6.1523,6.1549,6.1549,6.1549,6.149,6.2006,6.2006,6.2651,6.3606,6.309,6.3503,6.3265,5.4465,5.1427,5.1006,4.2651,3.9452,3.9452,3.9467,3.9467,3.9467,3.9467,3.9467,3.9467,3.9467,3.9467,3.9467,3.9467,3.9467,3.9467,3.9467,3.9467,3.9467,3.9467,3.9467,3.9483,3.9483,3.9483,3.9483,3.9499,3.9483,3.9483,3.9499,3.8688,3.7891,3.7891,3.7063,3.6642,3.7485,3.5843,3.4621,3.4621,3.3819,3.3003,3.3003,3.3003,3.3003,3.299,3.2726,3.2423,3.2119,3.2093,3.1816,3.1249,3.1223,3.1065,3.0761,3.0498,3.0366,3.0379,3.0379,3.0379,3.4909,3.6852,3.8768,3.9473,3.7526,3.61,3.8976,3.7377,3.5505,3.6285,3.7341,3.7294,3.3817,3.4139,3.5022,3.3563,3.6394,3.7502,3.4785,3.7985,4.0569,3.9918,4.2465,4.3597,4.3099,4.2964,4.3963,4.5393,4.7531,4.9616,5.2128,5.5673,5.8043,5.8601,5.6018,5.4977,5.6237,5.6237,5.6431,5.6819,5.9437,6.1159,6.1549,5.8539,5.561,5.3477,5.6503,5.6454,5.4041,5.1182,5.0249,4.9715,4.4434,4.2605,4.2241,3.9327,3.8362,3.8394,3.8662,3.8757,3.8757,3.8757,3.8757,3.8757,3.8757,3.8757,3.8757,3.8757,3.8757,3.8757,3.8757,3.8757,3.8757,3.8757,3.8947,3.9136,3.9136,3.9136,3.9215,3.9452,3.931,3.9215,3.9452,3.9094,3.9094,3.9094,3.625,3.3819,3.4227,3.3819,3.3411,3.3411,3.3411,3.3003,3.3003,3.3003,3.2911,3.27,3.2607,3.233,3.1843,3.1605,3.1223,3.0643,3.0432,3.0076,2.9575,2.9496,2.9561,2.9759,2.9759,2.9983,2.9603,3.1264,3.3263,3.4832,3.3326,3.2438,3.5233,3.456,3.3589,3.4372,3.4964,3.4742,3.2616,3.26,3.2821,3.2821,3.5124,3.5717,3.3764,3.5566,3.7766,3.8166,3.8253,3.8114,3.7644,3.7905,3.8784,4.1228,4.4029,4.5736,4.5393,5.0792,5.3267,5.2534,5.0365,5.0112,5.1766,5.3242,5.3745,5.2194,5.6261,5.7185,5.5987,5.3753,5.1163,4.9305,5.182,5.1688,4.9624,4.7434,4.6548,4.6494,4.2331,4.0911,4.0604,3.865,3.7731,3.7747,3.7968,3.8031,3.8062,3.8205,3.8236,3.8268,3.8426,3.8473,3.8473,3.8473,3.8473,3.8473,3.8473,3.8473,3.8473,3.8473,3.8631,3.8789,3.8789,3.8789,3.8836,3.9025,3.8625,3.8255,3.844,3.7785,3.747,3.7861,3.5843,3.4213,3.3819,3.3819,3.3411,3.3003,3.3003,3.3003,3.3003,3.2897,3.2739,3.2568,3.2212,3.1816,3.1355,3.0933,3.0498,3.0036,2.9852,2.9601,2.9271,2.9271,2.9351,2.9509,2.9509,2.9443,2.5812,2.6017,2.6937,2.985,2.8864,2.7454,0.0,2.8685,2.8953,2.9711,3.039,3.0974,3.1385,3.1716,3.1969,3.2032,3.2316,3.2426,3.2158,3.2679,3.3184,3.3468,3.3295,3.3137,3.3137,3.3737,3.4131,3.4163,4.0775,4.2028,3.58,4.214,4.4987,4.2585,4.1878,4.352,4.7605,5.0883,5.0905,4.7688,5.1699,5.1721,4.8483,4.7751,4.8117,4.8483,4.7384,4.7632,4.8332,4.757,4.7488,4.8183,4.4093,4.2608,4.243,3.8753,3.7257,3.7273,3.7305,3.732,3.7368,3.7668,3.7762,3.781,3.8141,3.8236,3.8236,3.8236,3.8236,3.8252,3.8283,3.8299,3.8299,3.8347,3.7984,3.8015,3.8015,3.8015,3.8031,3.8062,3.7486,3.6886,3.696,3.6004,3.4959,3.5728,3.5714,3.5337,3.4566,3.4159,3.4172,3.295,3.295,3.295,3.2911,3.266,3.2475,3.2423,3.1684,3.1091,3.0735,3.0194,2.9746,2.9416,2.9377,2.9337,2.9271,2.9271,2.9271,2.9271,2.9271,2.8691,0.0,0.0,0.0,0.0,0.0,0.0,0.0,2.6191,2.6869,2.7864,2.8385,2.8938,2.9853,3.0074,3.0311,3.0879,3.1021,3.1148,3.1369,3.1732,3.1921,3.1716,3.2127,3.2426,3.2426,3.2805,3.3168,3.3437,3.7809,4.0222,3.8904,4.342,4.5731,4.5612,4.2428,4.1211,4.2359,4.306,4.3594,4.3214,4.7211,4.885,4.8117,4.5201,4.5201,4.8117,4.1546,4.0469,4.349,4.0098,3.8677,3.8845,3.8309,3.7525,3.6858,3.6428,3.6168,3.6215,3.65,3.661,3.661,3.6673,3.6689,3.6705,3.6784,3.6799,3.6799,3.6799,3.6799,3.6863,3.7131,3.6446,3.6125,3.64,3.5882,3.5671,3.5671,3.5671,3.576,3.6041,3.5529,3.5543,3.6085,3.583,3.4983,3.3117,3.2677,3.277,3.3011,3.3051,3.2647,3.2647,3.2647,3.2555,3.2304,3.2238,3.2001,3.1539,3.1355,3.092,3.0155,2.9786,2.9351,2.8836,2.8586,2.823,2.7768,2.7768,2.7768,2.7768,2.7768,2.7399,0.0,0.0,0.0,0.0,0.0,0.0,0.0,0.0,0.0,0.0,0.0,2.7233,2.7943,0.0,2.8874,2.9727,2.9869,3.0058,3.0595,3.1116,3.1242,3.0737,3.129,3.1716,3.1716,3.219,3.2569,3.2726,3.6408,3.8135,3.6829,4.0455,4.1777,4.0119,3.8396,3.7424,3.7629,3.9566,3.978,3.8571,4.234,4.3614,4.2008,3.9837,3.9837,4.1644,3.7673,3.6955,3.8756,3.6588,3.5868,3.5852,3.5663,3.5268,3.4826,3.5016,3.5189,3.5379,3.5552,3.5615,3.5679,3.6026,3.601,3.5931,3.6294,3.6405,3.6405,3.5642,3.5642,3.5688,3.509,3.4774,3.4426,3.4589,3.4371,3.4106,3.4106,3.4106,3.4149,3.4323,3.4081,3.3892,3.4218,3.3881,3.3092,3.1908,3.2027,3.2172,3.2317,3.233,3.2291,3.2146,3.2133,3.2067,3.1922,3.1908,3.1724,3.1289,3.0709,3.0128,2.9548,2.8968,2.852,2.823,2.7781,2.7412,2.7122,2.7122,2.7122,2.7122,2.6832,2.6463,0.0,0.0,0.0,0.0,0.0,0.0,0.0,0.0,0.0,0.0,0.0,0.0,0.0,0.0,0.0,2.8622,2.8906,2.9222,2.9869,3.0437,3.0579,3.0027,3.0564,3.099,3.099,3.1558,3.1953,3.2016,3.4964,3.5674,3.3042,3.6023,3.6709,3.3974,3.4053,3.4131,3.4195,3.7674,3.7864,3.4731,3.8191,0.0,3.5126,3.5126,3.5126,3.5126,3.5126,3.5126,3.5126,3.5126,3.5126,3.5063,3.4368,3.4053,3.4005,3.4068,3.4274,3.4526,3.4526,3.4526,3.4637,3.5268,3.5268,3.5158,3.5789,3.5994,0.0,3.487,3.45,3.453,3.3551,3.3222,3.2878,3.2992,3.2978,3.2949,3.2632,3.2978,3.2949,3.3021,3.2663,3.2244,3.2299,3.1793,3.1025,3.1315,3.1552,3.1737,3.1843,3.1869,3.1777,3.1552,3.1539,3.1513,3.146,3.15,3.1381,3.1025,3.0181,2.9482,2.9034,2.8335,2.7861,2.7623,2.7149,2.6845,2.674,2.674,2.6713,2.6634,2.6001,2.5553,0.0,0.0,0.0,0.0,0.0,0.0,0.0,0.0,0.0,0.0,0.0,0.0,0.0,0.0,0.0,0.0,2.8243,2.878,2.9159,2.9285,2.9301,2.9222,2.9837,3.0279,3.0279,3.0611,3.0974,3.129,3.1946,3.2297,3.2332,3.2711,0.0,0.0,0.0,3.3532,3.3847,3.453,3.4689,3.4353,3.4737,3.4753,3.44,3.44,3.44,3.44,3.44,3.44,3.44,3.44,3.44,3.4337,3.3642,3.32,3.2963,3.3263,3.3405,3.3437,3.3437,0.0,0.0,3.3895,3.4005,3.4037,3.4416,3.4526,3.4172,3.3478,3.3123,3.2902,3.2745,3.181,3.1217,3.1757,3.1315,3.0448,3.0715,3.0568,3.0461,3.0728,3.0445,3.0577,3.1209,3.0221,2.9812,3.0102,3.0181,3.0379,3.0893,3.0959,3.0946,3.092,3.092,0.0,3.0564,3.0775,3.0682,3.0142,3.0221,2.9825,2.8744,2.8612,2.8072,2.703,2.6938,2.6648,2.6146,2.6146,2.6001,2.5738,2.4894,2.4353,0.0,0.0,0.0,0.0,0.0,0.0,0.0,0.0,0.0,0.0,0.0,0.0,0.0,0.0,0.0,0.0,2.7059,2.7375,2.7296,2.7975,2.8496,2.8496,2.9111,2.9616,2.9822,3.0169,3.0437,3.0579,3.0895,3.1164,3.1306,3.17,3.1984,3.2142,3.2474,3.2726,3.2884,3.3232,3.3405,3.3405,3.3595,3.3689,3.3689,3.3689,3.3689,3.3689,3.3689,3.3689,3.3689,3.3689,3.3579,3.3358,0.0,0.0,0.0,0.0,3.279,3.2963,3.2963,3.2963,3.3026,3.3374,3.3358,3.3263,3.3595,3.3344,3.2651,3.1627,3.128,3.0643,2.9847,2.9701,2.9536,2.9779,2.9527,2.9285,2.9575,2.9416,2.9337,2.9799,2.9759,0.0,2.9337,2.914,2.9113,2.9416,2.9601,2.9786,3.0023,3.0208,3.0247,3.0076,3.0063,3.001,2.9891,2.9838,0.0,0.0,0.0,2.9087,2.8414,2.8072,0.0,0.0,0.0,2.5698,2.579,2.5276,0.0,0.0,2.376,2.3364,0.0,0.0,0.0,0.0,0.0,0.0,0.0,0.0,0.0,0.0,0.0,0.0,0.0,0.0,0.0,0.0,2.597,2.6333,2.5515,2.6648,2.7406,2.7328,2.8243,2.8811,2.9159,2.9427,2.9616,2.9727,3.0043,3.0279,3.0374,3.0943,3.1274,3.1274,3.1621,3.1795,3.1795,3.2237,3.2474,3.2474,3.2821,3.2979,3.2979,3.2979,3.2979,3.2979,3.2979,3.2979,3.2979,3.2979,3.2837,3.2553,3.1906,3.1669,3.1669,3.1669,3.1827,3.2048,3.2048,3.2048,3.2095,3.2109,3.2047,3.1937,3.2023,3.1749,3.1015,3.0107,2.9388,2.8333,2.7751,2.7702,2.7966,2.7966,2.8203,2.848,2.8691,2.8507,2.8441,2.8942,2.8625,2.8177,2.79,2.7966,2.819,2.8559,2.8784,2.8968,2.914,2.9416,2.9509,2.9298,2.9416,2.9482,2.9403,2.9364,2.9324,2.9271,2.8968,2.8533,2.7992,2.7571,2.7122,2.6621,2.5619,2.5197,0.0,0.0,0.0,0.0,0.0,0.0,0.0,0.0,0.0,0.0,0.0,0.0,0.0,0.0,0.0,0.0,0.0,0.0,0.0,0.0,0.0,0.0,0.0,0.0,2.4358,2.5047,2.5531,2.5674,2.6906,2.7738,2.8069,2.8117,2.8259,2.8622,2.8953,2.9285,2.9632,3.0011,3.0216,3.0216,3.0532,3.0706,3.0706,3.1385,3.1716,3.1732,3.2095,3.2269,3.2269,3.2269,3.2269,3.2269,3.2269,3.2269,3.2269,3.2269,3.2253,3.2111,3.0753,3.0232,3.0232,3.0232,3.0232,3.0248,3.0248,3.0248,3.0295,2.9683,2.9775,2.958,2.9273,2.9243,2.873,2.807,2.7619,2.7467,2.679,2.6951,2.7386,2.7386,2.761,2.7834,2.7834,2.7597,2.7478,2.7795,2.6924,2.6318,2.6859,2.6727,2.6753,2.732,2.7412,0.0,2.8177,2.8507,2.8691,2.8678,2.9179,2.9403,2.914,2.9614,2.9575,2.8731,2.8942,2.8573,2.7425,2.736,2.7201,2.6898,2.6305,2.5606,2.4775,0.0,0.0,0.0,0.0,0.0,0.0,0.0,0.0,0.0,0.0,0.0,0.0,0.0,0.0,0.0,0.0,0.0,0.0,0.0,0.0,0.0,0.0,0.0,0.0,2.3328,2.4358,2.3583,2.5622,2.664,2.5639,2.689,2.75,2.7323,2.7922,2.8448,2.8574,2.8922,2.9222,2.9443,2.979,3.009,3.0327,3.0564,3.0674,3.0674,3.08,3.0864,3.0864,3.0864,3.0864,3.0864,3.0864,3.0864,3.0864,3.0864,3.0721,3.0453,2.998,2.9664,2.9459,2.8869,2.8704,2.8872,2.8566,2.8409,2.8619,2.8412,2.8442,2.8486,2.8394,2.7749,2.7048,2.6844,2.6501,2.5829,2.5606,2.5909,2.6199,2.6199,2.6568,2.6977,2.7162,2.6977,2.6924,2.7412,2.6555,2.5949,2.6529,2.6555,2.6621,2.7004,2.7056,2.7122,2.732,2.7781,2.8085,2.8085,2.8428,2.8612,2.852,2.8335,2.819,2.8085,2.7636,2.7201,2.6806,2.6397,2.587,2.5197,2.5184,2.4564,2.3312,0.0,0.0,0.0,0.0,0.0,0.0,0.0,0.0,0.0,0.0,0.0,0.0,0.0,0.0,0.0,0.0,0.0,0.0,0.0,0.0,0.0,0.0,0.0,0.0,0.0,0.0,2.2931,2.471,0.0,2.477,2.5776,2.6172,2.5885,2.6484,2.6996,2.7122,2.7596,2.8006,2.8338,2.8811,2.9111,2.9238,2.9474,2.9664,2.9774,2.9901,3.0043,3.0153,3.0153,3.0153,3.0153,3.0153,3.0153,3.0106,2.949,2.9016,2.8701,2.8406,2.8265,2.8078,2.734,2.7226,2.7406,2.6928,2.6818,2.6977,2.6861,2.6731,2.6359,2.6173,2.553,2.5188,2.5407,2.5172,2.4564,2.4564,2.5013,2.5408,2.5184,2.5672,2.6199,2.6278,2.616,2.6081,2.6239,2.5487,2.4986,2.5474,2.5566,2.5725,2.6226,2.6292,2.6371,2.6568,2.7109,2.7439,2.7346,2.7768,2.8019,2.7913,2.7663,2.7505,2.7478,2.6859,2.6397,2.6186,2.5606,2.4986,2.4314,2.4287,2.372,0.0,0.0,0.0,0.0,0.0,0.0,0.0,0.0,0.0,0.0,0.0,0.0,0.0,0.0,0.0,0.0,0.0,0.0,0.0,0.0,0.0,0.0,0.0,0.0,0.0,0.0,0.0,2.3207,2.3751,0.0,0.0,0.0,0.0,2.4344,2.4707,2.5054,2.5354,2.6033,2.657,2.6933,2.758,2.7801,2.7533,2.818,2.8669,2.8985,2.9348,2.9695,3.0027,3.0043,3.0058,3.0058,3.0058,3.0043,2.9901,2.8211,2.7296,2.6964,2.6118,2.5826,2.5856,2.5317,2.5152,2.521,2.5543,2.5659,2.563,2.5326,2.446,2.3424,2.3133,2.2745,0.0,0.0,2.3351,2.3364,2.3391,2.4221,2.492,2.4393,2.492,2.5474,2.521,2.5144,2.4973,2.4353,2.38,2.3523,2.3813,0.0,2.4169,2.4999,2.5171,2.5382,2.5909,2.6516,2.6779,2.6502,2.7241,2.7636,2.7333,2.7557,2.7465,2.6872,2.6568,2.6146,2.5566,2.4973,2.4525,2.4221,2.3641,0.0,0.0,0.0,0.0,0.0,0.0,0.0,0.0,0.0,0.0,0.0,0.0,0.0,0.0,0.0,0.0,0.0,0.0,0.0,0.0,0.0,0.0,0.0,0.0,0.0,0.0,1.827,1.9096,1.8985,2.0139,2.0798,0.0,0.0,0.0,0.0,0.0,0.0,2.3828,2.4469,2.4969,2.5313,2.575,2.6459,2.7154,2.7343,2.7469,2.7548,2.7911,2.8132,2.8227,2.848,2.859,2.859,2.859,2.8448,2.8148,2.6627,2.6039,2.5414,2.462,2.4116,2.3894,2.295,2.2774,2.2764,2.2536,2.251,2.2713,2.2875,2.2861,2.2492,2.2072,0.0,0.0,0.0,0.0,2.2244,2.2692,2.3035,2.3325,2.3602,2.4156,2.4617,2.4551,2.4538,2.4287,2.3483,2.3219,2.3206,2.3509,2.3747,0.0,2.4195,2.4775,2.5171,2.5092,2.5975,2.6489,2.6199,2.674,2.7017,2.674,2.6582,2.6331,2.5962,2.5474,2.5026,2.4657,2.3865,2.3312,2.3035,0.0,0.0,0.0,0.0,0.0,0.0,0.0,0.0,0.0,0.0,0.0,0.0,0.0,0.0,0.0,0.0,0.0,0.0,0.0,0.0,0.0,0.0,0.0,0.0,0.0,0.0,0.0,1.6884,1.7831,1.7781,1.848,1.882,0.0,0.0,0.0,0.0,0.0,0.0,0.0,0.0,0.0,2.3548,2.3854,2.4462,2.5433,2.5625,2.5922,2.6333,2.6696,2.7027,2.7327,2.7359,2.7454,2.7596,2.7596,2.6875,2.5838,2.4766,2.4006,2.3542,0.0,0.0,0.0,0.0,2.0676,2.0619,2.0411,2.0622,2.078,2.0938,0.0,0.0,0.0,0.0,0.0,0.0,0.0,2.14,2.1729,2.2204,2.2639,2.2824,2.3219,2.3549,2.3549,2.314,2.2639,2.2151,2.1848,2.1769,2.2059,2.2349,0.0,0.0,0.0,2.4459,2.4538,2.5355,2.5909,2.5856,2.6041,2.6146,2.6107,2.5843,2.554,2.525,2.4802,2.4366,2.3945,2.3219,2.256,0.0,0.0,0.0,0.0,0.0,0.0,0.0,0.0,0.0,0.0,0.0,0.0,0.0,0.0,0.0,0.0,0.0,0.0,0.0,0.0,0.0,0.0,0.0,0.0,0.0,0.0,0.0,0.0,0.0,1.7786,1.7918,0.0,0.0,0.0,0.0,0.0,0.0,0.0,0.0,0.0,0.0,0.0,0.0,0.0,2.2209,2.2875,2.341,2.4068,2.4859,2.5219,2.5703,2.6265,2.6062,2.6156,2.6727,2.6234,0.0,2.3631,2.2445,0.0,0.0,0.0,0.0,0.0,0.0,0.0,0.0,0.0,0.0,0.0,0.0,0.0,0.0,0.0,0.0,0.0,0.0,0.0,0.0,0.0,0.0,2.2178,2.1914,2.2178,2.2402,2.2178,2.1294,2.0556,2.0556,2.0121,1.9844,0.0,0.0,0.0,0.0,0.0,0.0,2.4063,2.4722,2.5237,2.5514,2.5342,2.5276,2.5474,2.5237,2.4947,2.4643,2.4314,2.3892,2.3351,2.2745,0.0,0.0,0.0,0.0,0.0,0.0,0.0,0.0,0.0,0.0,0.0,0.0,0.0,0.0,0.0,0.0,0.0,0.0,0.0,0.0,0.0,0.0,0.0,0.0,0.0,0.0,0.0,0.0,0.0,0.0,0.0,0.0,0.0,0.0,0.0,0.0,0.0,0.0,0.0,0.0,0.0,0.0,0.0,0.0,0.0,0.0,0.0,0.0,0.0,0.0,2.222,2.2688,2.2808,2.3035,2.3692,2.4466,2.2584,2.1761,2.1493,2.0171,0.0,0.0,0.0,0.0,0.0,0.0,0.0,0.0,0.0,0.0,0.0,0.0,0.0,0.0,0.0,0.0,0.0,0.0,0.0,0.0,0.0,0.0,2.0424,2.0371,2.1123,2.1453,2.0015,0.0,0.0,0.0,0.0,0.0,0.0,0.0,0.0,0.0,0.0,0.0,2.318,2.4156,2.4933,2.5237,2.5224,2.5118,2.4907,2.463,2.434,2.4063,2.3523,2.3074,0.0,0.0,0.0,0.0,0.0,0.0,0.0,0.0,0.0,0.0,0.0,0.0,0.0,0.0,0.0,0.0,0.0,0.0,0.0,0.0,0.0,0.0,0.0,0.0,0.0,0.0,0.0,0.0,0.0,0.0,0.0,0.0,0.0,0.0,0.0,0.0,0.0,0.0,0.0,0.0,0.0,0.0,0.0,0.0,0.0,0.0,0.0,0.0,0.0,0.0,0.0,0.0,0.0,0.0,0.0,0.0,0.0,0.0,2.0083,1.9096,0.0,0.0,0.0,0.0,0.0,0.0,0.0,0.0,0.0,0.0,0.0,0.0,0.0,0.0,0.0,0.0,0.0,0.0,0.0,0.0,0.0,0.0,0.0,0.0,0.0,0.0,0.0,0.0,0.0,0.0,0.0,0.0,0.0,0.0,0.0,0.0,0.0,0.0,0.0,0.0,2.2705,2.3668,2.4525,2.5131,2.492,2.4736,2.4749,2.434,2.3971,2.3681,2.2969,0.0,0.0,0.0,0.0,0.0,0.0,0.0,0.0,0.0,0.0,0.0,0.0,0.0,0.0,0.0,0.0,0.0,0.0,0.0,0.0,0.0,0.0,0.0,0.0,0.0,0.0,0.0,0.0,0.0,0.0,0.0,0.0,0.0,0.0,0.0,0.0,0.0,0.0,0.0,0.0,0.0,0.0,0.0,0.0,0.0,0.0,0.0,0.0,0.0,0.0,0.0,0.0,0.0,0.0,0.0,0.0,0.0,0.0,0.0,1.7835,1.6832,0.0,0.0,0.0,0.0,0.0,0.0,0.0,0.0,0.0,0.0,0.0,0.0,0.0,0.0,0.0,0.0,0.0,0.0,0.0,0.0,0.0,0.0,0.0,0.0,0.0,0.0,0.0,0.0,0.0,0.0,0.0,0.0,0.0,0.0,0.0,0.0,0.0,0.0,0.0,0.0,2.2283,2.3153,2.4063,2.4999,2.4617,2.4366,2.4551,2.409,2.3641,2.3285,2.2389,0.0,0.0,0.0,0.0,0.0,0.0,0.0,0.0,0.0,0.0,0.0,0.0,0.0,0.0,0.0,0.0,0.0,0.0,0.0,0.0,0.0,0.0,0.0,0.0,0.0,0.0,0.0,0.0,0.0,0.0,0.0,0.0,0.0,0.0,0.0,0.0,0.0,0.0,0.0,0.0,0.0,0.0,0.0,0.0,0.0,0.0,0.0,0.0,0.0,0.0,0.0,0.0,0.0,0.0,0.0,0.0,0.0,0.0,0.0,0.0,0.0,0.0,0.0,0.0,0.0,0.0,0.0,0.0,0.0,0.0,0.0,0.0,0.0,0.0,0.0,0.0,0.0,0.0,0.0,0.0,0.0,0.0,0.0,0.0,0.0,0.0,0.0,0.0,0.0,0.0,0.0,0.0,0.0,0.0,0.0,0.0,0.0,0.0,0.0,0.0,0.0,2.1637,2.2547,2.3523,2.4657,2.4498,2.4208,2.3984,2.3668,2.3259,2.2705,0.0,0.0,0.0,0.0,0.0,0.0,0.0,0.0,0.0,0.0,0.0,0.0,0.0,0.0,0.0,0.0,0.0,0.0,0.0,0.0,0.0,0.0,0.0,0.0,0.0,0.0,0.0,0.0,0.0,0.0,0.0,0.0,0.0,0.0,0.0,0.0,0.0,0.0,0.0,0.0,0.0,0.0,0.0,0.0,0.0,0.0,0.0,0.0,0.0,0.0,0.0,0.0,0.0,0.0,0.0,0.0,0.0,0.0,0.0,0.0,0.0,0.0,0.0,0.0,0.0,0.0,0.0,0.0,0.0,0.0,0.0,0.0,0.0,0.0,0.0,0.0,0.0,0.0,0.0,0.0,0.0,0.0,0.0,0.0,0.0,0.0,0.0,0.0,0.0,0.0,0.0,0.0,0.0,0.0,0.0,0.0,0.0,0.0,0.0,0.0,0.0,0.0,2.1057,2.2099,2.3127,2.4129,2.4129,2.3945,2.3654,2.3351,2.2784,2.1861,0.0,0.0,0.0,0.0,0.0,0.0,0.0,0.0,0.0,0.0,0.0,0.0,0.0,0.0,0.0,0.0,0.0,0.0,0.0,0.0,0.0,0.0,0.0,0.0,0.0,0.0,0.0,0.0,0.0,0.0,0.0,0.0,0.0,0.0,0.0,0.0,0.0,0.0,0.0,0.0,0.0,0.0,0.0,0.0,0.0,0.0,0.0,0.0,0.0,0.0,0.0,0.0,0.0,0.0,0.0,0.0,0.0,0.0,0.0,0.0,0.0,0.0,0.0,0.0,0.0,0.0,0.0,0.0,0.0,0.0,0.0,0.0,0.0,0.0,0.0,0.0,0.0,0.0,0.0,0.0,0.0,0.0,0.0,0.0,0.0,0.0,0.0,0.0,0.0,0.0,0.0,0.0,0.0,0.0,0.0,0.0,0.0,0.0,0.0,0.0,0.0,0.0,2.0609,2.1729,2.2784,2.3668,2.376,2.3641,2.3338,2.3048,2.231,2.0978,0.0,0.0,0.0,0.0,0.0,0.0,0.0,0.0,0.0,0.0,0.0,0.0,0.0,0.0,0.0,0.0,0.0,0.0,0.0,0.0,0.0,0.0,0.0,0.0,0.0,0.0,0.0,0.0,0.0,0.0,0.0,0.0,0.0,0.0,0.0,0.0,0.0,0.0,0.0,0.0,0.0,0.0,0.0,0.0,0.0,0.0,0.0,0.0,0.0,0.0,0.0,0.0,0.0,0.0,0.0,0.0,0.0,0.0,0.0,0.0,0.0,0.0,0.0,0.0,0.0,0.0,0.0,0.0,0.0,0.0,0.0,0.0,0.0,0.0,0.0,0.0,0.0,0.0,0.0,0.0,0.0,0.0,0.0,0.0,0.0,0.0,0.0,0.0,0.0,0.0,0.0,0.0,0.0,0.0,0.0,0.0,0.0,0.0,0.0,0.0,0.0,0.0,2.0332,2.1426,2.2481,2.3351,2.3444,2.3325,2.3022,2.2745,2.1848,0.0,0.0,0.0,0.0,0.0,0.0,0.0,0.0,0.0,0.0,0.0,0.0,0.0,0.0,0.0,0.0,0.0,0.0,0.0,0.0,0.0,0.0,0.0,0.0,0.0,0.0,0.0,0.0,0.0,0.0,0.0,0.0,0.0,0.0,0.0,0.0,0.0,0.0,0.0,0.0,0.0,0.0,0.0,0.0,0.0,0.0,0.0,0.0,0.0,0.0,0.0,0.0,0.0,0.0,0.0,0.0,0.0,0.0,0.0,0.0,0.0,0.0,0.0,0.0,0.0,0.0,0.0,0.0,0.0,0.0,0.0,0.0,0.0,0.0,0.0,0.0,0.0,0.0,0.0,0.0,0.0,0.0,0.0,0.0,0.0,0.0,0.0,0.0,0.0,0.0,0.0,0.0,0.0,0.0,0.0,0.0,0.0,0.0,0.0,0.0,0.0,0.0,0.0,1.9989,2.0965,2.1967,2.3022,2.314,2.2942,2.2455,2.2336,2.1453,1.9501,0.0,0.0,0.0,0.0,0.0,0.0,0.0,0.0,0.0,0.0,0.0,0.0,0.0,0.0,0.0,0.0,0.0,0.0,0.0,0.0,0.0,0.0,0.0,0.0,0.0,0.0,0.0,0.0,0.0,0.0,0.0,0.0,0.0,0.0,0.0,0.0,0.0,0.0,0.0,0.0,0.0,0.0,0.0,0.0,0.0,0.0,0.0,0.0,0.0,0.0,0.0,0.0,0.0,0.0,0.0,0.0,0.0,0.0,0.0,0.0,0.0,0.0,0.0,0.0,0.0,0.0,0.0,0.0,0.0,0.0,0.0,0.0,0.0,0.0,0.0,0.0,0.0,0.0,0.0,0.0,0.0,0.0,0.0,0.0,0.0,0.0,0.0,0.0,0.0,0.0,0.0,0.0,0.0,0.0,0.0,0.0,0.0,0.0,0.0,0.0,0.0,0.0,0.0,2.0609,2.1598,2.2415,2.2613,2.2534,2.2178,2.2046,2.1057,1.8908,0.0,0.0,0.0,0.0,0.0,0.0,0.0,0.0,0.0,0.0,0.0,0.0,0.0,0.0,0.0,0.0,0.0,0.0,0.0,0.0,0.0,0.0,0.0,0.0,0.0,0.0,0.0,0.0,0.0,0.0,0.0,0.0,0.0,0.0,0.0,0.0,0.0,0.0,0.0,0.0,0.0,0.0,0.0,0.0,0.0,0.0,0.0,0.0,0.0,0.0,0.0,0.0,0.0,0.0,0.0,0.0,0.0,0.0,0.0,0.0,0.0,0.0,0.0,0.0,0.0,0.0,0.0,0.0,0.0,0.0,0.0,0.0,0.0,0.0,0.0,0.0,0.0,0.0,0.0,0.0,0.0,0.0,0.0,0.0,0.0,0.0,0.0,0.0,0.0,0.0,0.0,0.0,0.0,0.0,0.0,0.0,0.0,0.0,0.0,0.0,0.0,0.0,0.0,2.0332,2.1347,2.1663,2.1954,2.2099,2.2085,2.1822,2.0675,1.8354,1.8209,0.0,0.0,0.0,0.0,0.0,0.0,0.0,0.0,0.0,0.0,0.0,0.0,0.0,0.0,0.0,0.0,0.0,0.0,0.0,0.0,0.0,0.0,0.0,0.0,0.0,0.0,0.0,0.0,0.0,0.0,0.0,0.0,0.0,0.0,0.0,0.0,0.0,0.0,0.0,0.0,0.0,0.0,0.0,0.0,0.0,0.0,0.0,0.0,0.0,0.0,0.0,0.0,0.0,0.0,0.0,0.0,0.0,0.0,0.0,0.0,0.0,0.0,0.0,0.0,0.0,0.0,0.0,0.0,0.0,0.0,0.0,0.0,0.0,0.0,0.0,0.0,0.0,0.0,0.0,0.0,0.0,0.0,0.0,0.0,0.0,0.0,0.0,0.0,0.0,0.0,0.0,0.0,0.0,0.0,0.0,0.0,0.0,0.0,0.0,0.0,0.0,0.0,1.9976,2.0886,2.1624,2.1756,2.1716,2.1505,2.1426,2.0385,1.8051,1.7892,0.0,0.0,0.0,0.0,0.0,0.0,0.0,0.0,0.0,0.0,0.0,0.0,0.0,0.0,0.0,0.0,0.0,0.0,0.0,0.0,0.0,0.0,0.0,0.0,0.0,0.0,0.0,0.0,0.0,0.0,0.0,0.0,0.0,0.0,0.0,0.0,0.0,0.0,0.0,0.0,0.0,0.0,0.0,0.0,0.0,0.0,0.0,0.0,0.0,0.0,0.0,0.0,0.0,0.0,0.0,0.0,0.0,0.0,0.0,0.0,0.0,0.0,0.0,0.0,0.0,0.0,0.0,0.0,0.0,0.0,0.0,0.0,0.0,0.0,0.0,0.0,0.0,0.0,0.0,0.0,0.0,0.0,0.0,0.0,0.0,0.0,0.0,0.0,0.0,0.0,0.0,0.0,0.0,0.0,0.0,0.0,0.0,0.0,0.0,0.0,0.0,0.0,1.8868,1.9844,2.0978,2.1228,2.1242,2.1097,2.1202,2.0279,1.7945,1.755,0.0,0.0,0.0,0.0,0.0,0.0,0.0,0.0,0.0,0.0,0.0,0.0,0.0,0.0,0.0,0.0,0.0,0.0,0.0,0.0,0.0,0.0,0.0,0.0,0.0,0.0,0.0,0.0,0.0,0.0,0.0,0.0,0.0,0.0,0.0,0.0,0.0,0.0,0.0,0.0,0.0,0.0,0.0,0.0,0.0,0.0,0.0,0.0,0.0,0.0,0.0,0.0,0.0,0.0,0.0,0.0,0.0,0.0,0.0,0.0,0.0,0.0,0.0,0.0,0.0,0.0,0.0,0.0,0.0,0.0,0.0,0.0,0.0,0.0,0.0,0.0,0.0,0.0,0.0,0.0,0.0,0.0,0.0,0.0,0.0,0.0,0.0,0.0,0.0,0.0,0.0,0.0,0.0,0.0,0.0,0.0,0.0,0.0,0.0,0.0,0.0,0.0,0.0,1.8723,2.0002,2.0477,2.0714,2.0714,2.0938,2.0121,1.7866,0.0,0.0,0.0,0.0,0.0,0.0,0.0,0.0,0.0,0.0,0.0,0.0,0.0,0.0,0.0,0.0,0.0,0.0,0.0,0.0,0.0,0.0,0.0,0.0,0.0,0.0,0.0,0.0,0.0,0.0,0.0,0.0,0.0,0.0,0.0,0.0,0.0,0.0,0.0,0.0,0.0,0.0,0.0,0.0,0.0,0.0,0.0,0.0,0.0,0.0,0.0,0.0,0.0,0.0,0.0,0.0,0.0,0.0,0.0,0.0,0.0,0.0,0.0,0.0,0.0,0.0,0.0,0.0,0.0,0.0,0.0,0.0,0.0,0.0,0.0,0.0,0.0,0.0,0.0,0.0,0.0,0.0,0.0,0.0,0.0,0.0,0.0,0.0,0.0,0.0,0.0,0.0,0.0,0.0,0.0,0.0,0.0,0.0,0.0,0.0,0.0,0.0,0.0,0.0,1.842,1.8895,1.9646,2.0121,2.0121,2.016,1.9396,1.755,0.0,0.0,0.0,0.0,0.0,0.0,0.0,0.0,0.0,0.0,0.0,0.0,0.0,0.0]}]]]